<?xml version="1.0" encoding="UTF-8" standalone="no" ?>
<gpx xmlns="http://www.topografix.com/GPX/1/1" xmlns:xsi="http://www.w3.org/2001/XMLSchema-instance" xsi:schemaLocation="http://www.topografix.com/GPX/1/1 http://www.topografix.com/GPX/1/1/gpx.xsd" version="1.1" creator="VisuGPX - https://www.visugpx.com">
  <metadata>
    <name>1 - Laguiole - St Chély d'Aubrac</name>
    <desc><![CDATA[Rando aubrac 2013
réalisé.]]></desc>
  </metadata>
  <trk>
    <name><![CDATA[21 juil. 2013 09:05:28]]></name>
    <cmt><![CDATA[21 juil. 2013 09:05:28]]></cmt>
    <trkseg>
      <trkpt lat="44.67185" lon="2.92592">
        <ele>1327</ele>
        <time>2013-07-21T07:05:30Z</time>
      </trkpt>
      <trkpt lat="44.67186" lon="2.9258">
        <ele>1311</ele>
        <time>2013-07-21T07:05:36Z</time>
      </trkpt>
      <trkpt lat="44.67187" lon="2.92573">
        <ele>1312</ele>
        <time>2013-07-21T07:05:39Z</time>
      </trkpt>
      <trkpt lat="44.67188" lon="2.92566">
        <ele>1313</ele>
        <time>2013-07-21T07:05:43Z</time>
      </trkpt>
      <trkpt lat="44.67187" lon="2.9256">
        <ele>1314</ele>
        <time>2013-07-21T07:05:53Z</time>
      </trkpt>
      <trkpt lat="44.67183" lon="2.92558">
        <ele>1314</ele>
        <time>2013-07-21T07:05:56Z</time>
      </trkpt>
      <trkpt lat="44.6718" lon="2.9255">
        <ele>1315</ele>
        <time>2013-07-21T07:05:59Z</time>
      </trkpt>
      <trkpt lat="44.67179" lon="2.92543">
        <ele>1317</ele>
        <time>2013-07-21T07:06:01Z</time>
      </trkpt>
      <trkpt lat="44.67175" lon="2.92538">
        <ele>1318</ele>
        <time>2013-07-21T07:06:07Z</time>
      </trkpt>
      <trkpt lat="44.67173" lon="2.92531">
        <ele>1317</ele>
        <time>2013-07-21T07:06:11Z</time>
      </trkpt>
      <trkpt lat="44.67171" lon="2.92525">
        <ele>1316</ele>
        <time>2013-07-21T07:06:15Z</time>
      </trkpt>
      <trkpt lat="44.67169" lon="2.92519">
        <ele>1313</ele>
        <time>2013-07-21T07:06:23Z</time>
      </trkpt>
      <trkpt lat="44.67161" lon="2.92507">
        <ele>1313</ele>
        <time>2013-07-21T07:06:36Z</time>
      </trkpt>
      <trkpt lat="44.6716" lon="2.92493">
        <ele>1314</ele>
        <time>2013-07-21T07:06:41Z</time>
      </trkpt>
      <trkpt lat="44.67159" lon="2.92485">
        <ele>1313</ele>
        <time>2013-07-21T07:06:55Z</time>
      </trkpt>
      <trkpt lat="44.67157" lon="2.92479">
        <ele>1312</ele>
        <time>2013-07-21T07:07:02Z</time>
      </trkpt>
      <trkpt lat="44.67154" lon="2.92472">
        <ele>1312</ele>
        <time>2013-07-21T07:07:06Z</time>
      </trkpt>
      <trkpt lat="44.67152" lon="2.92463">
        <ele>1312</ele>
        <time>2013-07-21T07:07:09Z</time>
      </trkpt>
      <trkpt lat="44.67152" lon="2.92456">
        <ele>1313</ele>
        <time>2013-07-21T07:07:13Z</time>
      </trkpt>
      <trkpt lat="44.67153" lon="2.92448">
        <ele>1313</ele>
        <time>2013-07-21T07:07:17Z</time>
      </trkpt>
      <trkpt lat="44.67154" lon="2.92441">
        <ele>1313</ele>
        <time>2013-07-21T07:07:22Z</time>
      </trkpt>
      <trkpt lat="44.67152" lon="2.92435">
        <ele>1312</ele>
        <time>2013-07-21T07:07:27Z</time>
      </trkpt>
      <trkpt lat="44.67151" lon="2.92429">
        <ele>1312</ele>
        <time>2013-07-21T07:07:31Z</time>
      </trkpt>
      <trkpt lat="44.67147" lon="2.92426">
        <ele>1312</ele>
        <time>2013-07-21T07:07:37Z</time>
      </trkpt>
      <trkpt lat="44.67143" lon="2.92421">
        <ele>1311</ele>
        <time>2013-07-21T07:07:40Z</time>
      </trkpt>
      <trkpt lat="44.67139" lon="2.92416">
        <ele>1311</ele>
        <time>2013-07-21T07:07:44Z</time>
      </trkpt>
      <trkpt lat="44.67137" lon="2.9241">
        <ele>1311</ele>
        <time>2013-07-21T07:07:47Z</time>
      </trkpt>
      <trkpt lat="44.67134" lon="2.92402">
        <ele>1312</ele>
        <time>2013-07-21T07:07:51Z</time>
      </trkpt>
      <trkpt lat="44.67131" lon="2.92389">
        <ele>1312</ele>
        <time>2013-07-21T07:07:59Z</time>
      </trkpt>
      <trkpt lat="44.67128" lon="2.92383">
        <ele>1310</ele>
        <time>2013-07-21T07:08:06Z</time>
      </trkpt>
      <trkpt lat="44.67125" lon="2.92375">
        <ele>1312</ele>
        <time>2013-07-21T07:08:11Z</time>
      </trkpt>
      <trkpt lat="44.6712" lon="2.92369">
        <ele>1309</ele>
        <time>2013-07-21T07:08:15Z</time>
      </trkpt>
      <trkpt lat="44.67115" lon="2.92362">
        <ele>1307</ele>
        <time>2013-07-21T07:08:20Z</time>
      </trkpt>
      <trkpt lat="44.67111" lon="2.92358">
        <ele>1306</ele>
        <time>2013-07-21T07:08:24Z</time>
      </trkpt>
      <trkpt lat="44.67108" lon="2.92347">
        <ele>1305</ele>
        <time>2013-07-21T07:08:35Z</time>
      </trkpt>
      <trkpt lat="44.67107" lon="2.9234">
        <ele>1306</ele>
        <time>2013-07-21T07:08:37Z</time>
      </trkpt>
      <trkpt lat="44.671" lon="2.92331">
        <ele>1306</ele>
        <time>2013-07-21T07:08:43Z</time>
      </trkpt>
      <trkpt lat="44.67097" lon="2.92325">
        <ele>1305</ele>
        <time>2013-07-21T07:08:47Z</time>
      </trkpt>
      <trkpt lat="44.67093" lon="2.92321">
        <ele>1306</ele>
        <time>2013-07-21T07:08:49Z</time>
      </trkpt>
      <trkpt lat="44.67089" lon="2.92316">
        <ele>1308</ele>
        <time>2013-07-21T07:08:53Z</time>
      </trkpt>
      <trkpt lat="44.67086" lon="2.92311">
        <ele>1310</ele>
        <time>2013-07-21T07:08:56Z</time>
      </trkpt>
      <trkpt lat="44.67085" lon="2.92303">
        <ele>1312</ele>
        <time>2013-07-21T07:09:00Z</time>
      </trkpt>
      <trkpt lat="44.67082" lon="2.9229">
        <ele>1314</ele>
        <time>2013-07-21T07:09:05Z</time>
      </trkpt>
      <trkpt lat="44.67079" lon="2.92276">
        <ele>1316</ele>
        <time>2013-07-21T07:09:11Z</time>
      </trkpt>
      <trkpt lat="44.67075" lon="2.92264">
        <ele>1320</ele>
        <time>2013-07-21T07:09:29Z</time>
      </trkpt>
      <trkpt lat="44.67073" lon="2.92258">
        <ele>1321</ele>
        <time>2013-07-21T07:09:32Z</time>
      </trkpt>
      <trkpt lat="44.6707" lon="2.92252">
        <ele>1323</ele>
        <time>2013-07-21T07:09:38Z</time>
      </trkpt>
      <trkpt lat="44.67069" lon="2.92245">
        <ele>1323</ele>
        <time>2013-07-21T07:09:42Z</time>
      </trkpt>
      <trkpt lat="44.67066" lon="2.92233">
        <ele>1323</ele>
        <time>2013-07-21T07:09:48Z</time>
      </trkpt>
      <trkpt lat="44.67065" lon="2.92223">
        <ele>1324</ele>
        <time>2013-07-21T07:09:53Z</time>
      </trkpt>
      <trkpt lat="44.67064" lon="2.92211">
        <ele>1324</ele>
        <time>2013-07-21T07:09:58Z</time>
      </trkpt>
      <trkpt lat="44.67072" lon="2.92203">
        <ele>1326</ele>
        <time>2013-07-21T07:10:06Z</time>
      </trkpt>
      <trkpt lat="44.67081" lon="2.92203">
        <ele>1327</ele>
        <time>2013-07-21T07:10:14Z</time>
      </trkpt>
      <trkpt lat="44.67082" lon="2.92197">
        <ele>1323</ele>
        <time>2013-07-21T07:12:06Z</time>
      </trkpt>
      <trkpt lat="44.67078" lon="2.92192">
        <ele>1323</ele>
        <time>2013-07-21T07:12:10Z</time>
      </trkpt>
      <trkpt lat="44.67074" lon="2.92186">
        <ele>1321</ele>
        <time>2013-07-21T07:12:13Z</time>
      </trkpt>
      <trkpt lat="44.6707" lon="2.92182">
        <ele>1320</ele>
        <time>2013-07-21T07:12:17Z</time>
      </trkpt>
      <trkpt lat="44.67063" lon="2.92163">
        <ele>1317</ele>
        <time>2013-07-21T07:12:39Z</time>
      </trkpt>
      <trkpt lat="44.67061" lon="2.92161">
        <ele>1332</ele>
        <time>2013-07-21T07:15:25Z</time>
      </trkpt>
      <trkpt lat="44.67053" lon="2.92155">
        <ele>1329</ele>
        <time>2013-07-21T07:15:58Z</time>
      </trkpt>
      <trkpt lat="44.67043" lon="2.92145">
        <ele>1321</ele>
        <time>2013-07-21T07:16:09Z</time>
      </trkpt>
      <trkpt lat="44.67043" lon="2.92138">
        <ele>1320</ele>
        <time>2013-07-21T07:16:13Z</time>
      </trkpt>
      <trkpt lat="44.67044" lon="2.92133">
        <ele>1321</ele>
        <time>2013-07-21T07:16:22Z</time>
      </trkpt>
      <trkpt lat="44.67041" lon="2.92124">
        <ele>1325</ele>
        <time>2013-07-21T07:16:55Z</time>
      </trkpt>
      <trkpt lat="44.67034" lon="2.92115">
        <ele>1326</ele>
        <time>2013-07-21T07:17:01Z</time>
      </trkpt>
      <trkpt lat="44.6703" lon="2.92109">
        <ele>1327</ele>
        <time>2013-07-21T07:17:05Z</time>
      </trkpt>
      <trkpt lat="44.67027" lon="2.92105">
        <ele>1328</ele>
        <time>2013-07-21T07:17:08Z</time>
      </trkpt>
      <trkpt lat="44.67024" lon="2.921">
        <ele>1328</ele>
        <time>2013-07-21T07:17:11Z</time>
      </trkpt>
      <trkpt lat="44.67021" lon="2.92095">
        <ele>1328</ele>
        <time>2013-07-21T07:17:14Z</time>
      </trkpt>
      <trkpt lat="44.67017" lon="2.9209">
        <ele>1329</ele>
        <time>2013-07-21T07:17:17Z</time>
      </trkpt>
      <trkpt lat="44.67014" lon="2.92085">
        <ele>1330</ele>
        <time>2013-07-21T07:17:20Z</time>
      </trkpt>
      <trkpt lat="44.67011" lon="2.92078">
        <ele>1330</ele>
        <time>2013-07-21T07:17:24Z</time>
      </trkpt>
      <trkpt lat="44.67008" lon="2.92071">
        <ele>1330</ele>
        <time>2013-07-21T07:17:29Z</time>
      </trkpt>
      <trkpt lat="44.67006" lon="2.92063">
        <ele>1329</ele>
        <time>2013-07-21T07:17:32Z</time>
      </trkpt>
      <trkpt lat="44.67003" lon="2.92056">
        <ele>1330</ele>
        <time>2013-07-21T07:17:36Z</time>
      </trkpt>
      <trkpt lat="44.67001" lon="2.92045">
        <ele>1331</ele>
        <time>2013-07-21T07:17:42Z</time>
      </trkpt>
      <trkpt lat="44.67" lon="2.92036">
        <ele>1331</ele>
        <time>2013-07-21T07:17:46Z</time>
      </trkpt>
      <trkpt lat="44.66998" lon="2.92029">
        <ele>1330</ele>
        <time>2013-07-21T07:17:50Z</time>
      </trkpt>
      <trkpt lat="44.66997" lon="2.92023">
        <ele>1329</ele>
        <time>2013-07-21T07:17:53Z</time>
      </trkpt>
      <trkpt lat="44.66994" lon="2.9201">
        <ele>1327</ele>
        <time>2013-07-21T07:17:59Z</time>
      </trkpt>
      <trkpt lat="44.66991" lon="2.92002">
        <ele>1328</ele>
        <time>2013-07-21T07:18:03Z</time>
      </trkpt>
      <trkpt lat="44.66988" lon="2.91992">
        <ele>1327</ele>
        <time>2013-07-21T07:18:08Z</time>
      </trkpt>
      <trkpt lat="44.66986" lon="2.91978">
        <ele>1327</ele>
        <time>2013-07-21T07:18:17Z</time>
      </trkpt>
      <trkpt lat="44.66981" lon="2.91965">
        <ele>1327</ele>
        <time>2013-07-21T07:18:24Z</time>
      </trkpt>
      <trkpt lat="44.66977" lon="2.91961">
        <ele>1327</ele>
        <time>2013-07-21T07:18:27Z</time>
      </trkpt>
      <trkpt lat="44.66973" lon="2.91957">
        <ele>1326</ele>
        <time>2013-07-21T07:18:30Z</time>
      </trkpt>
      <trkpt lat="44.66969" lon="2.91953">
        <ele>1325</ele>
        <time>2013-07-21T07:18:34Z</time>
      </trkpt>
      <trkpt lat="44.66965" lon="2.91948">
        <ele>1325</ele>
        <time>2013-07-21T07:18:38Z</time>
      </trkpt>
      <trkpt lat="44.66961" lon="2.91942">
        <ele>1325</ele>
        <time>2013-07-21T07:18:42Z</time>
      </trkpt>
      <trkpt lat="44.66956" lon="2.91935">
        <ele>1326</ele>
        <time>2013-07-21T07:18:47Z</time>
      </trkpt>
      <trkpt lat="44.66954" lon="2.9193">
        <ele>1326</ele>
        <time>2013-07-21T07:18:50Z</time>
      </trkpt>
      <trkpt lat="44.66951" lon="2.91924">
        <ele>1326</ele>
        <time>2013-07-21T07:18:54Z</time>
      </trkpt>
      <trkpt lat="44.66949" lon="2.91918">
        <ele>1326</ele>
        <time>2013-07-21T07:18:58Z</time>
      </trkpt>
      <trkpt lat="44.66946" lon="2.91912">
        <ele>1326</ele>
        <time>2013-07-21T07:19:01Z</time>
      </trkpt>
      <trkpt lat="44.66943" lon="2.91907">
        <ele>1327</ele>
        <time>2013-07-21T07:19:04Z</time>
      </trkpt>
      <trkpt lat="44.6694" lon="2.91901">
        <ele>1329</ele>
        <time>2013-07-21T07:19:07Z</time>
      </trkpt>
      <trkpt lat="44.66937" lon="2.91895">
        <ele>1329</ele>
        <time>2013-07-21T07:19:10Z</time>
      </trkpt>
      <trkpt lat="44.66934" lon="2.91889">
        <ele>1329</ele>
        <time>2013-07-21T07:19:14Z</time>
      </trkpt>
      <trkpt lat="44.66931" lon="2.91884">
        <ele>1327</ele>
        <time>2013-07-21T07:19:17Z</time>
      </trkpt>
      <trkpt lat="44.66927" lon="2.91879">
        <ele>1327</ele>
        <time>2013-07-21T07:19:21Z</time>
      </trkpt>
      <trkpt lat="44.66924" lon="2.91873">
        <ele>1326</ele>
        <time>2013-07-21T07:19:25Z</time>
      </trkpt>
      <trkpt lat="44.66921" lon="2.91865">
        <ele>1326</ele>
        <time>2013-07-21T07:19:29Z</time>
      </trkpt>
      <trkpt lat="44.66918" lon="2.9186">
        <ele>1325</ele>
        <time>2013-07-21T07:19:33Z</time>
      </trkpt>
      <trkpt lat="44.66915" lon="2.91854">
        <ele>1325</ele>
        <time>2013-07-21T07:19:36Z</time>
      </trkpt>
      <trkpt lat="44.6691" lon="2.91848">
        <ele>1324</ele>
        <time>2013-07-21T07:19:40Z</time>
      </trkpt>
      <trkpt lat="44.66907" lon="2.91843">
        <ele>1325</ele>
        <time>2013-07-21T07:19:43Z</time>
      </trkpt>
      <trkpt lat="44.66904" lon="2.91836">
        <ele>1324</ele>
        <time>2013-07-21T07:19:47Z</time>
      </trkpt>
      <trkpt lat="44.66901" lon="2.91831">
        <ele>1325</ele>
        <time>2013-07-21T07:19:51Z</time>
      </trkpt>
      <trkpt lat="44.66898" lon="2.91826">
        <ele>1324</ele>
        <time>2013-07-21T07:19:54Z</time>
      </trkpt>
      <trkpt lat="44.66894" lon="2.9182">
        <ele>1324</ele>
        <time>2013-07-21T07:19:57Z</time>
      </trkpt>
      <trkpt lat="44.66891" lon="2.91816">
        <ele>1324</ele>
        <time>2013-07-21T07:20:00Z</time>
      </trkpt>
      <trkpt lat="44.66887" lon="2.91811">
        <ele>1324</ele>
        <time>2013-07-21T07:20:03Z</time>
      </trkpt>
      <trkpt lat="44.66884" lon="2.91807">
        <ele>1323</ele>
        <time>2013-07-21T07:20:07Z</time>
      </trkpt>
      <trkpt lat="44.66879" lon="2.91802">
        <ele>1322</ele>
        <time>2013-07-21T07:20:11Z</time>
      </trkpt>
      <trkpt lat="44.66874" lon="2.91799">
        <ele>1320</ele>
        <time>2013-07-21T07:20:15Z</time>
      </trkpt>
      <trkpt lat="44.66871" lon="2.91794">
        <ele>1320</ele>
        <time>2013-07-21T07:20:19Z</time>
      </trkpt>
      <trkpt lat="44.66867" lon="2.91789">
        <ele>1319</ele>
        <time>2013-07-21T07:20:23Z</time>
      </trkpt>
      <trkpt lat="44.66862" lon="2.91785">
        <ele>1316</ele>
        <time>2013-07-21T07:20:29Z</time>
      </trkpt>
      <trkpt lat="44.66855" lon="2.91777">
        <ele>1313</ele>
        <time>2013-07-21T07:20:36Z</time>
      </trkpt>
      <trkpt lat="44.66847" lon="2.91767">
        <ele>1311</ele>
        <time>2013-07-21T07:20:44Z</time>
      </trkpt>
      <trkpt lat="44.6684" lon="2.9176">
        <ele>1309</ele>
        <time>2013-07-21T07:20:50Z</time>
      </trkpt>
      <trkpt lat="44.66836" lon="2.91756">
        <ele>1309</ele>
        <time>2013-07-21T07:20:53Z</time>
      </trkpt>
      <trkpt lat="44.6683" lon="2.91745">
        <ele>1311</ele>
        <time>2013-07-21T07:21:01Z</time>
      </trkpt>
      <trkpt lat="44.66825" lon="2.91741">
        <ele>1314</ele>
        <time>2013-07-21T07:21:07Z</time>
      </trkpt>
      <trkpt lat="44.66819" lon="2.91737">
        <ele>1316</ele>
        <time>2013-07-21T07:21:15Z</time>
      </trkpt>
      <trkpt lat="44.66821" lon="2.9174">
        <ele>1317</ele>
        <time>2013-07-21T07:21:22Z</time>
      </trkpt>
      <trkpt lat="44.66814" lon="2.91738">
        <ele>1315</ele>
        <time>2013-07-21T07:21:31Z</time>
      </trkpt>
      <trkpt lat="44.66808" lon="2.91738">
        <ele>1314</ele>
        <time>2013-07-21T07:21:37Z</time>
      </trkpt>
      <trkpt lat="44.66803" lon="2.91739">
        <ele>1312</ele>
        <time>2013-07-21T07:21:44Z</time>
      </trkpt>
      <trkpt lat="44.66798" lon="2.91736">
        <ele>1311</ele>
        <time>2013-07-21T07:21:54Z</time>
      </trkpt>
      <trkpt lat="44.66795" lon="2.91738">
        <ele>1313</ele>
        <time>2013-07-21T07:22:06Z</time>
      </trkpt>
      <trkpt lat="44.66793" lon="2.91735">
        <ele>1318</ele>
        <time>2013-07-21T07:22:35Z</time>
      </trkpt>
      <trkpt lat="44.66791" lon="2.91728">
        <ele>1315</ele>
        <time>2013-07-21T07:23:04Z</time>
      </trkpt>
      <trkpt lat="44.66789" lon="2.9172">
        <ele>1314</ele>
        <time>2013-07-21T07:24:20Z</time>
      </trkpt>
      <trkpt lat="44.66786" lon="2.91712">
        <ele>1314</ele>
        <time>2013-07-21T07:25:13Z</time>
      </trkpt>
      <trkpt lat="44.66786" lon="2.91699">
        <ele>1314</ele>
        <time>2013-07-21T07:25:19Z</time>
      </trkpt>
      <trkpt lat="44.66779" lon="2.91687">
        <ele>1312</ele>
        <time>2013-07-21T07:25:26Z</time>
      </trkpt>
      <trkpt lat="44.66772" lon="2.91678">
        <ele>1311</ele>
        <time>2013-07-21T07:25:33Z</time>
      </trkpt>
      <trkpt lat="44.66766" lon="2.91668">
        <ele>1310</ele>
        <time>2013-07-21T07:25:40Z</time>
      </trkpt>
      <trkpt lat="44.66761" lon="2.91662">
        <ele>1310</ele>
        <time>2013-07-21T07:25:44Z</time>
      </trkpt>
      <trkpt lat="44.66756" lon="2.91651">
        <ele>1312</ele>
        <time>2013-07-21T07:25:52Z</time>
      </trkpt>
      <trkpt lat="44.66752" lon="2.91638">
        <ele>1312</ele>
        <time>2013-07-21T07:25:59Z</time>
      </trkpt>
      <trkpt lat="44.66747" lon="2.91626">
        <ele>1311</ele>
        <time>2013-07-21T07:26:07Z</time>
      </trkpt>
      <trkpt lat="44.66741" lon="2.91615">
        <ele>1311</ele>
        <time>2013-07-21T07:26:14Z</time>
      </trkpt>
      <trkpt lat="44.66736" lon="2.91604">
        <ele>1309</ele>
        <time>2013-07-21T07:26:20Z</time>
      </trkpt>
      <trkpt lat="44.66734" lon="2.91598">
        <ele>1308</ele>
        <time>2013-07-21T07:26:24Z</time>
      </trkpt>
      <trkpt lat="44.66728" lon="2.91586">
        <ele>1306</ele>
        <time>2013-07-21T07:26:31Z</time>
      </trkpt>
      <trkpt lat="44.66722" lon="2.91577">
        <ele>1305</ele>
        <time>2013-07-21T07:26:38Z</time>
      </trkpt>
      <trkpt lat="44.66716" lon="2.91566">
        <ele>1304</ele>
        <time>2013-07-21T07:26:46Z</time>
      </trkpt>
      <trkpt lat="44.66709" lon="2.91555">
        <ele>1303</ele>
        <time>2013-07-21T07:26:52Z</time>
      </trkpt>
      <trkpt lat="44.66702" lon="2.91546">
        <ele>1304</ele>
        <time>2013-07-21T07:26:58Z</time>
      </trkpt>
      <trkpt lat="44.66696" lon="2.91536">
        <ele>1307</ele>
        <time>2013-07-21T07:27:06Z</time>
      </trkpt>
      <trkpt lat="44.66689" lon="2.91527">
        <ele>1306</ele>
        <time>2013-07-21T07:27:13Z</time>
      </trkpt>
      <trkpt lat="44.66684" lon="2.91517">
        <ele>1304</ele>
        <time>2013-07-21T07:27:18Z</time>
      </trkpt>
      <trkpt lat="44.66675" lon="2.9151">
        <ele>1306</ele>
        <time>2013-07-21T07:27:24Z</time>
      </trkpt>
      <trkpt lat="44.66667" lon="2.91502">
        <ele>1307</ele>
        <time>2013-07-21T07:27:32Z</time>
      </trkpt>
      <trkpt lat="44.66659" lon="2.91493">
        <ele>1308</ele>
        <time>2013-07-21T07:27:39Z</time>
      </trkpt>
      <trkpt lat="44.66654" lon="2.9148">
        <ele>1308</ele>
        <time>2013-07-21T07:27:54Z</time>
      </trkpt>
      <trkpt lat="44.66647" lon="2.91472">
        <ele>1307</ele>
        <time>2013-07-21T07:28:00Z</time>
      </trkpt>
      <trkpt lat="44.66639" lon="2.91464">
        <ele>1305</ele>
        <time>2013-07-21T07:28:09Z</time>
      </trkpt>
      <trkpt lat="44.66631" lon="2.91458">
        <ele>1306</ele>
        <time>2013-07-21T07:28:16Z</time>
      </trkpt>
      <trkpt lat="44.66623" lon="2.91453">
        <ele>1306</ele>
        <time>2013-07-21T07:28:24Z</time>
      </trkpt>
      <trkpt lat="44.66614" lon="2.91446">
        <ele>1308</ele>
        <time>2013-07-21T07:28:31Z</time>
      </trkpt>
      <trkpt lat="44.66606" lon="2.91437">
        <ele>1308</ele>
        <time>2013-07-21T07:28:39Z</time>
      </trkpt>
      <trkpt lat="44.66597" lon="2.91431">
        <ele>1307</ele>
        <time>2013-07-21T07:28:47Z</time>
      </trkpt>
      <trkpt lat="44.66589" lon="2.91426">
        <ele>1304</ele>
        <time>2013-07-21T07:28:53Z</time>
      </trkpt>
      <trkpt lat="44.66582" lon="2.91425">
        <ele>1305</ele>
        <time>2013-07-21T07:28:59Z</time>
      </trkpt>
      <trkpt lat="44.66571" lon="2.91424">
        <ele>1314</ele>
        <time>2013-07-21T07:29:49Z</time>
      </trkpt>
      <trkpt lat="44.66568" lon="2.91425">
        <ele>1312</ele>
        <time>2013-07-21T07:30:06Z</time>
      </trkpt>
      <trkpt lat="44.66372" lon="2.91698">
        <ele>1318</ele>
        <time>2013-07-21T11:45:35Z</time>
      </trkpt>
      <trkpt lat="44.66368" lon="2.91693">
        <ele>1317</ele>
        <time>2013-07-21T11:45:59Z</time>
      </trkpt>
      <trkpt lat="44.66362" lon="2.91697">
        <ele>1318</ele>
        <time>2013-07-21T11:46:26Z</time>
      </trkpt>
      <trkpt lat="44.66353" lon="2.91703">
        <ele>1317</ele>
        <time>2013-07-21T11:47:04Z</time>
      </trkpt>
      <trkpt lat="44.66342" lon="2.91708">
        <ele>1316</ele>
        <time>2013-07-21T11:47:11Z</time>
      </trkpt>
      <trkpt lat="44.66337" lon="2.9171">
        <ele>1316</ele>
        <time>2013-07-21T11:47:15Z</time>
      </trkpt>
      <trkpt lat="44.66328" lon="2.91715">
        <ele>1315</ele>
        <time>2013-07-21T11:47:20Z</time>
      </trkpt>
      <trkpt lat="44.66319" lon="2.91721">
        <ele>1313</ele>
        <time>2013-07-21T11:47:24Z</time>
      </trkpt>
      <trkpt lat="44.6631" lon="2.91726">
        <ele>1309</ele>
        <time>2013-07-21T11:47:30Z</time>
      </trkpt>
      <trkpt lat="44.663" lon="2.91728">
        <ele>1305</ele>
        <time>2013-07-21T11:47:37Z</time>
      </trkpt>
      <trkpt lat="44.6629" lon="2.9173">
        <ele>1302</ele>
        <time>2013-07-21T11:47:43Z</time>
      </trkpt>
      <trkpt lat="44.6628" lon="2.91732">
        <ele>1299</ele>
        <time>2013-07-21T11:47:49Z</time>
      </trkpt>
      <trkpt lat="44.66271" lon="2.91733">
        <ele>1298</ele>
        <time>2013-07-21T11:47:55Z</time>
      </trkpt>
      <trkpt lat="44.66262" lon="2.91737">
        <ele>1298</ele>
        <time>2013-07-21T11:48:00Z</time>
      </trkpt>
      <trkpt lat="44.66254" lon="2.91746">
        <ele>1298</ele>
        <time>2013-07-21T11:48:06Z</time>
      </trkpt>
      <trkpt lat="44.66247" lon="2.91756">
        <ele>1296</ele>
        <time>2013-07-21T11:48:12Z</time>
      </trkpt>
      <trkpt lat="44.6624" lon="2.91767">
        <ele>1293</ele>
        <time>2013-07-21T11:48:21Z</time>
      </trkpt>
      <trkpt lat="44.66232" lon="2.91775">
        <ele>1292</ele>
        <time>2013-07-21T11:48:27Z</time>
      </trkpt>
      <trkpt lat="44.66226" lon="2.91786">
        <ele>1293</ele>
        <time>2013-07-21T11:48:33Z</time>
      </trkpt>
      <trkpt lat="44.66218" lon="2.91796">
        <ele>1294</ele>
        <time>2013-07-21T11:48:40Z</time>
      </trkpt>
      <trkpt lat="44.66212" lon="2.91806">
        <ele>1296</ele>
        <time>2013-07-21T11:48:47Z</time>
      </trkpt>
      <trkpt lat="44.66204" lon="2.91817">
        <ele>1298</ele>
        <time>2013-07-21T11:48:54Z</time>
      </trkpt>
      <trkpt lat="44.66197" lon="2.91826">
        <ele>1299</ele>
        <time>2013-07-21T11:48:59Z</time>
      </trkpt>
      <trkpt lat="44.66193" lon="2.9183">
        <ele>1300</ele>
        <time>2013-07-21T11:49:02Z</time>
      </trkpt>
      <trkpt lat="44.66184" lon="2.91836">
        <ele>1301</ele>
        <time>2013-07-21T11:49:09Z</time>
      </trkpt>
      <trkpt lat="44.66174" lon="2.91837">
        <ele>1299</ele>
        <time>2013-07-21T11:49:16Z</time>
      </trkpt>
      <trkpt lat="44.66168" lon="2.91834">
        <ele>1299</ele>
        <time>2013-07-21T11:49:21Z</time>
      </trkpt>
      <trkpt lat="44.66156" lon="2.91834">
        <ele>1293</ele>
        <time>2013-07-21T11:49:40Z</time>
      </trkpt>
      <trkpt lat="44.66147" lon="2.91829">
        <ele>1292</ele>
        <time>2013-07-21T11:49:46Z</time>
      </trkpt>
      <trkpt lat="44.66137" lon="2.9183">
        <ele>1292</ele>
        <time>2013-07-21T11:49:53Z</time>
      </trkpt>
      <trkpt lat="44.66128" lon="2.91834">
        <ele>1293</ele>
        <time>2013-07-21T11:50:00Z</time>
      </trkpt>
      <trkpt lat="44.66119" lon="2.9184">
        <ele>1293</ele>
        <time>2013-07-21T11:50:06Z</time>
      </trkpt>
      <trkpt lat="44.66112" lon="2.91848">
        <ele>1292</ele>
        <time>2013-07-21T11:50:11Z</time>
      </trkpt>
      <trkpt lat="44.66104" lon="2.91854">
        <ele>1291</ele>
        <time>2013-07-21T11:50:19Z</time>
      </trkpt>
      <trkpt lat="44.66094" lon="2.91853">
        <ele>1290</ele>
        <time>2013-07-21T11:50:25Z</time>
      </trkpt>
      <trkpt lat="44.66084" lon="2.91855">
        <ele>1289</ele>
        <time>2013-07-21T11:50:32Z</time>
      </trkpt>
      <trkpt lat="44.66071" lon="2.91855">
        <ele>1294</ele>
        <time>2013-07-21T11:50:40Z</time>
      </trkpt>
      <trkpt lat="44.66067" lon="2.9185">
        <ele>1303</ele>
        <time>2013-07-21T11:50:51Z</time>
      </trkpt>
      <trkpt lat="44.66056" lon="2.91853">
        <ele>1310</ele>
        <time>2013-07-21T11:51:05Z</time>
      </trkpt>
      <trkpt lat="44.66054" lon="2.91856">
        <ele>1309</ele>
        <time>2013-07-21T11:51:18Z</time>
      </trkpt>
      <trkpt lat="44.66048" lon="2.91859">
        <ele>1309</ele>
        <time>2013-07-21T11:51:50Z</time>
      </trkpt>
      <trkpt lat="44.66038" lon="2.91865">
        <ele>1307</ele>
        <time>2013-07-21T11:51:57Z</time>
      </trkpt>
      <trkpt lat="44.66029" lon="2.91867">
        <ele>1305</ele>
        <time>2013-07-21T11:52:03Z</time>
      </trkpt>
      <trkpt lat="44.66018" lon="2.91871">
        <ele>1304</ele>
        <time>2013-07-21T11:52:11Z</time>
      </trkpt>
      <trkpt lat="44.66013" lon="2.91871">
        <ele>1306</ele>
        <time>2013-07-21T11:52:16Z</time>
      </trkpt>
      <trkpt lat="44.66003" lon="2.91874">
        <ele>1306</ele>
        <time>2013-07-21T11:52:23Z</time>
      </trkpt>
      <trkpt lat="44.65995" lon="2.91879">
        <ele>1304</ele>
        <time>2013-07-21T11:52:30Z</time>
      </trkpt>
      <trkpt lat="44.65986" lon="2.91886">
        <ele>1304</ele>
        <time>2013-07-21T11:52:36Z</time>
      </trkpt>
      <trkpt lat="44.65979" lon="2.91895">
        <ele>1304</ele>
        <time>2013-07-21T11:52:42Z</time>
      </trkpt>
      <trkpt lat="44.65972" lon="2.91906">
        <ele>1305</ele>
        <time>2013-07-21T11:52:50Z</time>
      </trkpt>
      <trkpt lat="44.65965" lon="2.91915">
        <ele>1308</ele>
        <time>2013-07-21T11:52:57Z</time>
      </trkpt>
      <trkpt lat="44.65956" lon="2.91925">
        <ele>1307</ele>
        <time>2013-07-21T11:53:05Z</time>
      </trkpt>
      <trkpt lat="44.65952" lon="2.91929">
        <ele>1305</ele>
        <time>2013-07-21T11:53:08Z</time>
      </trkpt>
      <trkpt lat="44.65945" lon="2.91939">
        <ele>1304</ele>
        <time>2013-07-21T11:53:16Z</time>
      </trkpt>
      <trkpt lat="44.65937" lon="2.91946">
        <ele>1306</ele>
        <time>2013-07-21T11:53:21Z</time>
      </trkpt>
      <trkpt lat="44.6593" lon="2.91959">
        <ele>1307</ele>
        <time>2013-07-21T11:53:27Z</time>
      </trkpt>
      <trkpt lat="44.65923" lon="2.91969">
        <ele>1309</ele>
        <time>2013-07-21T11:53:35Z</time>
      </trkpt>
      <trkpt lat="44.65914" lon="2.91974">
        <ele>1310</ele>
        <time>2013-07-21T11:53:45Z</time>
      </trkpt>
      <trkpt lat="44.65903" lon="2.91978">
        <ele>1307</ele>
        <time>2013-07-21T11:53:53Z</time>
      </trkpt>
      <trkpt lat="44.65896" lon="2.91986">
        <ele>1307</ele>
        <time>2013-07-21T11:53:57Z</time>
      </trkpt>
      <trkpt lat="44.65889" lon="2.91994">
        <ele>1307</ele>
        <time>2013-07-21T11:54:01Z</time>
      </trkpt>
      <trkpt lat="44.65863" lon="2.92028">
        <ele>1323</ele>
        <time>2013-07-21T11:54:26Z</time>
      </trkpt>
      <trkpt lat="44.65856" lon="2.92038">
        <ele>1322</ele>
        <time>2013-07-21T11:54:35Z</time>
      </trkpt>
      <trkpt lat="44.65848" lon="2.9205">
        <ele>1319</ele>
        <time>2013-07-21T11:54:43Z</time>
      </trkpt>
      <trkpt lat="44.65842" lon="2.92062">
        <ele>1317</ele>
        <time>2013-07-21T11:54:52Z</time>
      </trkpt>
      <trkpt lat="44.65837" lon="2.92075">
        <ele>1315</ele>
        <time>2013-07-21T11:55:01Z</time>
      </trkpt>
      <trkpt lat="44.65833" lon="2.92088">
        <ele>1313</ele>
        <time>2013-07-21T11:55:10Z</time>
      </trkpt>
      <trkpt lat="44.65828" lon="2.92099">
        <ele>1311</ele>
        <time>2013-07-21T11:55:16Z</time>
      </trkpt>
      <trkpt lat="44.65824" lon="2.92112">
        <ele>1307</ele>
        <time>2013-07-21T11:55:24Z</time>
      </trkpt>
      <trkpt lat="44.65818" lon="2.92124">
        <ele>1305</ele>
        <time>2013-07-21T11:55:30Z</time>
      </trkpt>
      <trkpt lat="44.65812" lon="2.92133">
        <ele>1306</ele>
        <time>2013-07-21T11:55:37Z</time>
      </trkpt>
      <trkpt lat="44.65806" lon="2.92143">
        <ele>1307</ele>
        <time>2013-07-21T11:55:43Z</time>
      </trkpt>
      <trkpt lat="44.658" lon="2.92153">
        <ele>1310</ele>
        <time>2013-07-21T11:55:52Z</time>
      </trkpt>
      <trkpt lat="44.65794" lon="2.92163">
        <ele>1310</ele>
        <time>2013-07-21T11:56:02Z</time>
      </trkpt>
      <trkpt lat="44.65787" lon="2.92173">
        <ele>1306</ele>
        <time>2013-07-21T11:56:11Z</time>
      </trkpt>
      <trkpt lat="44.65782" lon="2.92186">
        <ele>1305</ele>
        <time>2013-07-21T11:56:20Z</time>
      </trkpt>
      <trkpt lat="44.65774" lon="2.92199">
        <ele>1306</ele>
        <time>2013-07-21T11:56:26Z</time>
      </trkpt>
      <trkpt lat="44.65769" lon="2.92211">
        <ele>1308</ele>
        <time>2013-07-21T11:56:30Z</time>
      </trkpt>
      <trkpt lat="44.65763" lon="2.92223">
        <ele>1311</ele>
        <time>2013-07-21T11:56:35Z</time>
      </trkpt>
      <trkpt lat="44.65758" lon="2.92233">
        <ele>1315</ele>
        <time>2013-07-21T11:56:42Z</time>
      </trkpt>
      <trkpt lat="44.65751" lon="2.92242">
        <ele>1318</ele>
        <time>2013-07-21T11:56:48Z</time>
      </trkpt>
      <trkpt lat="44.65743" lon="2.92249">
        <ele>1319</ele>
        <time>2013-07-21T11:56:55Z</time>
      </trkpt>
      <trkpt lat="44.65735" lon="2.92257">
        <ele>1320</ele>
        <time>2013-07-21T11:57:00Z</time>
      </trkpt>
      <trkpt lat="44.65728" lon="2.92266">
        <ele>1320</ele>
        <time>2013-07-21T11:57:06Z</time>
      </trkpt>
      <trkpt lat="44.65721" lon="2.92275">
        <ele>1322</ele>
        <time>2013-07-21T11:57:17Z</time>
      </trkpt>
      <trkpt lat="44.65712" lon="2.92279">
        <ele>1323</ele>
        <time>2013-07-21T11:57:26Z</time>
      </trkpt>
      <trkpt lat="44.65703" lon="2.92285">
        <ele>1321</ele>
        <time>2013-07-21T11:57:34Z</time>
      </trkpt>
      <trkpt lat="44.65691" lon="2.92292">
        <ele>1319</ele>
        <time>2013-07-21T11:57:44Z</time>
      </trkpt>
      <trkpt lat="44.65681" lon="2.92294">
        <ele>1319</ele>
        <time>2013-07-21T11:57:50Z</time>
      </trkpt>
      <trkpt lat="44.65672" lon="2.92297">
        <ele>1319</ele>
        <time>2013-07-21T11:57:56Z</time>
      </trkpt>
      <trkpt lat="44.6566" lon="2.92298">
        <ele>1326</ele>
        <time>2013-07-21T11:58:27Z</time>
      </trkpt>
      <trkpt lat="44.65657" lon="2.92299">
        <ele>1326</ele>
        <time>2013-07-21T11:59:30Z</time>
      </trkpt>
      <trkpt lat="44.65655" lon="2.92291">
        <ele>1327</ele>
        <time>2013-07-21T11:59:35Z</time>
      </trkpt>
      <trkpt lat="44.65653" lon="2.92286">
        <ele>1328</ele>
        <time>2013-07-21T11:59:38Z</time>
      </trkpt>
      <trkpt lat="44.65649" lon="2.92281">
        <ele>1329</ele>
        <time>2013-07-21T11:59:42Z</time>
      </trkpt>
      <trkpt lat="44.6564" lon="2.92274">
        <ele>1329</ele>
        <time>2013-07-21T11:59:51Z</time>
      </trkpt>
      <trkpt lat="44.65635" lon="2.92271">
        <ele>1327</ele>
        <time>2013-07-21T11:59:55Z</time>
      </trkpt>
      <trkpt lat="44.6563" lon="2.9227">
        <ele>1326</ele>
        <time>2013-07-21T11:59:58Z</time>
      </trkpt>
      <trkpt lat="44.65626" lon="2.92265">
        <ele>1325</ele>
        <time>2013-07-21T12:00:02Z</time>
      </trkpt>
      <trkpt lat="44.65618" lon="2.92258">
        <ele>1324</ele>
        <time>2013-07-21T12:00:09Z</time>
      </trkpt>
      <trkpt lat="44.65613" lon="2.92256">
        <ele>1323</ele>
        <time>2013-07-21T12:00:12Z</time>
      </trkpt>
      <trkpt lat="44.65607" lon="2.92249">
        <ele>1321</ele>
        <time>2013-07-21T12:00:17Z</time>
      </trkpt>
      <trkpt lat="44.65603" lon="2.92243">
        <ele>1320</ele>
        <time>2013-07-21T12:00:22Z</time>
      </trkpt>
      <trkpt lat="44.65598" lon="2.92241">
        <ele>1318</ele>
        <time>2013-07-21T12:00:25Z</time>
      </trkpt>
      <trkpt lat="44.65593" lon="2.92236">
        <ele>1317</ele>
        <time>2013-07-21T12:00:29Z</time>
      </trkpt>
      <trkpt lat="44.6559" lon="2.92231">
        <ele>1316</ele>
        <time>2013-07-21T12:00:32Z</time>
      </trkpt>
      <trkpt lat="44.65588" lon="2.92226">
        <ele>1316</ele>
        <time>2013-07-21T12:00:35Z</time>
      </trkpt>
      <trkpt lat="44.65581" lon="2.92216">
        <ele>1316</ele>
        <time>2013-07-21T12:00:41Z</time>
      </trkpt>
      <trkpt lat="44.65578" lon="2.9221">
        <ele>1315</ele>
        <time>2013-07-21T12:00:44Z</time>
      </trkpt>
      <trkpt lat="44.65575" lon="2.92203">
        <ele>1315</ele>
        <time>2013-07-21T12:00:48Z</time>
      </trkpt>
      <trkpt lat="44.6557" lon="2.9219">
        <ele>1317</ele>
        <time>2013-07-21T12:00:57Z</time>
      </trkpt>
      <trkpt lat="44.65565" lon="2.92178">
        <ele>1317</ele>
        <time>2013-07-21T12:01:05Z</time>
      </trkpt>
      <trkpt lat="44.65562" lon="2.92169">
        <ele>1314</ele>
        <time>2013-07-21T12:01:11Z</time>
      </trkpt>
      <trkpt lat="44.65555" lon="2.92159">
        <ele>1310</ele>
        <time>2013-07-21T12:01:19Z</time>
      </trkpt>
      <trkpt lat="44.65551" lon="2.92147">
        <ele>1309</ele>
        <time>2013-07-21T12:01:25Z</time>
      </trkpt>
      <trkpt lat="44.65548" lon="2.9214">
        <ele>1308</ele>
        <time>2013-07-21T12:01:29Z</time>
      </trkpt>
      <trkpt lat="44.65537" lon="2.92125">
        <ele>1300</ele>
        <time>2013-07-21T12:01:44Z</time>
      </trkpt>
      <trkpt lat="44.65532" lon="2.92123">
        <ele>1295</ele>
        <time>2013-07-21T12:02:53Z</time>
      </trkpt>
      <trkpt lat="44.65535" lon="2.92121">
        <ele>1294</ele>
        <time>2013-07-21T12:06:13Z</time>
      </trkpt>
      <trkpt lat="44.65537" lon="2.92118">
        <ele>1293</ele>
        <time>2013-07-21T12:06:31Z</time>
      </trkpt>
      <trkpt lat="44.65539" lon="2.92114">
        <ele>1292</ele>
        <time>2013-07-21T12:06:40Z</time>
      </trkpt>
      <trkpt lat="44.65542" lon="2.92113">
        <ele>1291</ele>
        <time>2013-07-21T12:06:51Z</time>
      </trkpt>
      <trkpt lat="44.65546" lon="2.92104">
        <ele>1290</ele>
        <time>2013-07-21T12:07:00Z</time>
      </trkpt>
      <trkpt lat="44.6555" lon="2.92099">
        <ele>1289</ele>
        <time>2013-07-21T12:07:05Z</time>
      </trkpt>
      <trkpt lat="44.65553" lon="2.92093">
        <ele>1286</ele>
        <time>2013-07-21T12:07:11Z</time>
      </trkpt>
      <trkpt lat="44.65552" lon="2.92086">
        <ele>1284</ele>
        <time>2013-07-21T12:07:18Z</time>
      </trkpt>
      <trkpt lat="44.65545" lon="2.92073">
        <ele>1282</ele>
        <time>2013-07-21T12:07:34Z</time>
      </trkpt>
      <trkpt lat="44.65536" lon="2.92068">
        <ele>1280</ele>
        <time>2013-07-21T12:07:47Z</time>
      </trkpt>
      <trkpt lat="44.65527" lon="2.9206">
        <ele>1279</ele>
        <time>2013-07-21T12:07:53Z</time>
      </trkpt>
      <trkpt lat="44.65521" lon="2.92056">
        <ele>1278</ele>
        <time>2013-07-21T12:08:08Z</time>
      </trkpt>
      <trkpt lat="44.65512" lon="2.92044">
        <ele>1280</ele>
        <time>2013-07-21T12:08:23Z</time>
      </trkpt>
      <trkpt lat="44.65499" lon="2.92036">
        <ele>1286</ele>
        <time>2013-07-21T12:08:45Z</time>
      </trkpt>
      <trkpt lat="44.65489" lon="2.92032">
        <ele>1284</ele>
        <time>2013-07-21T12:08:54Z</time>
      </trkpt>
      <trkpt lat="44.6548" lon="2.9203">
        <ele>1283</ele>
        <time>2013-07-21T12:09:01Z</time>
      </trkpt>
      <trkpt lat="44.65462" lon="2.92038">
        <ele>1271</ele>
        <time>2013-07-21T12:09:33Z</time>
      </trkpt>
      <trkpt lat="44.65454" lon="2.92048">
        <ele>1271</ele>
        <time>2013-07-21T12:09:39Z</time>
      </trkpt>
      <trkpt lat="44.65446" lon="2.92057">
        <ele>1272</ele>
        <time>2013-07-21T12:09:46Z</time>
      </trkpt>
      <trkpt lat="44.6544" lon="2.92072">
        <ele>1270</ele>
        <time>2013-07-21T12:09:56Z</time>
      </trkpt>
      <trkpt lat="44.6543" lon="2.9208">
        <ele>1265</ele>
        <time>2013-07-21T12:10:03Z</time>
      </trkpt>
      <trkpt lat="44.65422" lon="2.9208">
        <ele>1265</ele>
        <time>2013-07-21T12:10:22Z</time>
      </trkpt>
      <trkpt lat="44.65413" lon="2.92085">
        <ele>1265</ele>
        <time>2013-07-21T12:10:39Z</time>
      </trkpt>
      <trkpt lat="44.65407" lon="2.92098">
        <ele>1263</ele>
        <time>2013-07-21T12:10:52Z</time>
      </trkpt>
      <trkpt lat="44.654" lon="2.92108">
        <ele>1263</ele>
        <time>2013-07-21T12:11:03Z</time>
      </trkpt>
      <trkpt lat="44.65394" lon="2.9212">
        <ele>1262</ele>
        <time>2013-07-21T12:11:09Z</time>
      </trkpt>
      <trkpt lat="44.6539" lon="2.92133">
        <ele>1263</ele>
        <time>2013-07-21T12:11:18Z</time>
      </trkpt>
      <trkpt lat="44.65386" lon="2.92146">
        <ele>1262</ele>
        <time>2013-07-21T12:11:25Z</time>
      </trkpt>
      <trkpt lat="44.65384" lon="2.92159">
        <ele>1258</ele>
        <time>2013-07-21T12:11:31Z</time>
      </trkpt>
      <trkpt lat="44.65378" lon="2.9217">
        <ele>1254</ele>
        <time>2013-07-21T12:11:38Z</time>
      </trkpt>
      <trkpt lat="44.65371" lon="2.92178">
        <ele>1253</ele>
        <time>2013-07-21T12:11:45Z</time>
      </trkpt>
      <trkpt lat="44.65363" lon="2.92185">
        <ele>1252</ele>
        <time>2013-07-21T12:11:52Z</time>
      </trkpt>
      <trkpt lat="44.65354" lon="2.9219">
        <ele>1250</ele>
        <time>2013-07-21T12:11:59Z</time>
      </trkpt>
      <trkpt lat="44.65345" lon="2.92195">
        <ele>1249</ele>
        <time>2013-07-21T12:12:04Z</time>
      </trkpt>
      <trkpt lat="44.65335" lon="2.92202">
        <ele>1251</ele>
        <time>2013-07-21T12:12:11Z</time>
      </trkpt>
      <trkpt lat="44.65326" lon="2.9221">
        <ele>1253</ele>
        <time>2013-07-21T12:12:14Z</time>
      </trkpt>
      <trkpt lat="44.65319" lon="2.92217">
        <ele>1255</ele>
        <time>2013-07-21T12:12:18Z</time>
      </trkpt>
      <trkpt lat="44.65315" lon="2.92221">
        <ele>1256</ele>
        <time>2013-07-21T12:12:21Z</time>
      </trkpt>
      <trkpt lat="44.65306" lon="2.9223">
        <ele>1258</ele>
        <time>2013-07-21T12:12:27Z</time>
      </trkpt>
      <trkpt lat="44.65297" lon="2.92234">
        <ele>1259</ele>
        <time>2013-07-21T12:12:32Z</time>
      </trkpt>
      <trkpt lat="44.65291" lon="2.92237">
        <ele>1260</ele>
        <time>2013-07-21T12:12:36Z</time>
      </trkpt>
      <trkpt lat="44.65285" lon="2.92241">
        <ele>1264</ele>
        <time>2013-07-21T12:12:40Z</time>
      </trkpt>
      <trkpt lat="44.65276" lon="2.92247">
        <ele>1267</ele>
        <time>2013-07-21T12:12:46Z</time>
      </trkpt>
      <trkpt lat="44.65271" lon="2.92252">
        <ele>1270</ele>
        <time>2013-07-21T12:12:50Z</time>
      </trkpt>
      <trkpt lat="44.65267" lon="2.92255">
        <ele>1271</ele>
        <time>2013-07-21T12:12:53Z</time>
      </trkpt>
      <trkpt lat="44.65262" lon="2.92259">
        <ele>1271</ele>
        <time>2013-07-21T12:12:56Z</time>
      </trkpt>
      <trkpt lat="44.65254" lon="2.92265">
        <ele>1273</ele>
        <time>2013-07-21T12:13:00Z</time>
      </trkpt>
      <trkpt lat="44.65248" lon="2.9227">
        <ele>1275</ele>
        <time>2013-07-21T12:13:06Z</time>
      </trkpt>
      <trkpt lat="44.6524" lon="2.92278">
        <ele>1275</ele>
        <time>2013-07-21T12:13:14Z</time>
      </trkpt>
      <trkpt lat="44.65221" lon="2.92309">
        <ele>1259</ele>
        <time>2013-07-21T12:13:34Z</time>
      </trkpt>
      <trkpt lat="44.65214" lon="2.92318">
        <ele>1258</ele>
        <time>2013-07-21T12:13:38Z</time>
      </trkpt>
      <trkpt lat="44.65206" lon="2.92325">
        <ele>1260</ele>
        <time>2013-07-21T12:13:44Z</time>
      </trkpt>
      <trkpt lat="44.65197" lon="2.92329">
        <ele>1262</ele>
        <time>2013-07-21T12:13:50Z</time>
      </trkpt>
      <trkpt lat="44.65188" lon="2.92333">
        <ele>1261</ele>
        <time>2013-07-21T12:13:56Z</time>
      </trkpt>
      <trkpt lat="44.65178" lon="2.92338">
        <ele>1259</ele>
        <time>2013-07-21T12:14:03Z</time>
      </trkpt>
      <trkpt lat="44.65169" lon="2.92344">
        <ele>1258</ele>
        <time>2013-07-21T12:14:09Z</time>
      </trkpt>
      <trkpt lat="44.65157" lon="2.92358">
        <ele>1253</ele>
        <time>2013-07-21T12:14:19Z</time>
      </trkpt>
      <trkpt lat="44.65154" lon="2.92372">
        <ele>1251</ele>
        <time>2013-07-21T12:14:27Z</time>
      </trkpt>
      <trkpt lat="44.65153" lon="2.92386">
        <ele>1250</ele>
        <time>2013-07-21T12:14:33Z</time>
      </trkpt>
      <trkpt lat="44.65151" lon="2.924">
        <ele>1250</ele>
        <time>2013-07-21T12:14:38Z</time>
      </trkpt>
      <trkpt lat="44.65155" lon="2.92419">
        <ele>1247</ele>
        <time>2013-07-21T12:14:48Z</time>
      </trkpt>
      <trkpt lat="44.65156" lon="2.92455">
        <ele>1235</ele>
        <time>2013-07-21T12:15:18Z</time>
      </trkpt>
      <trkpt lat="44.65151" lon="2.92465">
        <ele>1230</ele>
        <time>2013-07-21T12:15:22Z</time>
      </trkpt>
      <trkpt lat="44.65141" lon="2.92478">
        <ele>1231</ele>
        <time>2013-07-21T12:15:26Z</time>
      </trkpt>
      <trkpt lat="44.65132" lon="2.9248">
        <ele>1231</ele>
        <time>2013-07-21T12:15:30Z</time>
      </trkpt>
      <trkpt lat="44.6512" lon="2.92484">
        <ele>1232</ele>
        <time>2013-07-21T12:15:37Z</time>
      </trkpt>
      <trkpt lat="44.65113" lon="2.92491">
        <ele>1234</ele>
        <time>2013-07-21T12:15:41Z</time>
      </trkpt>
      <trkpt lat="44.65109" lon="2.92495">
        <ele>1234</ele>
        <time>2013-07-21T12:15:43Z</time>
      </trkpt>
      <trkpt lat="44.65104" lon="2.92506">
        <ele>1235</ele>
        <time>2013-07-21T12:15:49Z</time>
      </trkpt>
      <trkpt lat="44.65105" lon="2.92525">
        <ele>1238</ele>
        <time>2013-07-21T12:15:58Z</time>
      </trkpt>
      <trkpt lat="44.65107" lon="2.92539">
        <ele>1242</ele>
        <time>2013-07-21T12:16:06Z</time>
      </trkpt>
      <trkpt lat="44.6511" lon="2.92552">
        <ele>1244</ele>
        <time>2013-07-21T12:16:14Z</time>
      </trkpt>
      <trkpt lat="44.65111" lon="2.92565">
        <ele>1246</ele>
        <time>2013-07-21T12:16:19Z</time>
      </trkpt>
      <trkpt lat="44.65116" lon="2.92579">
        <ele>1247</ele>
        <time>2013-07-21T12:16:24Z</time>
      </trkpt>
      <trkpt lat="44.6512" lon="2.92593">
        <ele>1246</ele>
        <time>2013-07-21T12:16:27Z</time>
      </trkpt>
      <trkpt lat="44.65124" lon="2.92606">
        <ele>1246</ele>
        <time>2013-07-21T12:16:30Z</time>
      </trkpt>
      <trkpt lat="44.65126" lon="2.9262">
        <ele>1245</ele>
        <time>2013-07-21T12:16:33Z</time>
      </trkpt>
      <trkpt lat="44.65126" lon="2.92634">
        <ele>1245</ele>
        <time>2013-07-21T12:16:36Z</time>
      </trkpt>
      <trkpt lat="44.65127" lon="2.92649">
        <ele>1244</ele>
        <time>2013-07-21T12:16:39Z</time>
      </trkpt>
      <trkpt lat="44.65126" lon="2.92664">
        <ele>1243</ele>
        <time>2013-07-21T12:16:42Z</time>
      </trkpt>
      <trkpt lat="44.65123" lon="2.92676">
        <ele>1242</ele>
        <time>2013-07-21T12:16:44Z</time>
      </trkpt>
      <trkpt lat="44.65123" lon="2.92695">
        <ele>1241</ele>
        <time>2013-07-21T12:16:47Z</time>
      </trkpt>
      <trkpt lat="44.65125" lon="2.92709">
        <ele>1240</ele>
        <time>2013-07-21T12:16:50Z</time>
      </trkpt>
      <trkpt lat="44.65125" lon="2.92723">
        <ele>1239</ele>
        <time>2013-07-21T12:16:53Z</time>
      </trkpt>
      <trkpt lat="44.65125" lon="2.92739">
        <ele>1238</ele>
        <time>2013-07-21T12:16:56Z</time>
      </trkpt>
      <trkpt lat="44.65129" lon="2.92752">
        <ele>1238</ele>
        <time>2013-07-21T12:16:59Z</time>
      </trkpt>
      <trkpt lat="44.6513" lon="2.92768">
        <ele>1238</ele>
        <time>2013-07-21T12:17:02Z</time>
      </trkpt>
      <trkpt lat="44.65128" lon="2.92783">
        <ele>1238</ele>
        <time>2013-07-21T12:17:05Z</time>
      </trkpt>
      <trkpt lat="44.65126" lon="2.928">
        <ele>1238</ele>
        <time>2013-07-21T12:17:08Z</time>
      </trkpt>
      <trkpt lat="44.65124" lon="2.92815">
        <ele>1238</ele>
        <time>2013-07-21T12:17:11Z</time>
      </trkpt>
      <trkpt lat="44.65122" lon="2.92827">
        <ele>1236</ele>
        <time>2013-07-21T12:17:14Z</time>
      </trkpt>
      <trkpt lat="44.6512" lon="2.92844">
        <ele>1236</ele>
        <time>2013-07-21T12:17:18Z</time>
      </trkpt>
      <trkpt lat="44.65117" lon="2.92858">
        <ele>1235</ele>
        <time>2013-07-21T12:17:21Z</time>
      </trkpt>
      <trkpt lat="44.65113" lon="2.92872">
        <ele>1236</ele>
        <time>2013-07-21T12:17:24Z</time>
      </trkpt>
      <trkpt lat="44.65109" lon="2.92889">
        <ele>1236</ele>
        <time>2013-07-21T12:17:27Z</time>
      </trkpt>
      <trkpt lat="44.65105" lon="2.92904">
        <ele>1235</ele>
        <time>2013-07-21T12:17:30Z</time>
      </trkpt>
      <trkpt lat="44.65101" lon="2.92918">
        <ele>1235</ele>
        <time>2013-07-21T12:17:33Z</time>
      </trkpt>
      <trkpt lat="44.65098" lon="2.92931">
        <ele>1234</ele>
        <time>2013-07-21T12:17:36Z</time>
      </trkpt>
      <trkpt lat="44.65096" lon="2.92944">
        <ele>1234</ele>
        <time>2013-07-21T12:17:39Z</time>
      </trkpt>
      <trkpt lat="44.65093" lon="2.9296">
        <ele>1234</ele>
        <time>2013-07-21T12:17:42Z</time>
      </trkpt>
      <trkpt lat="44.6509" lon="2.92976">
        <ele>1233</ele>
        <time>2013-07-21T12:17:45Z</time>
      </trkpt>
      <trkpt lat="44.65088" lon="2.92991">
        <ele>1233</ele>
        <time>2013-07-21T12:17:48Z</time>
      </trkpt>
      <trkpt lat="44.65085" lon="2.93004">
        <ele>1233</ele>
        <time>2013-07-21T12:17:51Z</time>
      </trkpt>
      <trkpt lat="44.65082" lon="2.93019">
        <ele>1232</ele>
        <time>2013-07-21T12:17:54Z</time>
      </trkpt>
      <trkpt lat="44.65078" lon="2.93033">
        <ele>1231</ele>
        <time>2013-07-21T12:17:57Z</time>
      </trkpt>
      <trkpt lat="44.65078" lon="2.93049">
        <ele>1230</ele>
        <time>2013-07-21T12:18:00Z</time>
      </trkpt>
      <trkpt lat="44.65075" lon="2.93065">
        <ele>1229</ele>
        <time>2013-07-21T12:18:03Z</time>
      </trkpt>
      <trkpt lat="44.65073" lon="2.93082">
        <ele>1229</ele>
        <time>2013-07-21T12:18:06Z</time>
      </trkpt>
      <trkpt lat="44.65075" lon="2.93099">
        <ele>1229</ele>
        <time>2013-07-21T12:18:09Z</time>
      </trkpt>
      <trkpt lat="44.65076" lon="2.93117">
        <ele>1229</ele>
        <time>2013-07-21T12:18:12Z</time>
      </trkpt>
      <trkpt lat="44.65075" lon="2.93134">
        <ele>1229</ele>
        <time>2013-07-21T12:18:15Z</time>
      </trkpt>
      <trkpt lat="44.65075" lon="2.93153">
        <ele>1229</ele>
        <time>2013-07-21T12:18:18Z</time>
      </trkpt>
      <trkpt lat="44.65075" lon="2.93168">
        <ele>1228</ele>
        <time>2013-07-21T12:18:21Z</time>
      </trkpt>
      <trkpt lat="44.65074" lon="2.93187">
        <ele>1228</ele>
        <time>2013-07-21T12:18:24Z</time>
      </trkpt>
      <trkpt lat="44.65075" lon="2.93205">
        <ele>1229</ele>
        <time>2013-07-21T12:18:27Z</time>
      </trkpt>
      <trkpt lat="44.65079" lon="2.93219">
        <ele>1229</ele>
        <time>2013-07-21T12:18:30Z</time>
      </trkpt>
      <trkpt lat="44.6508" lon="2.93233">
        <ele>1229</ele>
        <time>2013-07-21T12:18:33Z</time>
      </trkpt>
      <trkpt lat="44.65088" lon="2.93249">
        <ele>1229</ele>
        <time>2013-07-21T12:18:37Z</time>
      </trkpt>
      <trkpt lat="44.65092" lon="2.93262">
        <ele>1229</ele>
        <time>2013-07-21T12:18:40Z</time>
      </trkpt>
      <trkpt lat="44.65097" lon="2.93278">
        <ele>1231</ele>
        <time>2013-07-21T12:18:43Z</time>
      </trkpt>
      <trkpt lat="44.65097" lon="2.93297">
        <ele>1233</ele>
        <time>2013-07-21T12:18:46Z</time>
      </trkpt>
      <trkpt lat="44.65101" lon="2.9331">
        <ele>1234</ele>
        <time>2013-07-21T12:18:48Z</time>
      </trkpt>
      <trkpt lat="44.65106" lon="2.93326">
        <ele>1235</ele>
        <time>2013-07-21T12:18:51Z</time>
      </trkpt>
      <trkpt lat="44.65109" lon="2.9334">
        <ele>1235</ele>
        <time>2013-07-21T12:18:54Z</time>
      </trkpt>
      <trkpt lat="44.65116" lon="2.93354">
        <ele>1237</ele>
        <time>2013-07-21T12:18:57Z</time>
      </trkpt>
      <trkpt lat="44.65123" lon="2.93369">
        <ele>1238</ele>
        <time>2013-07-21T12:19:00Z</time>
      </trkpt>
      <trkpt lat="44.65128" lon="2.9338">
        <ele>1238</ele>
        <time>2013-07-21T12:19:02Z</time>
      </trkpt>
      <trkpt lat="44.65135" lon="2.93394">
        <ele>1238</ele>
        <time>2013-07-21T12:19:05Z</time>
      </trkpt>
      <trkpt lat="44.6514" lon="2.93405">
        <ele>1239</ele>
        <time>2013-07-21T12:19:07Z</time>
      </trkpt>
      <trkpt lat="44.65145" lon="2.93417">
        <ele>1239</ele>
        <time>2013-07-21T12:19:09Z</time>
      </trkpt>
      <trkpt lat="44.65151" lon="2.93429">
        <ele>1240</ele>
        <time>2013-07-21T12:19:11Z</time>
      </trkpt>
      <trkpt lat="44.65155" lon="2.93442">
        <ele>1240</ele>
        <time>2013-07-21T12:19:13Z</time>
      </trkpt>
      <trkpt lat="44.65158" lon="2.93455">
        <ele>1241</ele>
        <time>2013-07-21T12:19:15Z</time>
      </trkpt>
      <trkpt lat="44.65161" lon="2.9347">
        <ele>1242</ele>
        <time>2013-07-21T12:19:18Z</time>
      </trkpt>
      <trkpt lat="44.65166" lon="2.93481">
        <ele>1243</ele>
        <time>2013-07-21T12:19:22Z</time>
      </trkpt>
      <trkpt lat="44.65169" lon="2.93494">
        <ele>1242</ele>
        <time>2013-07-21T12:19:28Z</time>
      </trkpt>
      <trkpt lat="44.65171" lon="2.93507">
        <ele>1241</ele>
        <time>2013-07-21T12:19:35Z</time>
      </trkpt>
      <trkpt lat="44.65171" lon="2.93521">
        <ele>1240</ele>
        <time>2013-07-21T12:19:42Z</time>
      </trkpt>
      <trkpt lat="44.65175" lon="2.93533">
        <ele>1239</ele>
        <time>2013-07-21T12:19:51Z</time>
      </trkpt>
      <trkpt lat="44.65168" lon="2.93542">
        <ele>1238</ele>
        <time>2013-07-21T12:19:59Z</time>
      </trkpt>
      <trkpt lat="44.65157" lon="2.93546">
        <ele>1236</ele>
        <time>2013-07-21T12:20:05Z</time>
      </trkpt>
      <trkpt lat="44.65146" lon="2.93549">
        <ele>1237</ele>
        <time>2013-07-21T12:20:10Z</time>
      </trkpt>
      <trkpt lat="44.65137" lon="2.93553">
        <ele>1240</ele>
        <time>2013-07-21T12:20:14Z</time>
      </trkpt>
      <trkpt lat="44.65128" lon="2.93554">
        <ele>1239</ele>
        <time>2013-07-21T12:20:19Z</time>
      </trkpt>
      <trkpt lat="44.65119" lon="2.93555">
        <ele>1240</ele>
        <time>2013-07-21T12:20:22Z</time>
      </trkpt>
      <trkpt lat="44.6511" lon="2.93551">
        <ele>1240</ele>
        <time>2013-07-21T12:20:26Z</time>
      </trkpt>
      <trkpt lat="44.65099" lon="2.93552">
        <ele>1241</ele>
        <time>2013-07-21T12:20:29Z</time>
      </trkpt>
      <trkpt lat="44.6509" lon="2.93553">
        <ele>1242</ele>
        <time>2013-07-21T12:20:31Z</time>
      </trkpt>
      <trkpt lat="44.65081" lon="2.93554">
        <ele>1243</ele>
        <time>2013-07-21T12:20:33Z</time>
      </trkpt>
      <trkpt lat="44.65069" lon="2.93552">
        <ele>1243</ele>
        <time>2013-07-21T12:20:36Z</time>
      </trkpt>
      <trkpt lat="44.65056" lon="2.93553">
        <ele>1242</ele>
        <time>2013-07-21T12:20:39Z</time>
      </trkpt>
      <trkpt lat="44.65045" lon="2.93555">
        <ele>1242</ele>
        <time>2013-07-21T12:20:41Z</time>
      </trkpt>
      <trkpt lat="44.65028" lon="2.93562">
        <ele>1242</ele>
        <time>2013-07-21T12:20:45Z</time>
      </trkpt>
      <trkpt lat="44.65019" lon="2.93565">
        <ele>1242</ele>
        <time>2013-07-21T12:20:47Z</time>
      </trkpt>
      <trkpt lat="44.65009" lon="2.93568">
        <ele>1242</ele>
        <time>2013-07-21T12:20:50Z</time>
      </trkpt>
      <trkpt lat="44.64999" lon="2.93572">
        <ele>1242</ele>
        <time>2013-07-21T12:20:53Z</time>
      </trkpt>
      <trkpt lat="44.64988" lon="2.93574">
        <ele>1242</ele>
        <time>2013-07-21T12:20:57Z</time>
      </trkpt>
      <trkpt lat="44.64975" lon="2.93575">
        <ele>1242</ele>
        <time>2013-07-21T12:21:01Z</time>
      </trkpt>
      <trkpt lat="44.64964" lon="2.93577">
        <ele>1243</ele>
        <time>2013-07-21T12:21:04Z</time>
      </trkpt>
      <trkpt lat="44.64954" lon="2.93582">
        <ele>1242</ele>
        <time>2013-07-21T12:21:06Z</time>
      </trkpt>
      <trkpt lat="44.64944" lon="2.93588">
        <ele>1239</ele>
        <time>2013-07-21T12:21:11Z</time>
      </trkpt>
      <trkpt lat="44.64938" lon="2.93599">
        <ele>1238</ele>
        <time>2013-07-21T12:21:14Z</time>
      </trkpt>
      <trkpt lat="44.64934" lon="2.93612">
        <ele>1238</ele>
        <time>2013-07-21T12:21:17Z</time>
      </trkpt>
      <trkpt lat="44.64932" lon="2.93628">
        <ele>1238</ele>
        <time>2013-07-21T12:21:20Z</time>
      </trkpt>
      <trkpt lat="44.6493" lon="2.93646">
        <ele>1239</ele>
        <time>2013-07-21T12:21:23Z</time>
      </trkpt>
      <trkpt lat="44.64921" lon="2.93661">
        <ele>1240</ele>
        <time>2013-07-21T12:21:26Z</time>
      </trkpt>
      <trkpt lat="44.64913" lon="2.93672">
        <ele>1241</ele>
        <time>2013-07-21T12:21:29Z</time>
      </trkpt>
      <trkpt lat="44.64908" lon="2.93684">
        <ele>1243</ele>
        <time>2013-07-21T12:21:33Z</time>
      </trkpt>
      <trkpt lat="44.64903" lon="2.9369">
        <ele>1245</ele>
        <time>2013-07-21T12:21:37Z</time>
      </trkpt>
      <trkpt lat="44.64886" lon="2.93704">
        <ele>1256</ele>
        <time>2013-07-21T12:21:53Z</time>
      </trkpt>
      <trkpt lat="44.64876" lon="2.93702">
        <ele>1258</ele>
        <time>2013-07-21T12:22:01Z</time>
      </trkpt>
      <trkpt lat="44.64864" lon="2.93701">
        <ele>1260</ele>
        <time>2013-07-21T12:22:07Z</time>
      </trkpt>
      <trkpt lat="44.64854" lon="2.93698">
        <ele>1261</ele>
        <time>2013-07-21T12:22:12Z</time>
      </trkpt>
      <trkpt lat="44.64845" lon="2.93696">
        <ele>1262</ele>
        <time>2013-07-21T12:22:18Z</time>
      </trkpt>
      <trkpt lat="44.64839" lon="2.93686">
        <ele>1261</ele>
        <time>2013-07-21T12:22:22Z</time>
      </trkpt>
      <trkpt lat="44.64829" lon="2.93676">
        <ele>1259</ele>
        <time>2013-07-21T12:22:28Z</time>
      </trkpt>
      <trkpt lat="44.64821" lon="2.93668">
        <ele>1257</ele>
        <time>2013-07-21T12:22:33Z</time>
      </trkpt>
      <trkpt lat="44.64818" lon="2.93656">
        <ele>1256</ele>
        <time>2013-07-21T12:22:39Z</time>
      </trkpt>
      <trkpt lat="44.64813" lon="2.93642">
        <ele>1254</ele>
        <time>2013-07-21T12:22:48Z</time>
      </trkpt>
      <trkpt lat="44.6481" lon="2.93623">
        <ele>1257</ele>
        <time>2013-07-21T12:22:58Z</time>
      </trkpt>
      <trkpt lat="44.64804" lon="2.9361">
        <ele>1255</ele>
        <time>2013-07-21T12:23:05Z</time>
      </trkpt>
      <trkpt lat="44.64799" lon="2.93599">
        <ele>1253</ele>
        <time>2013-07-21T12:23:10Z</time>
      </trkpt>
      <trkpt lat="44.64793" lon="2.93588">
        <ele>1249</ele>
        <time>2013-07-21T12:23:15Z</time>
      </trkpt>
      <trkpt lat="44.64785" lon="2.9358">
        <ele>1249</ele>
        <time>2013-07-21T12:23:20Z</time>
      </trkpt>
      <trkpt lat="44.64778" lon="2.93576">
        <ele>1248</ele>
        <time>2013-07-21T12:23:23Z</time>
      </trkpt>
      <trkpt lat="44.64769" lon="2.93575">
        <ele>1247</ele>
        <time>2013-07-21T12:23:28Z</time>
      </trkpt>
      <trkpt lat="44.64763" lon="2.93575">
        <ele>1247</ele>
        <time>2013-07-21T12:23:32Z</time>
      </trkpt>
      <trkpt lat="44.64758" lon="2.93576">
        <ele>1248</ele>
        <time>2013-07-21T12:23:35Z</time>
      </trkpt>
      <trkpt lat="44.64753" lon="2.93578">
        <ele>1249</ele>
        <time>2013-07-21T12:23:38Z</time>
      </trkpt>
      <trkpt lat="44.64748" lon="2.93581">
        <ele>1250</ele>
        <time>2013-07-21T12:23:42Z</time>
      </trkpt>
      <trkpt lat="44.64743" lon="2.93581">
        <ele>1253</ele>
        <time>2013-07-21T12:23:51Z</time>
      </trkpt>
      <trkpt lat="44.64734" lon="2.93576">
        <ele>1253</ele>
        <time>2013-07-21T12:24:02Z</time>
      </trkpt>
      <trkpt lat="44.64726" lon="2.93567">
        <ele>1250</ele>
        <time>2013-07-21T12:24:10Z</time>
      </trkpt>
      <trkpt lat="44.64719" lon="2.93557">
        <ele>1248</ele>
        <time>2013-07-21T12:24:16Z</time>
      </trkpt>
      <trkpt lat="44.64714" lon="2.93541">
        <ele>1244</ele>
        <time>2013-07-21T12:24:25Z</time>
      </trkpt>
      <trkpt lat="44.64709" lon="2.93528">
        <ele>1240</ele>
        <time>2013-07-21T12:24:31Z</time>
      </trkpt>
      <trkpt lat="44.64703" lon="2.93518">
        <ele>1237</ele>
        <time>2013-07-21T12:24:39Z</time>
      </trkpt>
      <trkpt lat="44.64696" lon="2.93509">
        <ele>1235</ele>
        <time>2013-07-21T12:24:45Z</time>
      </trkpt>
      <trkpt lat="44.64686" lon="2.93502">
        <ele>1232</ele>
        <time>2013-07-21T12:24:54Z</time>
      </trkpt>
      <trkpt lat="44.64677" lon="2.9349">
        <ele>1231</ele>
        <time>2013-07-21T12:24:59Z</time>
      </trkpt>
      <trkpt lat="44.64669" lon="2.9348">
        <ele>1230</ele>
        <time>2013-07-21T12:25:07Z</time>
      </trkpt>
      <trkpt lat="44.64662" lon="2.93467">
        <ele>1229</ele>
        <time>2013-07-21T12:25:12Z</time>
      </trkpt>
      <trkpt lat="44.64655" lon="2.93457">
        <ele>1228</ele>
        <time>2013-07-21T12:25:17Z</time>
      </trkpt>
      <trkpt lat="44.64648" lon="2.93445">
        <ele>1222</ele>
        <time>2013-07-21T12:25:29Z</time>
      </trkpt>
      <trkpt lat="44.64646" lon="2.93432">
        <ele>1220</ele>
        <time>2013-07-21T12:25:34Z</time>
      </trkpt>
      <trkpt lat="44.64645" lon="2.93419">
        <ele>1216</ele>
        <time>2013-07-21T12:25:40Z</time>
      </trkpt>
      <trkpt lat="44.64639" lon="2.93404">
        <ele>1212</ele>
        <time>2013-07-21T12:25:47Z</time>
      </trkpt>
      <trkpt lat="44.64636" lon="2.93392">
        <ele>1211</ele>
        <time>2013-07-21T12:25:55Z</time>
      </trkpt>
      <trkpt lat="44.6463" lon="2.93379">
        <ele>1210</ele>
        <time>2013-07-21T12:26:01Z</time>
      </trkpt>
      <trkpt lat="44.64627" lon="2.93365">
        <ele>1212</ele>
        <time>2013-07-21T12:26:10Z</time>
      </trkpt>
      <trkpt lat="44.64621" lon="2.93353">
        <ele>1214</ele>
        <time>2013-07-21T12:26:13Z</time>
      </trkpt>
      <trkpt lat="44.64617" lon="2.93339">
        <ele>1213</ele>
        <time>2013-07-21T12:26:18Z</time>
      </trkpt>
      <trkpt lat="44.64613" lon="2.93328">
        <ele>1209</ele>
        <time>2013-07-21T12:26:24Z</time>
      </trkpt>
      <trkpt lat="44.64611" lon="2.93306">
        <ele>1201</ele>
        <time>2013-07-21T12:26:41Z</time>
      </trkpt>
      <trkpt lat="44.64608" lon="2.93293">
        <ele>1199</ele>
        <time>2013-07-21T12:26:47Z</time>
      </trkpt>
      <trkpt lat="44.64605" lon="2.93279">
        <ele>1197</ele>
        <time>2013-07-21T12:26:52Z</time>
      </trkpt>
      <trkpt lat="44.646" lon="2.93261">
        <ele>1195</ele>
        <time>2013-07-21T12:26:58Z</time>
      </trkpt>
      <trkpt lat="44.64599" lon="2.93247">
        <ele>1195</ele>
        <time>2013-07-21T12:27:01Z</time>
      </trkpt>
      <trkpt lat="44.64596" lon="2.93234">
        <ele>1195</ele>
        <time>2013-07-21T12:27:07Z</time>
      </trkpt>
      <trkpt lat="44.64589" lon="2.93221">
        <ele>1196</ele>
        <time>2013-07-21T12:27:15Z</time>
      </trkpt>
      <trkpt lat="44.64589" lon="2.93205">
        <ele>1197</ele>
        <time>2013-07-21T12:27:21Z</time>
      </trkpt>
      <trkpt lat="44.64581" lon="2.93197">
        <ele>1198</ele>
        <time>2013-07-21T12:27:25Z</time>
      </trkpt>
      <trkpt lat="44.64572" lon="2.93195">
        <ele>1199</ele>
        <time>2013-07-21T12:27:34Z</time>
      </trkpt>
      <trkpt lat="44.64568" lon="2.93183">
        <ele>1199</ele>
        <time>2013-07-21T12:27:41Z</time>
      </trkpt>
      <trkpt lat="44.64563" lon="2.93168">
        <ele>1198</ele>
        <time>2013-07-21T12:27:47Z</time>
      </trkpt>
      <trkpt lat="44.64558" lon="2.93157">
        <ele>1196</ele>
        <time>2013-07-21T12:27:52Z</time>
      </trkpt>
      <trkpt lat="44.64553" lon="2.93145">
        <ele>1194</ele>
        <time>2013-07-21T12:28:00Z</time>
      </trkpt>
      <trkpt lat="44.64546" lon="2.93136">
        <ele>1193</ele>
        <time>2013-07-21T12:28:06Z</time>
      </trkpt>
      <trkpt lat="44.64535" lon="2.93126">
        <ele>1189</ele>
        <time>2013-07-21T12:28:13Z</time>
      </trkpt>
      <trkpt lat="44.64531" lon="2.93112">
        <ele>1189</ele>
        <time>2013-07-21T12:28:21Z</time>
      </trkpt>
      <trkpt lat="44.64526" lon="2.93101">
        <ele>1188</ele>
        <time>2013-07-21T12:28:26Z</time>
      </trkpt>
      <trkpt lat="44.64521" lon="2.93086">
        <ele>1185</ele>
        <time>2013-07-21T12:28:35Z</time>
      </trkpt>
      <trkpt lat="44.64517" lon="2.93075">
        <ele>1183</ele>
        <time>2013-07-21T12:28:41Z</time>
      </trkpt>
      <trkpt lat="44.64512" lon="2.93067">
        <ele>1182</ele>
        <time>2013-07-21T12:28:58Z</time>
      </trkpt>
      <trkpt lat="44.64503" lon="2.93053">
        <ele>1183</ele>
        <time>2013-07-21T12:29:10Z</time>
      </trkpt>
      <trkpt lat="44.64495" lon="2.93045">
        <ele>1185</ele>
        <time>2013-07-21T12:29:14Z</time>
      </trkpt>
      <trkpt lat="44.64483" lon="2.93038">
        <ele>1187</ele>
        <time>2013-07-21T12:29:31Z</time>
      </trkpt>
      <trkpt lat="44.64473" lon="2.93035">
        <ele>1188</ele>
        <time>2013-07-21T12:29:35Z</time>
      </trkpt>
      <trkpt lat="44.64465" lon="2.9305">
        <ele>1183</ele>
        <time>2013-07-21T12:29:55Z</time>
      </trkpt>
      <trkpt lat="44.64469" lon="2.93061">
        <ele>1178</ele>
        <time>2013-07-21T12:30:05Z</time>
      </trkpt>
      <trkpt lat="44.6447" lon="2.93077">
        <ele>1172</ele>
        <time>2013-07-21T12:30:13Z</time>
      </trkpt>
      <trkpt lat="44.64471" lon="2.93101">
        <ele>1170</ele>
        <time>2013-07-21T12:30:23Z</time>
      </trkpt>
      <trkpt lat="44.64471" lon="2.93117">
        <ele>1168</ele>
        <time>2013-07-21T12:30:29Z</time>
      </trkpt>
      <trkpt lat="44.64472" lon="2.9313">
        <ele>1166</ele>
        <time>2013-07-21T12:30:34Z</time>
      </trkpt>
      <trkpt lat="44.6447" lon="2.93143">
        <ele>1166</ele>
        <time>2013-07-21T12:30:39Z</time>
      </trkpt>
      <trkpt lat="44.64471" lon="2.93158">
        <ele>1166</ele>
        <time>2013-07-21T12:30:45Z</time>
      </trkpt>
      <trkpt lat="44.6447" lon="2.93172">
        <ele>1165</ele>
        <time>2013-07-21T12:30:52Z</time>
      </trkpt>
      <trkpt lat="44.64475" lon="2.93188">
        <ele>1165</ele>
        <time>2013-07-21T12:31:00Z</time>
      </trkpt>
      <trkpt lat="44.64475" lon="2.932">
        <ele>1165</ele>
        <time>2013-07-21T12:31:06Z</time>
      </trkpt>
      <trkpt lat="44.64473" lon="2.93213">
        <ele>1165</ele>
        <time>2013-07-21T12:31:13Z</time>
      </trkpt>
      <trkpt lat="44.64476" lon="2.93228">
        <ele>1164</ele>
        <time>2013-07-21T12:31:19Z</time>
      </trkpt>
      <trkpt lat="44.64475" lon="2.93254">
        <ele>1161</ele>
        <time>2013-07-21T12:31:30Z</time>
      </trkpt>
      <trkpt lat="44.64477" lon="2.93267">
        <ele>1160</ele>
        <time>2013-07-21T12:31:36Z</time>
      </trkpt>
      <trkpt lat="44.64476" lon="2.9328">
        <ele>1159</ele>
        <time>2013-07-21T12:31:42Z</time>
      </trkpt>
      <trkpt lat="44.64473" lon="2.93292">
        <ele>1158</ele>
        <time>2013-07-21T12:31:47Z</time>
      </trkpt>
      <trkpt lat="44.64468" lon="2.93307">
        <ele>1158</ele>
        <time>2013-07-21T12:31:55Z</time>
      </trkpt>
      <trkpt lat="44.64464" lon="2.9332">
        <ele>1158</ele>
        <time>2013-07-21T12:32:00Z</time>
      </trkpt>
      <trkpt lat="44.64464" lon="2.93334">
        <ele>1156</ele>
        <time>2013-07-21T12:32:10Z</time>
      </trkpt>
      <trkpt lat="44.64463" lon="2.93348">
        <ele>1160</ele>
        <time>2013-07-21T12:32:23Z</time>
      </trkpt>
      <trkpt lat="44.64466" lon="2.93362">
        <ele>1162</ele>
        <time>2013-07-21T12:32:29Z</time>
      </trkpt>
      <trkpt lat="44.64464" lon="2.93376">
        <ele>1160</ele>
        <time>2013-07-21T12:32:33Z</time>
      </trkpt>
      <trkpt lat="44.64464" lon="2.9339">
        <ele>1158</ele>
        <time>2013-07-21T12:32:39Z</time>
      </trkpt>
      <trkpt lat="44.64454" lon="2.93391">
        <ele>1156</ele>
        <time>2013-07-21T12:32:45Z</time>
      </trkpt>
      <trkpt lat="44.64445" lon="2.93393">
        <ele>1154</ele>
        <time>2013-07-21T12:32:52Z</time>
      </trkpt>
      <trkpt lat="44.64436" lon="2.93394">
        <ele>1150</ele>
        <time>2013-07-21T12:33:00Z</time>
      </trkpt>
      <trkpt lat="44.64427" lon="2.93398">
        <ele>1149</ele>
        <time>2013-07-21T12:33:08Z</time>
      </trkpt>
      <trkpt lat="44.64417" lon="2.934">
        <ele>1145</ele>
        <time>2013-07-21T12:33:19Z</time>
      </trkpt>
      <trkpt lat="44.64405" lon="2.93393">
        <ele>1142</ele>
        <time>2013-07-21T12:33:27Z</time>
      </trkpt>
      <trkpt lat="44.64396" lon="2.93389">
        <ele>1140</ele>
        <time>2013-07-21T12:33:30Z</time>
      </trkpt>
      <trkpt lat="44.64385" lon="2.93382">
        <ele>1136</ele>
        <time>2013-07-21T12:33:39Z</time>
      </trkpt>
      <trkpt lat="44.64375" lon="2.93388">
        <ele>1136</ele>
        <time>2013-07-21T12:33:54Z</time>
      </trkpt>
      <trkpt lat="44.64368" lon="2.93397">
        <ele>1137</ele>
        <time>2013-07-21T12:34:04Z</time>
      </trkpt>
      <trkpt lat="44.64362" lon="2.93408">
        <ele>1137</ele>
        <time>2013-07-21T12:34:09Z</time>
      </trkpt>
      <trkpt lat="44.64355" lon="2.93418">
        <ele>1137</ele>
        <time>2013-07-21T12:34:18Z</time>
      </trkpt>
      <trkpt lat="44.64345" lon="2.9342">
        <ele>1137</ele>
        <time>2013-07-21T12:34:35Z</time>
      </trkpt>
      <trkpt lat="44.64329" lon="2.93424">
        <ele>1138</ele>
        <time>2013-07-21T12:34:52Z</time>
      </trkpt>
      <trkpt lat="44.64321" lon="2.9343">
        <ele>1133</ele>
        <time>2013-07-21T12:35:15Z</time>
      </trkpt>
      <trkpt lat="44.64325" lon="2.93435">
        <ele>1139</ele>
        <time>2013-07-21T12:35:42Z</time>
      </trkpt>
      <trkpt lat="44.64327" lon="2.93442">
        <ele>1137</ele>
        <time>2013-07-21T12:36:05Z</time>
      </trkpt>
      <trkpt lat="44.64328" lon="2.93436">
        <ele>1142</ele>
        <time>2013-07-21T12:37:04Z</time>
      </trkpt>
      <trkpt lat="44.64323" lon="2.93425">
        <ele>1142</ele>
        <time>2013-07-21T12:37:17Z</time>
      </trkpt>
      <trkpt lat="44.64316" lon="2.93414">
        <ele>1143</ele>
        <time>2013-07-21T12:37:45Z</time>
      </trkpt>
      <trkpt lat="44.6431" lon="2.93404">
        <ele>1143</ele>
        <time>2013-07-21T12:37:54Z</time>
      </trkpt>
      <trkpt lat="44.64301" lon="2.93399">
        <ele>1143</ele>
        <time>2013-07-21T12:38:03Z</time>
      </trkpt>
      <trkpt lat="44.64288" lon="2.93398">
        <ele>1143</ele>
        <time>2013-07-21T12:38:09Z</time>
      </trkpt>
      <trkpt lat="44.6428" lon="2.93388">
        <ele>1141</ele>
        <time>2013-07-21T12:38:18Z</time>
      </trkpt>
      <trkpt lat="44.64274" lon="2.93376">
        <ele>1141</ele>
        <time>2013-07-21T12:38:29Z</time>
      </trkpt>
      <trkpt lat="44.64261" lon="2.93373">
        <ele>1143</ele>
        <time>2013-07-21T12:38:44Z</time>
      </trkpt>
      <trkpt lat="44.64231" lon="2.93371">
        <ele>1166</ele>
        <time>2013-07-21T12:39:25Z</time>
      </trkpt>
      <trkpt lat="44.64219" lon="2.93372">
        <ele>1170</ele>
        <time>2013-07-21T12:39:32Z</time>
      </trkpt>
      <trkpt lat="44.6421" lon="2.93374">
        <ele>1174</ele>
        <time>2013-07-21T12:39:39Z</time>
      </trkpt>
      <trkpt lat="44.64201" lon="2.93371">
        <ele>1176</ele>
        <time>2013-07-21T12:39:46Z</time>
      </trkpt>
      <trkpt lat="44.64192" lon="2.93366">
        <ele>1178</ele>
        <time>2013-07-21T12:39:54Z</time>
      </trkpt>
      <trkpt lat="44.64183" lon="2.93362">
        <ele>1178</ele>
        <time>2013-07-21T12:40:01Z</time>
      </trkpt>
      <trkpt lat="44.64175" lon="2.93356">
        <ele>1182</ele>
        <time>2013-07-21T12:40:10Z</time>
      </trkpt>
      <trkpt lat="44.64168" lon="2.93347">
        <ele>1188</ele>
        <time>2013-07-21T12:40:29Z</time>
      </trkpt>
      <trkpt lat="44.64156" lon="2.93339">
        <ele>1191</ele>
        <time>2013-07-21T12:40:42Z</time>
      </trkpt>
      <trkpt lat="44.64147" lon="2.93338">
        <ele>1194</ele>
        <time>2013-07-21T12:40:48Z</time>
      </trkpt>
      <trkpt lat="44.64137" lon="2.93334">
        <ele>1196</ele>
        <time>2013-07-21T12:40:58Z</time>
      </trkpt>
      <trkpt lat="44.64128" lon="2.93331">
        <ele>1197</ele>
        <time>2013-07-21T12:41:00Z</time>
      </trkpt>
      <trkpt lat="44.64119" lon="2.93329">
        <ele>1199</ele>
        <time>2013-07-21T12:41:05Z</time>
      </trkpt>
      <trkpt lat="44.64109" lon="2.93325">
        <ele>1204</ele>
        <time>2013-07-21T12:41:13Z</time>
      </trkpt>
      <trkpt lat="44.64099" lon="2.93321">
        <ele>1206</ele>
        <time>2013-07-21T12:41:30Z</time>
      </trkpt>
      <trkpt lat="44.64089" lon="2.93317">
        <ele>1206</ele>
        <time>2013-07-21T12:41:44Z</time>
      </trkpt>
      <trkpt lat="44.64078" lon="2.93314">
        <ele>1209</ele>
        <time>2013-07-21T12:41:53Z</time>
      </trkpt>
      <trkpt lat="44.64068" lon="2.93312">
        <ele>1211</ele>
        <time>2013-07-21T12:41:57Z</time>
      </trkpt>
      <trkpt lat="44.64056" lon="2.93311">
        <ele>1211</ele>
        <time>2013-07-21T12:42:12Z</time>
      </trkpt>
      <trkpt lat="44.64046" lon="2.93307">
        <ele>1213</ele>
        <time>2013-07-21T12:42:20Z</time>
      </trkpt>
      <trkpt lat="44.64036" lon="2.93306">
        <ele>1212</ele>
        <time>2013-07-21T12:42:24Z</time>
      </trkpt>
      <trkpt lat="44.64025" lon="2.93307">
        <ele>1212</ele>
        <time>2013-07-21T12:42:30Z</time>
      </trkpt>
      <trkpt lat="44.64015" lon="2.93307">
        <ele>1212</ele>
        <time>2013-07-21T12:42:35Z</time>
      </trkpt>
      <trkpt lat="44.64006" lon="2.93309">
        <ele>1211</ele>
        <time>2013-07-21T12:42:44Z</time>
      </trkpt>
      <trkpt lat="44.63996" lon="2.93309">
        <ele>1209</ele>
        <time>2013-07-21T12:42:51Z</time>
      </trkpt>
      <trkpt lat="44.63988" lon="2.93305">
        <ele>1209</ele>
        <time>2013-07-21T12:43:01Z</time>
      </trkpt>
      <trkpt lat="44.63979" lon="2.933">
        <ele>1211</ele>
        <time>2013-07-21T12:43:07Z</time>
      </trkpt>
      <trkpt lat="44.6397" lon="2.93298">
        <ele>1211</ele>
        <time>2013-07-21T12:43:10Z</time>
      </trkpt>
      <trkpt lat="44.63959" lon="2.93295">
        <ele>1216</ele>
        <time>2013-07-21T12:43:19Z</time>
      </trkpt>
      <trkpt lat="44.63949" lon="2.93293">
        <ele>1216</ele>
        <time>2013-07-21T12:43:24Z</time>
      </trkpt>
      <trkpt lat="44.63938" lon="2.93291">
        <ele>1214</ele>
        <time>2013-07-21T12:43:33Z</time>
      </trkpt>
      <trkpt lat="44.63929" lon="2.93288">
        <ele>1212</ele>
        <time>2013-07-21T12:43:37Z</time>
      </trkpt>
      <trkpt lat="44.6392" lon="2.93285">
        <ele>1210</ele>
        <time>2013-07-21T12:43:44Z</time>
      </trkpt>
      <trkpt lat="44.6391" lon="2.93276">
        <ele>1208</ele>
        <time>2013-07-21T12:43:54Z</time>
      </trkpt>
      <trkpt lat="44.63901" lon="2.93277">
        <ele>1209</ele>
        <time>2013-07-21T12:44:02Z</time>
      </trkpt>
      <trkpt lat="44.63892" lon="2.93272">
        <ele>1209</ele>
        <time>2013-07-21T12:44:17Z</time>
      </trkpt>
      <trkpt lat="44.63883" lon="2.93265">
        <ele>1210</ele>
        <time>2013-07-21T12:44:28Z</time>
      </trkpt>
      <trkpt lat="44.6387" lon="2.93257">
        <ele>1212</ele>
        <time>2013-07-21T12:44:35Z</time>
      </trkpt>
      <trkpt lat="44.63862" lon="2.93249">
        <ele>1213</ele>
        <time>2013-07-21T12:44:37Z</time>
      </trkpt>
      <trkpt lat="44.63853" lon="2.93245">
        <ele>1215</ele>
        <time>2013-07-21T12:44:39Z</time>
      </trkpt>
      <trkpt lat="44.63842" lon="2.9324">
        <ele>1216</ele>
        <time>2013-07-21T12:44:42Z</time>
      </trkpt>
      <trkpt lat="44.63829" lon="2.93233">
        <ele>1216</ele>
        <time>2013-07-21T12:44:45Z</time>
      </trkpt>
      <trkpt lat="44.63818" lon="2.93223">
        <ele>1216</ele>
        <time>2013-07-21T12:44:48Z</time>
      </trkpt>
      <trkpt lat="44.63809" lon="2.93216">
        <ele>1217</ele>
        <time>2013-07-21T12:44:50Z</time>
      </trkpt>
      <trkpt lat="44.638" lon="2.93209">
        <ele>1217</ele>
        <time>2013-07-21T12:44:52Z</time>
      </trkpt>
      <trkpt lat="44.6379" lon="2.93202">
        <ele>1218</ele>
        <time>2013-07-21T12:44:54Z</time>
      </trkpt>
      <trkpt lat="44.63782" lon="2.93196">
        <ele>1218</ele>
        <time>2013-07-21T12:44:56Z</time>
      </trkpt>
      <trkpt lat="44.63773" lon="2.93188">
        <ele>1217</ele>
        <time>2013-07-21T12:44:59Z</time>
      </trkpt>
      <trkpt lat="44.63765" lon="2.9318">
        <ele>1219</ele>
        <time>2013-07-21T12:45:15Z</time>
      </trkpt>
      <trkpt lat="44.63756" lon="2.93172">
        <ele>1219</ele>
        <time>2013-07-21T12:45:22Z</time>
      </trkpt>
      <trkpt lat="44.63748" lon="2.93162">
        <ele>1220</ele>
        <time>2013-07-21T12:45:25Z</time>
      </trkpt>
      <trkpt lat="44.63734" lon="2.93158">
        <ele>1220</ele>
        <time>2013-07-21T12:45:29Z</time>
      </trkpt>
      <trkpt lat="44.63721" lon="2.93161">
        <ele>1219</ele>
        <time>2013-07-21T12:45:31Z</time>
      </trkpt>
      <trkpt lat="44.6371" lon="2.93163">
        <ele>1220</ele>
        <time>2013-07-21T12:45:33Z</time>
      </trkpt>
      <trkpt lat="44.637" lon="2.93165">
        <ele>1220</ele>
        <time>2013-07-21T12:45:35Z</time>
      </trkpt>
      <trkpt lat="44.63688" lon="2.93171">
        <ele>1220</ele>
        <time>2013-07-21T12:45:38Z</time>
      </trkpt>
      <trkpt lat="44.63679" lon="2.93174">
        <ele>1221</ele>
        <time>2013-07-21T12:45:41Z</time>
      </trkpt>
      <trkpt lat="44.6367" lon="2.93176">
        <ele>1222</ele>
        <time>2013-07-21T12:45:49Z</time>
      </trkpt>
      <trkpt lat="44.63666" lon="2.93178">
        <ele>1221</ele>
        <time>2013-07-21T12:45:51Z</time>
      </trkpt>
      <trkpt lat="44.63659" lon="2.93178">
        <ele>1219</ele>
        <time>2013-07-21T12:45:55Z</time>
      </trkpt>
      <trkpt lat="44.63651" lon="2.93184">
        <ele>1218</ele>
        <time>2013-07-21T12:46:03Z</time>
      </trkpt>
      <trkpt lat="44.63645" lon="2.93195">
        <ele>1219</ele>
        <time>2013-07-21T12:46:11Z</time>
      </trkpt>
      <trkpt lat="44.63643" lon="2.93204">
        <ele>1218</ele>
        <time>2013-07-21T12:46:14Z</time>
      </trkpt>
      <trkpt lat="44.63643" lon="2.93219">
        <ele>1219</ele>
        <time>2013-07-21T12:46:19Z</time>
      </trkpt>
      <trkpt lat="44.63643" lon="2.93226">
        <ele>1219</ele>
        <time>2013-07-21T12:46:22Z</time>
      </trkpt>
      <trkpt lat="44.63645" lon="2.93233">
        <ele>1219</ele>
        <time>2013-07-21T12:46:25Z</time>
      </trkpt>
      <trkpt lat="44.63646" lon="2.93241">
        <ele>1218</ele>
        <time>2013-07-21T12:46:28Z</time>
      </trkpt>
      <trkpt lat="44.63647" lon="2.93248">
        <ele>1218</ele>
        <time>2013-07-21T12:46:30Z</time>
      </trkpt>
      <trkpt lat="44.63652" lon="2.93264">
        <ele>1219</ele>
        <time>2013-07-21T12:46:34Z</time>
      </trkpt>
      <trkpt lat="44.63654" lon="2.93271">
        <ele>1219</ele>
        <time>2013-07-21T12:46:36Z</time>
      </trkpt>
      <trkpt lat="44.63656" lon="2.93279">
        <ele>1220</ele>
        <time>2013-07-21T12:46:38Z</time>
      </trkpt>
      <trkpt lat="44.63659" lon="2.93288">
        <ele>1221</ele>
        <time>2013-07-21T12:46:40Z</time>
      </trkpt>
      <trkpt lat="44.63662" lon="2.93298">
        <ele>1223</ele>
        <time>2013-07-21T12:46:42Z</time>
      </trkpt>
      <trkpt lat="44.63664" lon="2.93307">
        <ele>1224</ele>
        <time>2013-07-21T12:46:44Z</time>
      </trkpt>
      <trkpt lat="44.63668" lon="2.9332">
        <ele>1226</ele>
        <time>2013-07-21T12:46:47Z</time>
      </trkpt>
      <trkpt lat="44.63673" lon="2.93338">
        <ele>1227</ele>
        <time>2013-07-21T12:46:50Z</time>
      </trkpt>
      <trkpt lat="44.63677" lon="2.93351">
        <ele>1228</ele>
        <time>2013-07-21T12:46:52Z</time>
      </trkpt>
      <trkpt lat="44.63681" lon="2.93364">
        <ele>1229</ele>
        <time>2013-07-21T12:46:54Z</time>
      </trkpt>
      <trkpt lat="44.63687" lon="2.93378">
        <ele>1229</ele>
        <time>2013-07-21T12:46:56Z</time>
      </trkpt>
      <trkpt lat="44.63691" lon="2.93394">
        <ele>1230</ele>
        <time>2013-07-21T12:46:58Z</time>
      </trkpt>
      <trkpt lat="44.63695" lon="2.93406">
        <ele>1230</ele>
        <time>2013-07-21T12:47:00Z</time>
      </trkpt>
      <trkpt lat="44.63699" lon="2.93419">
        <ele>1231</ele>
        <time>2013-07-21T12:47:02Z</time>
      </trkpt>
      <trkpt lat="44.63703" lon="2.93433">
        <ele>1232</ele>
        <time>2013-07-21T12:47:04Z</time>
      </trkpt>
      <trkpt lat="44.63708" lon="2.93449">
        <ele>1234</ele>
        <time>2013-07-21T12:47:07Z</time>
      </trkpt>
      <trkpt lat="44.63711" lon="2.93461">
        <ele>1235</ele>
        <time>2013-07-21T12:47:09Z</time>
      </trkpt>
      <trkpt lat="44.63717" lon="2.93475">
        <ele>1238</ele>
        <time>2013-07-21T12:47:11Z</time>
      </trkpt>
      <trkpt lat="44.63722" lon="2.93489">
        <ele>1239</ele>
        <time>2013-07-21T12:47:13Z</time>
      </trkpt>
      <trkpt lat="44.63727" lon="2.93504">
        <ele>1241</ele>
        <time>2013-07-21T12:47:15Z</time>
      </trkpt>
      <trkpt lat="44.63733" lon="2.9352">
        <ele>1242</ele>
        <time>2013-07-21T12:47:17Z</time>
      </trkpt>
      <trkpt lat="44.63738" lon="2.93534">
        <ele>1243</ele>
        <time>2013-07-21T12:47:19Z</time>
      </trkpt>
      <trkpt lat="44.63743" lon="2.93549">
        <ele>1244</ele>
        <time>2013-07-21T12:47:21Z</time>
      </trkpt>
      <trkpt lat="44.63748" lon="2.93563">
        <ele>1245</ele>
        <time>2013-07-21T12:47:23Z</time>
      </trkpt>
      <trkpt lat="44.63752" lon="2.93574">
        <ele>1247</ele>
        <time>2013-07-21T12:47:25Z</time>
      </trkpt>
      <trkpt lat="44.63756" lon="2.93587">
        <ele>1249</ele>
        <time>2013-07-21T12:47:29Z</time>
      </trkpt>
      <trkpt lat="44.63761" lon="2.93599">
        <ele>1253</ele>
        <time>2013-07-21T12:47:49Z</time>
      </trkpt>
      <trkpt lat="44.63764" lon="2.93612">
        <ele>1254</ele>
        <time>2013-07-21T12:47:58Z</time>
      </trkpt>
      <trkpt lat="44.63764" lon="2.93621">
        <ele>1256</ele>
        <time>2013-07-21T12:48:06Z</time>
      </trkpt>
      <trkpt lat="44.63766" lon="2.93628">
        <ele>1256</ele>
        <time>2013-07-21T12:48:12Z</time>
      </trkpt>
      <trkpt lat="44.63778" lon="2.93655">
        <ele>1271</ele>
        <time>2013-07-21T12:48:32Z</time>
      </trkpt>
      <trkpt lat="44.63782" lon="2.9366">
        <ele>1270</ele>
        <time>2013-07-21T12:48:35Z</time>
      </trkpt>
      <trkpt lat="44.63788" lon="2.93668">
        <ele>1269</ele>
        <time>2013-07-21T12:48:41Z</time>
      </trkpt>
      <trkpt lat="44.6379" lon="2.93673">
        <ele>1267</ele>
        <time>2013-07-21T12:48:46Z</time>
      </trkpt>
      <trkpt lat="44.63796" lon="2.93684">
        <ele>1266</ele>
        <time>2013-07-21T12:48:53Z</time>
      </trkpt>
      <trkpt lat="44.63804" lon="2.93691">
        <ele>1269</ele>
        <time>2013-07-21T12:49:03Z</time>
      </trkpt>
      <trkpt lat="44.63815" lon="2.93694">
        <ele>1273</ele>
        <time>2013-07-21T12:49:07Z</time>
      </trkpt>
      <trkpt lat="44.63827" lon="2.93699">
        <ele>1279</ele>
        <time>2013-07-21T12:49:20Z</time>
      </trkpt>
      <trkpt lat="44.63836" lon="2.93698">
        <ele>1280</ele>
        <time>2013-07-21T12:49:31Z</time>
      </trkpt>
      <trkpt lat="44.63844" lon="2.93697">
        <ele>1280</ele>
        <time>2013-07-21T12:49:34Z</time>
      </trkpt>
      <trkpt lat="44.63854" lon="2.937">
        <ele>1279</ele>
        <time>2013-07-21T12:49:39Z</time>
      </trkpt>
      <trkpt lat="44.63863" lon="2.937">
        <ele>1278</ele>
        <time>2013-07-21T12:49:45Z</time>
      </trkpt>
      <trkpt lat="44.63863" lon="2.93704">
        <ele>1283</ele>
        <time>2013-07-21T12:50:07Z</time>
      </trkpt>
      <trkpt lat="44.63855" lon="2.93709">
        <ele>1284</ele>
        <time>2013-07-21T12:50:14Z</time>
      </trkpt>
      <trkpt lat="44.6385" lon="2.93722">
        <ele>1287</ele>
        <time>2013-07-21T12:50:20Z</time>
      </trkpt>
      <trkpt lat="44.63843" lon="2.93733">
        <ele>1290</ele>
        <time>2013-07-21T12:50:30Z</time>
      </trkpt>
      <trkpt lat="44.63835" lon="2.93734">
        <ele>1290</ele>
        <time>2013-07-21T12:50:37Z</time>
      </trkpt>
      <trkpt lat="44.63828" lon="2.93743">
        <ele>1290</ele>
        <time>2013-07-21T12:50:44Z</time>
      </trkpt>
      <trkpt lat="44.63822" lon="2.93754">
        <ele>1288</ele>
        <time>2013-07-21T12:50:51Z</time>
      </trkpt>
      <trkpt lat="44.63818" lon="2.93767">
        <ele>1287</ele>
        <time>2013-07-21T12:50:58Z</time>
      </trkpt>
      <trkpt lat="44.63815" lon="2.93781">
        <ele>1284</ele>
        <time>2013-07-21T12:51:03Z</time>
      </trkpt>
      <trkpt lat="44.63811" lon="2.93793">
        <ele>1281</ele>
        <time>2013-07-21T12:51:10Z</time>
      </trkpt>
      <trkpt lat="44.63808" lon="2.93805">
        <ele>1280</ele>
        <time>2013-07-21T12:51:17Z</time>
      </trkpt>
      <trkpt lat="44.63804" lon="2.93818">
        <ele>1280</ele>
        <time>2013-07-21T12:51:23Z</time>
      </trkpt>
      <trkpt lat="44.63801" lon="2.9383">
        <ele>1281</ele>
        <time>2013-07-21T12:51:30Z</time>
      </trkpt>
      <trkpt lat="44.638" lon="2.93844">
        <ele>1280</ele>
        <time>2013-07-21T12:51:39Z</time>
      </trkpt>
      <trkpt lat="44.63801" lon="2.93857">
        <ele>1279</ele>
        <time>2013-07-21T12:51:48Z</time>
      </trkpt>
      <trkpt lat="44.63801" lon="2.93871">
        <ele>1279</ele>
        <time>2013-07-21T12:51:57Z</time>
      </trkpt>
      <trkpt lat="44.63802" lon="2.93885">
        <ele>1278</ele>
        <time>2013-07-21T12:52:06Z</time>
      </trkpt>
      <trkpt lat="44.638" lon="2.939">
        <ele>1278</ele>
        <time>2013-07-21T12:52:13Z</time>
      </trkpt>
      <trkpt lat="44.63798" lon="2.93909">
        <ele>1280</ele>
        <time>2013-07-21T12:52:16Z</time>
      </trkpt>
      <trkpt lat="44.63798" lon="2.93917">
        <ele>1282</ele>
        <time>2013-07-21T12:52:19Z</time>
      </trkpt>
      <trkpt lat="44.63798" lon="2.93924">
        <ele>1283</ele>
        <time>2013-07-21T12:52:22Z</time>
      </trkpt>
      <trkpt lat="44.63799" lon="2.93932">
        <ele>1285</ele>
        <time>2013-07-21T12:52:26Z</time>
      </trkpt>
      <trkpt lat="44.63799" lon="2.93939">
        <ele>1287</ele>
        <time>2013-07-21T12:52:30Z</time>
      </trkpt>
      <trkpt lat="44.63802" lon="2.93946">
        <ele>1289</ele>
        <time>2013-07-21T12:52:34Z</time>
      </trkpt>
      <trkpt lat="44.63804" lon="2.93953">
        <ele>1291</ele>
        <time>2013-07-21T12:52:38Z</time>
      </trkpt>
      <trkpt lat="44.63808" lon="2.93959">
        <ele>1292</ele>
        <time>2013-07-21T12:52:42Z</time>
      </trkpt>
      <trkpt lat="44.63815" lon="2.93968">
        <ele>1292</ele>
        <time>2013-07-21T12:52:51Z</time>
      </trkpt>
      <trkpt lat="44.6382" lon="2.93972">
        <ele>1293</ele>
        <time>2013-07-21T12:52:55Z</time>
      </trkpt>
      <trkpt lat="44.63823" lon="2.93977">
        <ele>1293</ele>
        <time>2013-07-21T12:52:59Z</time>
      </trkpt>
      <trkpt lat="44.63826" lon="2.93986">
        <ele>1294</ele>
        <time>2013-07-21T12:53:04Z</time>
      </trkpt>
      <trkpt lat="44.63826" lon="2.93993">
        <ele>1295</ele>
        <time>2013-07-21T12:53:07Z</time>
      </trkpt>
      <trkpt lat="44.63826" lon="2.93999">
        <ele>1296</ele>
        <time>2013-07-21T12:53:11Z</time>
      </trkpt>
      <trkpt lat="44.63828" lon="2.94006">
        <ele>1297</ele>
        <time>2013-07-21T12:53:15Z</time>
      </trkpt>
      <trkpt lat="44.63829" lon="2.94013">
        <ele>1297</ele>
        <time>2013-07-21T12:53:19Z</time>
      </trkpt>
      <trkpt lat="44.63829" lon="2.9402">
        <ele>1299</ele>
        <time>2013-07-21T12:53:23Z</time>
      </trkpt>
      <trkpt lat="44.6383" lon="2.94027">
        <ele>1299</ele>
        <time>2013-07-21T12:53:26Z</time>
      </trkpt>
      <trkpt lat="44.63834" lon="2.94034">
        <ele>1299</ele>
        <time>2013-07-21T12:53:30Z</time>
      </trkpt>
      <trkpt lat="44.63835" lon="2.94042">
        <ele>1298</ele>
        <time>2013-07-21T12:53:34Z</time>
      </trkpt>
      <trkpt lat="44.63835" lon="2.94051">
        <ele>1297</ele>
        <time>2013-07-21T12:53:37Z</time>
      </trkpt>
      <trkpt lat="44.63835" lon="2.9406">
        <ele>1297</ele>
        <time>2013-07-21T12:53:41Z</time>
      </trkpt>
      <trkpt lat="44.63836" lon="2.94066">
        <ele>1297</ele>
        <time>2013-07-21T12:53:44Z</time>
      </trkpt>
      <trkpt lat="44.63837" lon="2.94077">
        <ele>1298</ele>
        <time>2013-07-21T12:53:50Z</time>
      </trkpt>
      <trkpt lat="44.63838" lon="2.94085">
        <ele>1298</ele>
        <time>2013-07-21T12:53:54Z</time>
      </trkpt>
      <trkpt lat="44.63839" lon="2.94094">
        <ele>1298</ele>
        <time>2013-07-21T12:53:58Z</time>
      </trkpt>
      <trkpt lat="44.63842" lon="2.94107">
        <ele>1298</ele>
        <time>2013-07-21T12:54:05Z</time>
      </trkpt>
      <trkpt lat="44.63843" lon="2.9412">
        <ele>1296</ele>
        <time>2013-07-21T12:54:11Z</time>
      </trkpt>
      <trkpt lat="44.63844" lon="2.94133">
        <ele>1295</ele>
        <time>2013-07-21T12:54:17Z</time>
      </trkpt>
      <trkpt lat="44.63843" lon="2.94146">
        <ele>1295</ele>
        <time>2013-07-21T12:54:23Z</time>
      </trkpt>
      <trkpt lat="44.63844" lon="2.9416">
        <ele>1294</ele>
        <time>2013-07-21T12:54:30Z</time>
      </trkpt>
      <trkpt lat="44.63847" lon="2.94172">
        <ele>1293</ele>
        <time>2013-07-21T12:54:37Z</time>
      </trkpt>
      <trkpt lat="44.63847" lon="2.94186">
        <ele>1292</ele>
        <time>2013-07-21T12:54:44Z</time>
      </trkpt>
      <trkpt lat="44.63846" lon="2.94199">
        <ele>1292</ele>
        <time>2013-07-21T12:54:51Z</time>
      </trkpt>
      <trkpt lat="44.63846" lon="2.94205">
        <ele>1293</ele>
        <time>2013-07-21T12:54:55Z</time>
      </trkpt>
      <trkpt lat="44.6385" lon="2.94218">
        <ele>1294</ele>
        <time>2013-07-21T12:55:02Z</time>
      </trkpt>
      <trkpt lat="44.63853" lon="2.94226">
        <ele>1293</ele>
        <time>2013-07-21T12:55:06Z</time>
      </trkpt>
      <trkpt lat="44.63853" lon="2.94235">
        <ele>1293</ele>
        <time>2013-07-21T12:55:10Z</time>
      </trkpt>
      <trkpt lat="44.63846" lon="2.94244">
        <ele>1292</ele>
        <time>2013-07-21T12:55:20Z</time>
      </trkpt>
      <trkpt lat="44.63839" lon="2.94245">
        <ele>1290</ele>
        <time>2013-07-21T12:55:36Z</time>
      </trkpt>
      <trkpt lat="44.63829" lon="2.94244">
        <ele>1289</ele>
        <time>2013-07-21T12:55:52Z</time>
      </trkpt>
      <trkpt lat="44.63819" lon="2.94247">
        <ele>1289</ele>
        <time>2013-07-21T12:55:57Z</time>
      </trkpt>
      <trkpt lat="44.63811" lon="2.94254">
        <ele>1290</ele>
        <time>2013-07-21T12:56:11Z</time>
      </trkpt>
      <trkpt lat="44.638" lon="2.94258">
        <ele>1290</ele>
        <time>2013-07-21T12:56:15Z</time>
      </trkpt>
      <trkpt lat="44.63788" lon="2.94263">
        <ele>1290</ele>
        <time>2013-07-21T12:56:20Z</time>
      </trkpt>
      <trkpt lat="44.63778" lon="2.94265">
        <ele>1290</ele>
        <time>2013-07-21T12:56:25Z</time>
      </trkpt>
      <trkpt lat="44.63769" lon="2.94266">
        <ele>1289</ele>
        <time>2013-07-21T12:56:36Z</time>
      </trkpt>
      <trkpt lat="44.6376" lon="2.9427">
        <ele>1288</ele>
        <time>2013-07-21T12:56:43Z</time>
      </trkpt>
      <trkpt lat="44.63749" lon="2.94271">
        <ele>1288</ele>
        <time>2013-07-21T12:56:52Z</time>
      </trkpt>
      <trkpt lat="44.63739" lon="2.94278">
        <ele>1288</ele>
        <time>2013-07-21T12:56:59Z</time>
      </trkpt>
      <trkpt lat="44.6373" lon="2.94284">
        <ele>1287</ele>
        <time>2013-07-21T12:57:05Z</time>
      </trkpt>
      <trkpt lat="44.63721" lon="2.94286">
        <ele>1283</ele>
        <time>2013-07-21T12:57:11Z</time>
      </trkpt>
      <trkpt lat="44.6371" lon="2.94289">
        <ele>1282</ele>
        <time>2013-07-21T12:57:18Z</time>
      </trkpt>
      <trkpt lat="44.63701" lon="2.94295">
        <ele>1281</ele>
        <time>2013-07-21T12:57:24Z</time>
      </trkpt>
      <trkpt lat="44.63694" lon="2.94304">
        <ele>1278</ele>
        <time>2013-07-21T12:57:31Z</time>
      </trkpt>
      <trkpt lat="44.63687" lon="2.94313">
        <ele>1274</ele>
        <time>2013-07-21T12:57:38Z</time>
      </trkpt>
      <trkpt lat="44.63679" lon="2.94319">
        <ele>1273</ele>
        <time>2013-07-21T12:57:45Z</time>
      </trkpt>
      <trkpt lat="44.63671" lon="2.94326">
        <ele>1271</ele>
        <time>2013-07-21T12:57:53Z</time>
      </trkpt>
      <trkpt lat="44.6366" lon="2.94328">
        <ele>1271</ele>
        <time>2013-07-21T12:58:05Z</time>
      </trkpt>
      <trkpt lat="44.63648" lon="2.94324">
        <ele>1267</ele>
        <time>2013-07-21T12:58:19Z</time>
      </trkpt>
      <trkpt lat="44.63636" lon="2.94321">
        <ele>1265</ele>
        <time>2013-07-21T12:58:25Z</time>
      </trkpt>
      <trkpt lat="44.63627" lon="2.94317">
        <ele>1261</ele>
        <time>2013-07-21T12:58:31Z</time>
      </trkpt>
      <trkpt lat="44.63617" lon="2.94313">
        <ele>1258</ele>
        <time>2013-07-21T12:58:41Z</time>
      </trkpt>
      <trkpt lat="44.63608" lon="2.94314">
        <ele>1257</ele>
        <time>2013-07-21T12:58:47Z</time>
      </trkpt>
      <trkpt lat="44.63597" lon="2.94307">
        <ele>1257</ele>
        <time>2013-07-21T12:58:58Z</time>
      </trkpt>
      <trkpt lat="44.63588" lon="2.94302">
        <ele>1255</ele>
        <time>2013-07-21T12:59:05Z</time>
      </trkpt>
      <trkpt lat="44.63579" lon="2.94304">
        <ele>1255</ele>
        <time>2013-07-21T12:59:10Z</time>
      </trkpt>
      <trkpt lat="44.6357" lon="2.94305">
        <ele>1253</ele>
        <time>2013-07-21T12:59:16Z</time>
      </trkpt>
      <trkpt lat="44.6356" lon="2.94304">
        <ele>1252</ele>
        <time>2013-07-21T12:59:22Z</time>
      </trkpt>
      <trkpt lat="44.63551" lon="2.94303">
        <ele>1251</ele>
        <time>2013-07-21T12:59:27Z</time>
      </trkpt>
      <trkpt lat="44.63541" lon="2.94301">
        <ele>1252</ele>
        <time>2013-07-21T12:59:33Z</time>
      </trkpt>
      <trkpt lat="44.63531" lon="2.94298">
        <ele>1251</ele>
        <time>2013-07-21T12:59:39Z</time>
      </trkpt>
      <trkpt lat="44.63523" lon="2.94297">
        <ele>1250</ele>
        <time>2013-07-21T12:59:44Z</time>
      </trkpt>
      <trkpt lat="44.63514" lon="2.94295">
        <ele>1250</ele>
        <time>2013-07-21T12:59:50Z</time>
      </trkpt>
      <trkpt lat="44.63504" lon="2.94293">
        <ele>1251</ele>
        <time>2013-07-21T12:59:56Z</time>
      </trkpt>
      <trkpt lat="44.63494" lon="2.9429">
        <ele>1251</ele>
        <time>2013-07-21T13:00:03Z</time>
      </trkpt>
      <trkpt lat="44.63484" lon="2.9429">
        <ele>1249</ele>
        <time>2013-07-21T13:00:12Z</time>
      </trkpt>
      <trkpt lat="44.63472" lon="2.94296">
        <ele>1249</ele>
        <time>2013-07-21T13:00:45Z</time>
      </trkpt>
      <trkpt lat="44.63463" lon="2.94303">
        <ele>1250</ele>
        <time>2013-07-21T13:00:51Z</time>
      </trkpt>
      <trkpt lat="44.63458" lon="2.94309">
        <ele>1249</ele>
        <time>2013-07-21T13:00:55Z</time>
      </trkpt>
      <trkpt lat="44.63455" lon="2.94314">
        <ele>1249</ele>
        <time>2013-07-21T13:00:58Z</time>
      </trkpt>
      <trkpt lat="44.63452" lon="2.9432">
        <ele>1248</ele>
        <time>2013-07-21T13:01:02Z</time>
      </trkpt>
      <trkpt lat="44.63448" lon="2.94326">
        <ele>1248</ele>
        <time>2013-07-21T13:01:05Z</time>
      </trkpt>
      <trkpt lat="44.6344" lon="2.94335">
        <ele>1246</ele>
        <time>2013-07-21T13:01:10Z</time>
      </trkpt>
      <trkpt lat="44.63432" lon="2.94343">
        <ele>1244</ele>
        <time>2013-07-21T13:01:16Z</time>
      </trkpt>
      <trkpt lat="44.63424" lon="2.94351">
        <ele>1243</ele>
        <time>2013-07-21T13:01:22Z</time>
      </trkpt>
      <trkpt lat="44.63416" lon="2.94358">
        <ele>1244</ele>
        <time>2013-07-21T13:01:28Z</time>
      </trkpt>
      <trkpt lat="44.63407" lon="2.94366">
        <ele>1244</ele>
        <time>2013-07-21T13:01:33Z</time>
      </trkpt>
      <trkpt lat="44.63399" lon="2.94374">
        <ele>1243</ele>
        <time>2013-07-21T13:01:40Z</time>
      </trkpt>
      <trkpt lat="44.6339" lon="2.94378">
        <ele>1243</ele>
        <time>2013-07-21T13:01:46Z</time>
      </trkpt>
      <trkpt lat="44.63381" lon="2.94385">
        <ele>1240</ele>
        <time>2013-07-21T13:01:58Z</time>
      </trkpt>
      <trkpt lat="44.63372" lon="2.94389">
        <ele>1239</ele>
        <time>2013-07-21T13:02:04Z</time>
      </trkpt>
      <trkpt lat="44.63362" lon="2.94391">
        <ele>1236</ele>
        <time>2013-07-21T13:02:10Z</time>
      </trkpt>
      <trkpt lat="44.63353" lon="2.94393">
        <ele>1235</ele>
        <time>2013-07-21T13:02:15Z</time>
      </trkpt>
      <trkpt lat="44.63343" lon="2.94391">
        <ele>1233</ele>
        <time>2013-07-21T13:02:21Z</time>
      </trkpt>
      <trkpt lat="44.63332" lon="2.94388">
        <ele>1232</ele>
        <time>2013-07-21T13:02:30Z</time>
      </trkpt>
      <trkpt lat="44.63322" lon="2.94387">
        <ele>1231</ele>
        <time>2013-07-21T13:02:40Z</time>
      </trkpt>
      <trkpt lat="44.63311" lon="2.94385">
        <ele>1230</ele>
        <time>2013-07-21T13:02:47Z</time>
      </trkpt>
      <trkpt lat="44.63301" lon="2.94384">
        <ele>1229</ele>
        <time>2013-07-21T13:02:53Z</time>
      </trkpt>
      <trkpt lat="44.63292" lon="2.94379">
        <ele>1227</ele>
        <time>2013-07-21T13:02:58Z</time>
      </trkpt>
      <trkpt lat="44.63283" lon="2.94373">
        <ele>1225</ele>
        <time>2013-07-21T13:03:03Z</time>
      </trkpt>
      <trkpt lat="44.63276" lon="2.94364">
        <ele>1225</ele>
        <time>2013-07-21T13:03:11Z</time>
      </trkpt>
      <trkpt lat="44.63267" lon="2.94357">
        <ele>1224</ele>
        <time>2013-07-21T13:03:19Z</time>
      </trkpt>
      <trkpt lat="44.6326" lon="2.94348">
        <ele>1225</ele>
        <time>2013-07-21T13:03:26Z</time>
      </trkpt>
      <trkpt lat="44.63249" lon="2.94348">
        <ele>1225</ele>
        <time>2013-07-21T13:03:34Z</time>
      </trkpt>
      <trkpt lat="44.63239" lon="2.94347">
        <ele>1226</ele>
        <time>2013-07-21T13:03:40Z</time>
      </trkpt>
      <trkpt lat="44.6323" lon="2.94343">
        <ele>1224</ele>
        <time>2013-07-21T13:03:46Z</time>
      </trkpt>
      <trkpt lat="44.63225" lon="2.94341">
        <ele>1223</ele>
        <time>2013-07-21T13:03:59Z</time>
      </trkpt>
      <trkpt lat="44.63214" lon="2.94339">
        <ele>1222</ele>
        <time>2013-07-21T13:04:20Z</time>
      </trkpt>
      <trkpt lat="44.63206" lon="2.94329">
        <ele>1225</ele>
        <time>2013-07-21T13:04:29Z</time>
      </trkpt>
      <trkpt lat="44.63199" lon="2.9432">
        <ele>1226</ele>
        <time>2013-07-21T13:04:37Z</time>
      </trkpt>
      <trkpt lat="44.63189" lon="2.94313">
        <ele>1228</ele>
        <time>2013-07-21T13:04:44Z</time>
      </trkpt>
      <trkpt lat="44.63179" lon="2.94307">
        <ele>1228</ele>
        <time>2013-07-21T13:04:52Z</time>
      </trkpt>
      <trkpt lat="44.63171" lon="2.94306">
        <ele>1224</ele>
        <time>2013-07-21T13:05:10Z</time>
      </trkpt>
      <trkpt lat="44.63159" lon="2.94306">
        <ele>1224</ele>
        <time>2013-07-21T13:05:26Z</time>
      </trkpt>
      <trkpt lat="44.63154" lon="2.94307">
        <ele>1224</ele>
        <time>2013-07-21T13:05:49Z</time>
      </trkpt>
      <trkpt lat="44.63151" lon="2.94312">
        <ele>1224</ele>
        <time>2013-07-21T13:06:06Z</time>
      </trkpt>
      <trkpt lat="44.63146" lon="2.94299">
        <ele>1224</ele>
        <time>2013-07-21T13:06:14Z</time>
      </trkpt>
      <trkpt lat="44.63139" lon="2.94288">
        <ele>1224</ele>
        <time>2013-07-21T13:06:22Z</time>
      </trkpt>
      <trkpt lat="44.63132" lon="2.9428">
        <ele>1224</ele>
        <time>2013-07-21T13:06:30Z</time>
      </trkpt>
      <trkpt lat="44.63126" lon="2.94268">
        <ele>1222</ele>
        <time>2013-07-21T13:06:37Z</time>
      </trkpt>
      <trkpt lat="44.63117" lon="2.9426">
        <ele>1221</ele>
        <time>2013-07-21T13:06:47Z</time>
      </trkpt>
      <trkpt lat="44.63113" lon="2.94249">
        <ele>1217</ele>
        <time>2013-07-21T13:06:55Z</time>
      </trkpt>
      <trkpt lat="44.631" lon="2.94251">
        <ele>1210</ele>
        <time>2013-07-21T13:07:07Z</time>
      </trkpt>
      <trkpt lat="44.63089" lon="2.9425">
        <ele>1206</ele>
        <time>2013-07-21T13:07:13Z</time>
      </trkpt>
      <trkpt lat="44.63081" lon="2.94243">
        <ele>1204</ele>
        <time>2013-07-21T13:07:18Z</time>
      </trkpt>
      <trkpt lat="44.63073" lon="2.94229">
        <ele>1204</ele>
        <time>2013-07-21T13:07:24Z</time>
      </trkpt>
      <trkpt lat="44.63064" lon="2.94219">
        <ele>1203</ele>
        <time>2013-07-21T13:07:29Z</time>
      </trkpt>
      <trkpt lat="44.63056" lon="2.94209">
        <ele>1204</ele>
        <time>2013-07-21T13:07:34Z</time>
      </trkpt>
      <trkpt lat="44.63051" lon="2.94204">
        <ele>1206</ele>
        <time>2013-07-21T13:07:48Z</time>
      </trkpt>
      <trkpt lat="44.63043" lon="2.94197">
        <ele>1207</ele>
        <time>2013-07-21T13:07:53Z</time>
      </trkpt>
      <trkpt lat="44.63032" lon="2.94189">
        <ele>1207</ele>
        <time>2013-07-21T13:07:59Z</time>
      </trkpt>
      <trkpt lat="44.6302" lon="2.9418">
        <ele>1207</ele>
        <time>2013-07-21T13:08:12Z</time>
      </trkpt>
      <trkpt lat="44.6301" lon="2.94175">
        <ele>1207</ele>
        <time>2013-07-21T13:08:21Z</time>
      </trkpt>
      <trkpt lat="44.63001" lon="2.94168">
        <ele>1204</ele>
        <time>2013-07-21T13:08:27Z</time>
      </trkpt>
      <trkpt lat="44.6299" lon="2.94167">
        <ele>1202</ele>
        <time>2013-07-21T13:08:35Z</time>
      </trkpt>
      <trkpt lat="44.62982" lon="2.94159">
        <ele>1201</ele>
        <time>2013-07-21T13:08:40Z</time>
      </trkpt>
      <trkpt lat="44.62974" lon="2.94152">
        <ele>1201</ele>
        <time>2013-07-21T13:08:46Z</time>
      </trkpt>
      <trkpt lat="44.62965" lon="2.94146">
        <ele>1202</ele>
        <time>2013-07-21T13:08:53Z</time>
      </trkpt>
      <trkpt lat="44.62955" lon="2.94148">
        <ele>1203</ele>
        <time>2013-07-21T13:09:00Z</time>
      </trkpt>
      <trkpt lat="44.62946" lon="2.9415">
        <ele>1204</ele>
        <time>2013-07-21T13:09:05Z</time>
      </trkpt>
      <trkpt lat="44.62937" lon="2.94146">
        <ele>1203</ele>
        <time>2013-07-21T13:09:12Z</time>
      </trkpt>
      <trkpt lat="44.62927" lon="2.94144">
        <ele>1201</ele>
        <time>2013-07-21T13:09:21Z</time>
      </trkpt>
      <trkpt lat="44.62918" lon="2.94145">
        <ele>1200</ele>
        <time>2013-07-21T13:09:27Z</time>
      </trkpt>
      <trkpt lat="44.62908" lon="2.94143">
        <ele>1199</ele>
        <time>2013-07-21T13:09:32Z</time>
      </trkpt>
      <trkpt lat="44.62899" lon="2.94146">
        <ele>1200</ele>
        <time>2013-07-21T13:09:38Z</time>
      </trkpt>
      <trkpt lat="44.62891" lon="2.9414">
        <ele>1200</ele>
        <time>2013-07-21T13:09:46Z</time>
      </trkpt>
      <trkpt lat="44.62882" lon="2.94138">
        <ele>1200</ele>
        <time>2013-07-21T13:09:52Z</time>
      </trkpt>
      <trkpt lat="44.62872" lon="2.94137">
        <ele>1200</ele>
        <time>2013-07-21T13:09:58Z</time>
      </trkpt>
      <trkpt lat="44.62863" lon="2.94137">
        <ele>1201</ele>
        <time>2013-07-21T13:10:05Z</time>
      </trkpt>
      <trkpt lat="44.62853" lon="2.94141">
        <ele>1201</ele>
        <time>2013-07-21T13:10:13Z</time>
      </trkpt>
      <trkpt lat="44.62845" lon="2.94148">
        <ele>1200</ele>
        <time>2013-07-21T13:10:18Z</time>
      </trkpt>
      <trkpt lat="44.62841" lon="2.94161">
        <ele>1197</ele>
        <time>2013-07-21T13:10:39Z</time>
      </trkpt>
      <trkpt lat="44.62845" lon="2.94174">
        <ele>1193</ele>
        <time>2013-07-21T13:10:52Z</time>
      </trkpt>
      <trkpt lat="44.62851" lon="2.94182">
        <ele>1188</ele>
        <time>2013-07-21T13:11:00Z</time>
      </trkpt>
      <trkpt lat="44.62859" lon="2.94192">
        <ele>1186</ele>
        <time>2013-07-21T13:11:06Z</time>
      </trkpt>
      <trkpt lat="44.62865" lon="2.94202">
        <ele>1180</ele>
        <time>2013-07-21T13:11:15Z</time>
      </trkpt>
      <trkpt lat="44.62872" lon="2.94211">
        <ele>1180</ele>
        <time>2013-07-21T13:11:21Z</time>
      </trkpt>
      <trkpt lat="44.62879" lon="2.94218">
        <ele>1180</ele>
        <time>2013-07-21T13:11:27Z</time>
      </trkpt>
      <trkpt lat="44.6289" lon="2.94225">
        <ele>1181</ele>
        <time>2013-07-21T13:11:38Z</time>
      </trkpt>
      <trkpt lat="44.62896" lon="2.94236">
        <ele>1181</ele>
        <time>2013-07-21T13:11:44Z</time>
      </trkpt>
      <trkpt lat="44.62891" lon="2.94249">
        <ele>1179</ele>
        <time>2013-07-21T13:11:53Z</time>
      </trkpt>
      <trkpt lat="44.62885" lon="2.94259">
        <ele>1179</ele>
        <time>2013-07-21T13:11:59Z</time>
      </trkpt>
      <trkpt lat="44.62881" lon="2.94274">
        <ele>1177</ele>
        <time>2013-07-21T13:12:08Z</time>
      </trkpt>
      <trkpt lat="44.62877" lon="2.94278">
        <ele>1177</ele>
        <time>2013-07-21T13:12:36Z</time>
      </trkpt>
      <trkpt lat="44.62871" lon="2.94289">
        <ele>1178</ele>
        <time>2013-07-21T13:12:48Z</time>
      </trkpt>
      <trkpt lat="44.62869" lon="2.94293">
        <ele>1175</ele>
        <time>2013-07-21T13:12:57Z</time>
      </trkpt>
      <trkpt lat="44.62868" lon="2.94296">
        <ele>1173</ele>
        <time>2013-07-21T13:13:16Z</time>
      </trkpt>
      <trkpt lat="44.62858" lon="2.94292">
        <ele>1170</ele>
        <time>2013-07-21T13:13:29Z</time>
      </trkpt>
      <trkpt lat="44.62849" lon="2.94292">
        <ele>1168</ele>
        <time>2013-07-21T13:13:38Z</time>
      </trkpt>
      <trkpt lat="44.62837" lon="2.9429">
        <ele>1165</ele>
        <time>2013-07-21T13:13:59Z</time>
      </trkpt>
      <trkpt lat="44.62826" lon="2.94289">
        <ele>1167</ele>
        <time>2013-07-21T13:14:05Z</time>
      </trkpt>
      <trkpt lat="44.62816" lon="2.94287">
        <ele>1171</ele>
        <time>2013-07-21T13:14:13Z</time>
      </trkpt>
      <trkpt lat="44.62804" lon="2.94284">
        <ele>1171</ele>
        <time>2013-07-21T13:14:27Z</time>
      </trkpt>
      <trkpt lat="44.62793" lon="2.94288">
        <ele>1169</ele>
        <time>2013-07-21T13:14:31Z</time>
      </trkpt>
      <trkpt lat="44.62786" lon="2.94297">
        <ele>1167</ele>
        <time>2013-07-21T13:14:36Z</time>
      </trkpt>
      <trkpt lat="44.62781" lon="2.94309">
        <ele>1164</ele>
        <time>2013-07-21T13:14:42Z</time>
      </trkpt>
      <trkpt lat="44.62778" lon="2.94321">
        <ele>1162</ele>
        <time>2013-07-21T13:14:48Z</time>
      </trkpt>
      <trkpt lat="44.62788" lon="2.94328">
        <ele>1161</ele>
        <time>2013-07-21T13:15:26Z</time>
      </trkpt>
      <trkpt lat="44.62798" lon="2.9433">
        <ele>1159</ele>
        <time>2013-07-21T13:15:35Z</time>
      </trkpt>
      <trkpt lat="44.62806" lon="2.94335">
        <ele>1158</ele>
        <time>2013-07-21T13:15:42Z</time>
      </trkpt>
      <trkpt lat="44.62816" lon="2.94337">
        <ele>1157</ele>
        <time>2013-07-21T13:15:48Z</time>
      </trkpt>
      <trkpt lat="44.62826" lon="2.94334">
        <ele>1155</ele>
        <time>2013-07-21T13:15:55Z</time>
      </trkpt>
      <trkpt lat="44.62834" lon="2.9433">
        <ele>1154</ele>
        <time>2013-07-21T13:16:04Z</time>
      </trkpt>
      <trkpt lat="44.62844" lon="2.9433">
        <ele>1153</ele>
        <time>2013-07-21T13:16:14Z</time>
      </trkpt>
      <trkpt lat="44.62855" lon="2.94331">
        <ele>1152</ele>
        <time>2013-07-21T13:16:22Z</time>
      </trkpt>
      <trkpt lat="44.62865" lon="2.94333">
        <ele>1153</ele>
        <time>2013-07-21T13:16:27Z</time>
      </trkpt>
      <trkpt lat="44.62874" lon="2.94336">
        <ele>1155</ele>
        <time>2013-07-21T13:16:33Z</time>
      </trkpt>
      <trkpt lat="44.62883" lon="2.94335">
        <ele>1155</ele>
        <time>2013-07-21T13:16:43Z</time>
      </trkpt>
      <trkpt lat="44.62893" lon="2.94338">
        <ele>1159</ele>
        <time>2013-07-21T13:16:53Z</time>
      </trkpt>
      <trkpt lat="44.62903" lon="2.94345">
        <ele>1161</ele>
        <time>2013-07-21T13:17:01Z</time>
      </trkpt>
      <trkpt lat="44.62913" lon="2.94348">
        <ele>1166</ele>
        <time>2013-07-21T13:17:16Z</time>
      </trkpt>
      <trkpt lat="44.62925" lon="2.94353">
        <ele>1164</ele>
        <time>2013-07-21T13:17:25Z</time>
      </trkpt>
      <trkpt lat="44.62929" lon="2.94358">
        <ele>1164</ele>
        <time>2013-07-21T13:17:43Z</time>
      </trkpt>
      <trkpt lat="44.62933" lon="2.94366">
        <ele>1167</ele>
        <time>2013-07-21T13:17:59Z</time>
      </trkpt>
      <trkpt lat="44.62937" lon="2.94378">
        <ele>1166</ele>
        <time>2013-07-21T13:18:15Z</time>
      </trkpt>
      <trkpt lat="44.62925" lon="2.94383">
        <ele>1161</ele>
        <time>2013-07-21T13:18:34Z</time>
      </trkpt>
      <trkpt lat="44.62917" lon="2.94392">
        <ele>1156</ele>
        <time>2013-07-21T13:18:41Z</time>
      </trkpt>
      <trkpt lat="44.62908" lon="2.94394">
        <ele>1154</ele>
        <time>2013-07-21T13:18:51Z</time>
      </trkpt>
      <trkpt lat="44.62899" lon="2.94388">
        <ele>1153</ele>
        <time>2013-07-21T13:19:01Z</time>
      </trkpt>
      <trkpt lat="44.62888" lon="2.94394">
        <ele>1152</ele>
        <time>2013-07-21T13:19:15Z</time>
      </trkpt>
      <trkpt lat="44.62879" lon="2.94398">
        <ele>1150</ele>
        <time>2013-07-21T13:19:19Z</time>
      </trkpt>
      <trkpt lat="44.62869" lon="2.94398">
        <ele>1148</ele>
        <time>2013-07-21T13:19:30Z</time>
      </trkpt>
      <trkpt lat="44.6286" lon="2.944">
        <ele>1149</ele>
        <time>2013-07-21T13:19:40Z</time>
      </trkpt>
      <trkpt lat="44.62854" lon="2.94409">
        <ele>1149</ele>
        <time>2013-07-21T13:19:46Z</time>
      </trkpt>
      <trkpt lat="44.62848" lon="2.94424">
        <ele>1147</ele>
        <time>2013-07-21T13:20:02Z</time>
      </trkpt>
      <trkpt lat="44.62837" lon="2.94425">
        <ele>1143</ele>
        <time>2013-07-21T13:20:16Z</time>
      </trkpt>
      <trkpt lat="44.62826" lon="2.94424">
        <ele>1141</ele>
        <time>2013-07-21T13:20:22Z</time>
      </trkpt>
      <trkpt lat="44.62813" lon="2.94424">
        <ele>1143</ele>
        <time>2013-07-21T13:20:34Z</time>
      </trkpt>
      <trkpt lat="44.62803" lon="2.94435">
        <ele>1149</ele>
        <time>2013-07-21T13:20:53Z</time>
      </trkpt>
      <trkpt lat="44.62812" lon="2.94438">
        <ele>1154</ele>
        <time>2013-07-21T13:21:17Z</time>
      </trkpt>
      <trkpt lat="44.62819" lon="2.94448">
        <ele>1154</ele>
        <time>2013-07-21T13:21:24Z</time>
      </trkpt>
      <trkpt lat="44.62823" lon="2.94459">
        <ele>1153</ele>
        <time>2013-07-21T13:21:31Z</time>
      </trkpt>
      <trkpt lat="44.62828" lon="2.94471">
        <ele>1153</ele>
        <time>2013-07-21T13:21:37Z</time>
      </trkpt>
      <trkpt lat="44.62831" lon="2.94484">
        <ele>1151</ele>
        <time>2013-07-21T13:21:52Z</time>
      </trkpt>
      <trkpt lat="44.62829" lon="2.94491">
        <ele>1149</ele>
        <time>2013-07-21T13:22:04Z</time>
      </trkpt>
      <trkpt lat="44.62828" lon="2.94496">
        <ele>1146</ele>
        <time>2013-07-21T13:22:58Z</time>
      </trkpt>
      <trkpt lat="44.62825" lon="2.94513">
        <ele>1145</ele>
        <time>2013-07-21T13:23:10Z</time>
      </trkpt>
      <trkpt lat="44.62817" lon="2.94518">
        <ele>1144</ele>
        <time>2013-07-21T13:23:16Z</time>
      </trkpt>
      <trkpt lat="44.62809" lon="2.94526">
        <ele>1141</ele>
        <time>2013-07-21T13:23:21Z</time>
      </trkpt>
      <trkpt lat="44.62806" lon="2.94534">
        <ele>1140</ele>
        <time>2013-07-21T13:23:44Z</time>
      </trkpt>
      <trkpt lat="44.62801" lon="2.94544">
        <ele>1135</ele>
        <time>2013-07-21T13:24:14Z</time>
      </trkpt>
      <trkpt lat="44.62796" lon="2.94553">
        <ele>1131</ele>
        <time>2013-07-21T13:25:41Z</time>
      </trkpt>
      <trkpt lat="44.62787" lon="2.94553">
        <ele>1139</ele>
        <time>2013-07-21T13:25:54Z</time>
      </trkpt>
      <trkpt lat="44.62782" lon="2.94539">
        <ele>1139</ele>
        <time>2013-07-21T13:26:04Z</time>
      </trkpt>
      <trkpt lat="44.62782" lon="2.94526">
        <ele>1137</ele>
        <time>2013-07-21T13:26:09Z</time>
      </trkpt>
      <trkpt lat="44.62782" lon="2.94507">
        <ele>1138</ele>
        <time>2013-07-21T13:26:34Z</time>
      </trkpt>
      <trkpt lat="44.62779" lon="2.94498">
        <ele>1142</ele>
        <time>2013-07-21T13:26:56Z</time>
      </trkpt>
      <trkpt lat="44.62781" lon="2.9451">
        <ele>1148</ele>
        <time>2013-07-21T13:27:39Z</time>
      </trkpt>
      <trkpt lat="44.62784" lon="2.94524">
        <ele>1146</ele>
        <time>2013-07-21T13:28:00Z</time>
      </trkpt>
      <trkpt lat="44.62786" lon="2.94538">
        <ele>1141</ele>
        <time>2013-07-21T13:28:07Z</time>
      </trkpt>
      <trkpt lat="44.62791" lon="2.9455">
        <ele>1138</ele>
        <time>2013-07-21T13:28:19Z</time>
      </trkpt>
      <trkpt lat="44.62786" lon="2.94559">
        <ele>1148</ele>
        <time>2013-07-21T13:29:13Z</time>
      </trkpt>
      <trkpt lat="44.62793" lon="2.94565">
        <ele>1149</ele>
        <time>2013-07-21T13:30:15Z</time>
      </trkpt>
      <trkpt lat="44.62788" lon="2.9458">
        <ele>1150</ele>
        <time>2013-07-21T13:30:28Z</time>
      </trkpt>
      <trkpt lat="44.62785" lon="2.94592">
        <ele>1148</ele>
        <time>2013-07-21T13:30:35Z</time>
      </trkpt>
      <trkpt lat="44.62778" lon="2.94607">
        <ele>1146</ele>
        <time>2013-07-21T13:30:48Z</time>
      </trkpt>
      <trkpt lat="44.62774" lon="2.9462">
        <ele>1146</ele>
        <time>2013-07-21T13:31:00Z</time>
      </trkpt>
      <trkpt lat="44.62773" lon="2.94635">
        <ele>1149</ele>
        <time>2013-07-21T13:31:23Z</time>
      </trkpt>
      <trkpt lat="44.62771" lon="2.94648">
        <ele>1147</ele>
        <time>2013-07-21T13:31:31Z</time>
      </trkpt>
      <trkpt lat="44.62766" lon="2.94668">
        <ele>1146</ele>
        <time>2013-07-21T13:31:49Z</time>
      </trkpt>
      <trkpt lat="44.62762" lon="2.9468">
        <ele>1143</ele>
        <time>2013-07-21T13:31:56Z</time>
      </trkpt>
      <trkpt lat="44.62762" lon="2.94693">
        <ele>1140</ele>
        <time>2013-07-21T13:32:03Z</time>
      </trkpt>
      <trkpt lat="44.6276" lon="2.94706">
        <ele>1136</ele>
        <time>2013-07-21T13:32:09Z</time>
      </trkpt>
      <trkpt lat="44.62758" lon="2.94719">
        <ele>1134</ele>
        <time>2013-07-21T13:32:16Z</time>
      </trkpt>
      <trkpt lat="44.62755" lon="2.94732">
        <ele>1136</ele>
        <time>2013-07-21T13:32:23Z</time>
      </trkpt>
      <trkpt lat="44.62751" lon="2.94747">
        <ele>1138</ele>
        <time>2013-07-21T13:32:32Z</time>
      </trkpt>
      <trkpt lat="44.62748" lon="2.94766">
        <ele>1141</ele>
        <time>2013-07-21T13:32:48Z</time>
      </trkpt>
      <trkpt lat="44.62744" lon="2.94777">
        <ele>1145</ele>
        <time>2013-07-21T13:33:07Z</time>
      </trkpt>
      <trkpt lat="44.62741" lon="2.9479">
        <ele>1144</ele>
        <time>2013-07-21T13:33:16Z</time>
      </trkpt>
      <trkpt lat="44.62738" lon="2.94808">
        <ele>1143</ele>
        <time>2013-07-21T13:33:24Z</time>
      </trkpt>
      <trkpt lat="44.62736" lon="2.94822">
        <ele>1143</ele>
        <time>2013-07-21T13:33:31Z</time>
      </trkpt>
      <trkpt lat="44.62735" lon="2.94836">
        <ele>1144</ele>
        <time>2013-07-21T13:33:38Z</time>
      </trkpt>
      <trkpt lat="44.62738" lon="2.94848">
        <ele>1145</ele>
        <time>2013-07-21T13:33:48Z</time>
      </trkpt>
      <trkpt lat="44.62743" lon="2.9486">
        <ele>1148</ele>
        <time>2013-07-21T13:33:56Z</time>
      </trkpt>
      <trkpt lat="44.62748" lon="2.94871">
        <ele>1148</ele>
        <time>2013-07-21T13:34:06Z</time>
      </trkpt>
      <trkpt lat="44.62747" lon="2.94884">
        <ele>1147</ele>
        <time>2013-07-21T13:34:12Z</time>
      </trkpt>
      <trkpt lat="44.62743" lon="2.94899">
        <ele>1148</ele>
        <time>2013-07-21T13:34:23Z</time>
      </trkpt>
      <trkpt lat="44.62745" lon="2.94912">
        <ele>1150</ele>
        <time>2013-07-21T13:34:31Z</time>
      </trkpt>
      <trkpt lat="44.62748" lon="2.94925">
        <ele>1151</ele>
        <time>2013-07-21T13:34:38Z</time>
      </trkpt>
      <trkpt lat="44.62749" lon="2.94939">
        <ele>1152</ele>
        <time>2013-07-21T13:34:45Z</time>
      </trkpt>
      <trkpt lat="44.62749" lon="2.94951">
        <ele>1153</ele>
        <time>2013-07-21T13:34:52Z</time>
      </trkpt>
      <trkpt lat="44.62749" lon="2.94966">
        <ele>1154</ele>
        <time>2013-07-21T13:34:58Z</time>
      </trkpt>
      <trkpt lat="44.62752" lon="2.94979">
        <ele>1154</ele>
        <time>2013-07-21T13:35:05Z</time>
      </trkpt>
      <trkpt lat="44.62753" lon="2.94991">
        <ele>1154</ele>
        <time>2013-07-21T13:35:12Z</time>
      </trkpt>
      <trkpt lat="44.62753" lon="2.95005">
        <ele>1154</ele>
        <time>2013-07-21T13:35:19Z</time>
      </trkpt>
      <trkpt lat="44.62753" lon="2.95011">
        <ele>1157</ele>
        <time>2013-07-21T13:35:30Z</time>
      </trkpt>
      <trkpt lat="44.62756" lon="2.95016">
        <ele>1149</ele>
        <time>2013-07-21T13:36:38Z</time>
      </trkpt>
      <trkpt lat="44.6275" lon="2.95024">
        <ele>1149</ele>
        <time>2013-07-21T13:37:35Z</time>
      </trkpt>
      <trkpt lat="44.62751" lon="2.95038">
        <ele>1161</ele>
        <time>2013-07-21T13:38:10Z</time>
      </trkpt>
      <trkpt lat="44.62741" lon="2.95054">
        <ele>1167</ele>
        <time>2013-07-21T13:38:28Z</time>
      </trkpt>
      <trkpt lat="44.62732" lon="2.95059">
        <ele>1164</ele>
        <time>2013-07-21T13:38:32Z</time>
      </trkpt>
      <trkpt lat="44.62714" lon="2.95075">
        <ele>1151</ele>
        <time>2013-07-21T13:38:50Z</time>
      </trkpt>
      <trkpt lat="44.62704" lon="2.95076">
        <ele>1148</ele>
        <time>2013-07-21T13:38:55Z</time>
      </trkpt>
      <trkpt lat="44.62695" lon="2.95079">
        <ele>1144</ele>
        <time>2013-07-21T13:39:02Z</time>
      </trkpt>
      <trkpt lat="44.62686" lon="2.95088">
        <ele>1139</ele>
        <time>2013-07-21T13:39:12Z</time>
      </trkpt>
      <trkpt lat="44.62678" lon="2.95097">
        <ele>1138</ele>
        <time>2013-07-21T13:39:21Z</time>
      </trkpt>
      <trkpt lat="44.62669" lon="2.95105">
        <ele>1135</ele>
        <time>2013-07-21T13:39:27Z</time>
      </trkpt>
      <trkpt lat="44.62661" lon="2.95116">
        <ele>1132</ele>
        <time>2013-07-21T13:39:34Z</time>
      </trkpt>
      <trkpt lat="44.62655" lon="2.95126">
        <ele>1129</ele>
        <time>2013-07-21T13:39:42Z</time>
      </trkpt>
      <trkpt lat="44.62646" lon="2.95134">
        <ele>1126</ele>
        <time>2013-07-21T13:39:49Z</time>
      </trkpt>
      <trkpt lat="44.62637" lon="2.95139">
        <ele>1125</ele>
        <time>2013-07-21T13:39:55Z</time>
      </trkpt>
      <trkpt lat="44.62628" lon="2.9514">
        <ele>1127</ele>
        <time>2013-07-21T13:40:01Z</time>
      </trkpt>
      <trkpt lat="44.6257" lon="2.95156">
        <ele>1149</ele>
        <time>2013-07-21T13:40:36Z</time>
      </trkpt>
      <trkpt lat="44.6256" lon="2.95167">
        <ele>1151</ele>
        <time>2013-07-21T13:40:40Z</time>
      </trkpt>
      <trkpt lat="44.62553" lon="2.95181">
        <ele>1152</ele>
        <time>2013-07-21T13:40:43Z</time>
      </trkpt>
      <trkpt lat="44.62548" lon="2.95192">
        <ele>1153</ele>
        <time>2013-07-21T13:40:45Z</time>
      </trkpt>
      <trkpt lat="44.62544" lon="2.95209">
        <ele>1154</ele>
        <time>2013-07-21T13:40:48Z</time>
      </trkpt>
      <trkpt lat="44.62542" lon="2.95223">
        <ele>1155</ele>
        <time>2013-07-21T13:40:51Z</time>
      </trkpt>
      <trkpt lat="44.62539" lon="2.95238">
        <ele>1157</ele>
        <time>2013-07-21T13:40:54Z</time>
      </trkpt>
      <trkpt lat="44.62536" lon="2.95254">
        <ele>1158</ele>
        <time>2013-07-21T13:40:57Z</time>
      </trkpt>
      <trkpt lat="44.62532" lon="2.95269">
        <ele>1159</ele>
        <time>2013-07-21T13:41:00Z</time>
      </trkpt>
      <trkpt lat="44.62528" lon="2.95284">
        <ele>1159</ele>
        <time>2013-07-21T13:41:04Z</time>
      </trkpt>
      <trkpt lat="44.62524" lon="2.95296">
        <ele>1159</ele>
        <time>2013-07-21T13:41:07Z</time>
      </trkpt>
      <trkpt lat="44.62522" lon="2.9531">
        <ele>1160</ele>
        <time>2013-07-21T13:41:10Z</time>
      </trkpt>
      <trkpt lat="44.62522" lon="2.95323">
        <ele>1161</ele>
        <time>2013-07-21T13:41:13Z</time>
      </trkpt>
      <trkpt lat="44.62521" lon="2.95338">
        <ele>1162</ele>
        <time>2013-07-21T13:41:17Z</time>
      </trkpt>
      <trkpt lat="44.6252" lon="2.95351">
        <ele>1164</ele>
        <time>2013-07-21T13:41:22Z</time>
      </trkpt>
      <trkpt lat="44.6252" lon="2.95366">
        <ele>1164</ele>
        <time>2013-07-21T13:41:25Z</time>
      </trkpt>
      <trkpt lat="44.62522" lon="2.95381">
        <ele>1165</ele>
        <time>2013-07-21T13:41:28Z</time>
      </trkpt>
      <trkpt lat="44.62521" lon="2.95396">
        <ele>1165</ele>
        <time>2013-07-21T13:41:31Z</time>
      </trkpt>
      <trkpt lat="44.62523" lon="2.9541">
        <ele>1166</ele>
        <time>2013-07-21T13:41:34Z</time>
      </trkpt>
      <trkpt lat="44.62524" lon="2.95423">
        <ele>1166</ele>
        <time>2013-07-21T13:41:37Z</time>
      </trkpt>
      <trkpt lat="44.62522" lon="2.9544">
        <ele>1166</ele>
        <time>2013-07-21T13:41:40Z</time>
      </trkpt>
      <trkpt lat="44.62523" lon="2.95454">
        <ele>1166</ele>
        <time>2013-07-21T13:41:42Z</time>
      </trkpt>
      <trkpt lat="44.62524" lon="2.95471">
        <ele>1166</ele>
        <time>2013-07-21T13:41:45Z</time>
      </trkpt>
      <trkpt lat="44.62521" lon="2.95488">
        <ele>1166</ele>
        <time>2013-07-21T13:41:49Z</time>
      </trkpt>
      <trkpt lat="44.6252" lon="2.95502">
        <ele>1166</ele>
        <time>2013-07-21T13:41:52Z</time>
      </trkpt>
      <trkpt lat="44.62519" lon="2.95514">
        <ele>1165</ele>
        <time>2013-07-21T13:41:59Z</time>
      </trkpt>
      <trkpt lat="44.62514" lon="2.95529">
        <ele>1165</ele>
        <time>2013-07-21T13:42:02Z</time>
      </trkpt>
      <trkpt lat="44.62511" lon="2.95537">
        <ele>1168</ele>
        <time>2013-07-21T13:42:16Z</time>
      </trkpt>
      <trkpt lat="44.6251" lon="2.95544">
        <ele>1164</ele>
        <time>2013-07-21T13:43:16Z</time>
      </trkpt>
      <trkpt lat="44.62507" lon="2.95558">
        <ele>1162</ele>
        <time>2013-07-21T13:43:25Z</time>
      </trkpt>
      <trkpt lat="44.62504" lon="2.95572">
        <ele>1160</ele>
        <time>2013-07-21T13:43:33Z</time>
      </trkpt>
      <trkpt lat="44.62506" lon="2.95585">
        <ele>1159</ele>
        <time>2013-07-21T13:43:41Z</time>
      </trkpt>
      <trkpt lat="44.62511" lon="2.95598">
        <ele>1161</ele>
        <time>2013-07-21T13:43:50Z</time>
      </trkpt>
      <trkpt lat="44.62514" lon="2.95611">
        <ele>1162</ele>
        <time>2013-07-21T13:43:59Z</time>
      </trkpt>
      <trkpt lat="44.62518" lon="2.95624">
        <ele>1163</ele>
        <time>2013-07-21T13:44:04Z</time>
      </trkpt>
      <trkpt lat="44.6252" lon="2.95637">
        <ele>1164</ele>
        <time>2013-07-21T13:44:12Z</time>
      </trkpt>
      <trkpt lat="44.6252" lon="2.9565">
        <ele>1165</ele>
        <time>2013-07-21T13:44:19Z</time>
      </trkpt>
      <trkpt lat="44.62523" lon="2.95663">
        <ele>1166</ele>
        <time>2013-07-21T13:44:26Z</time>
      </trkpt>
      <trkpt lat="44.62521" lon="2.95676">
        <ele>1168</ele>
        <time>2013-07-21T13:44:32Z</time>
      </trkpt>
      <trkpt lat="44.62517" lon="2.95692">
        <ele>1170</ele>
        <time>2013-07-21T13:44:44Z</time>
      </trkpt>
      <trkpt lat="44.62513" lon="2.95704">
        <ele>1171</ele>
        <time>2013-07-21T13:44:50Z</time>
      </trkpt>
      <trkpt lat="44.62509" lon="2.95714">
        <ele>1173</ele>
        <time>2013-07-21T13:44:56Z</time>
      </trkpt>
      <trkpt lat="44.62505" lon="2.95719">
        <ele>1173</ele>
        <time>2013-07-21T13:45:00Z</time>
      </trkpt>
      <trkpt lat="44.62498" lon="2.95725">
        <ele>1175</ele>
        <time>2013-07-21T13:45:07Z</time>
      </trkpt>
      <trkpt lat="44.6249" lon="2.9573">
        <ele>1175</ele>
        <time>2013-07-21T13:45:14Z</time>
      </trkpt>
      <trkpt lat="44.62478" lon="2.95735">
        <ele>1176</ele>
        <time>2013-07-21T13:45:30Z</time>
      </trkpt>
      <trkpt lat="44.62469" lon="2.95731">
        <ele>1178</ele>
        <time>2013-07-21T13:45:42Z</time>
      </trkpt>
      <trkpt lat="44.62458" lon="2.95725">
        <ele>1179</ele>
        <time>2013-07-21T13:45:48Z</time>
      </trkpt>
      <trkpt lat="44.62448" lon="2.95721">
        <ele>1179</ele>
        <time>2013-07-21T13:45:54Z</time>
      </trkpt>
      <trkpt lat="44.6244" lon="2.95716">
        <ele>1179</ele>
        <time>2013-07-21T13:46:04Z</time>
      </trkpt>
      <trkpt lat="44.62431" lon="2.95712">
        <ele>1179</ele>
        <time>2013-07-21T13:46:12Z</time>
      </trkpt>
      <trkpt lat="44.62417" lon="2.95708">
        <ele>1184</ele>
        <time>2013-07-21T13:46:25Z</time>
      </trkpt>
      <trkpt lat="44.62405" lon="2.95707">
        <ele>1187</ele>
        <time>2013-07-21T13:46:33Z</time>
      </trkpt>
      <trkpt lat="44.62396" lon="2.95703">
        <ele>1188</ele>
        <time>2013-07-21T13:46:41Z</time>
      </trkpt>
      <trkpt lat="44.62386" lon="2.95699">
        <ele>1191</ele>
        <time>2013-07-21T13:46:51Z</time>
      </trkpt>
      <trkpt lat="44.62375" lon="2.95695">
        <ele>1192</ele>
        <time>2013-07-21T13:47:02Z</time>
      </trkpt>
      <trkpt lat="44.62367" lon="2.95691">
        <ele>1192</ele>
        <time>2013-07-21T13:47:08Z</time>
      </trkpt>
      <trkpt lat="44.62355" lon="2.95686">
        <ele>1191</ele>
        <time>2013-07-21T13:47:17Z</time>
      </trkpt>
      <trkpt lat="44.62347" lon="2.95682">
        <ele>1192</ele>
        <time>2013-07-21T13:47:25Z</time>
      </trkpt>
      <trkpt lat="44.62337" lon="2.9568">
        <ele>1194</ele>
        <time>2013-07-21T13:47:32Z</time>
      </trkpt>
      <trkpt lat="44.62325" lon="2.95671">
        <ele>1200</ele>
        <time>2013-07-21T13:47:47Z</time>
      </trkpt>
      <trkpt lat="44.62315" lon="2.95664">
        <ele>1204</ele>
        <time>2013-07-21T13:47:58Z</time>
      </trkpt>
      <trkpt lat="44.6231" lon="2.95647">
        <ele>1206</ele>
        <time>2013-07-21T13:48:13Z</time>
      </trkpt>
      <trkpt lat="44.62302" lon="2.9564">
        <ele>1207</ele>
        <time>2013-07-21T13:48:19Z</time>
      </trkpt>
      <trkpt lat="44.62295" lon="2.95626">
        <ele>1208</ele>
        <time>2013-07-21T13:48:28Z</time>
      </trkpt>
      <trkpt lat="44.62289" lon="2.95614">
        <ele>1209</ele>
        <time>2013-07-21T13:48:33Z</time>
      </trkpt>
      <trkpt lat="44.62285" lon="2.95602">
        <ele>1211</ele>
        <time>2013-07-21T13:48:39Z</time>
      </trkpt>
      <trkpt lat="44.62278" lon="2.95592">
        <ele>1209</ele>
        <time>2013-07-21T13:48:45Z</time>
      </trkpt>
      <trkpt lat="44.62273" lon="2.95581">
        <ele>1208</ele>
        <time>2013-07-21T13:48:52Z</time>
      </trkpt>
      <trkpt lat="44.62266" lon="2.95573">
        <ele>1209</ele>
        <time>2013-07-21T13:48:59Z</time>
      </trkpt>
      <trkpt lat="44.62259" lon="2.95563">
        <ele>1209</ele>
        <time>2013-07-21T13:49:08Z</time>
      </trkpt>
      <trkpt lat="44.62253" lon="2.95553">
        <ele>1212</ele>
        <time>2013-07-21T13:49:19Z</time>
      </trkpt>
      <trkpt lat="44.62249" lon="2.9554">
        <ele>1212</ele>
        <time>2013-07-21T13:49:24Z</time>
      </trkpt>
      <trkpt lat="44.62247" lon="2.95526">
        <ele>1214</ele>
        <time>2013-07-21T13:49:31Z</time>
      </trkpt>
      <trkpt lat="44.62243" lon="2.95514">
        <ele>1214</ele>
        <time>2013-07-21T13:49:39Z</time>
      </trkpt>
      <trkpt lat="44.62237" lon="2.95504">
        <ele>1215</ele>
        <time>2013-07-21T13:49:49Z</time>
      </trkpt>
      <trkpt lat="44.62232" lon="2.95496">
        <ele>1214</ele>
        <time>2013-07-21T13:49:55Z</time>
      </trkpt>
      <trkpt lat="44.62224" lon="2.95485">
        <ele>1213</ele>
        <time>2013-07-21T13:50:04Z</time>
      </trkpt>
      <trkpt lat="44.62217" lon="2.95476">
        <ele>1212</ele>
        <time>2013-07-21T13:50:11Z</time>
      </trkpt>
      <trkpt lat="44.62212" lon="2.9547">
        <ele>1211</ele>
        <time>2013-07-21T13:50:15Z</time>
      </trkpt>
      <trkpt lat="44.6221" lon="2.95456">
        <ele>1211</ele>
        <time>2013-07-21T13:50:22Z</time>
      </trkpt>
      <trkpt lat="44.62206" lon="2.95436">
        <ele>1212</ele>
        <time>2013-07-21T13:50:33Z</time>
      </trkpt>
      <trkpt lat="44.62203" lon="2.95427">
        <ele>1214</ele>
        <time>2013-07-21T13:50:39Z</time>
      </trkpt>
      <trkpt lat="44.62197" lon="2.95416">
        <ele>1214</ele>
        <time>2013-07-21T13:50:47Z</time>
      </trkpt>
      <trkpt lat="44.62192" lon="2.95402">
        <ele>1213</ele>
        <time>2013-07-21T13:50:55Z</time>
      </trkpt>
      <trkpt lat="44.62182" lon="2.95403">
        <ele>1212</ele>
        <time>2013-07-21T13:51:04Z</time>
      </trkpt>
      <trkpt lat="44.62174" lon="2.954">
        <ele>1212</ele>
        <time>2013-07-21T13:51:09Z</time>
      </trkpt>
      <trkpt lat="44.6217" lon="2.95397">
        <ele>1212</ele>
        <time>2013-07-21T13:51:14Z</time>
      </trkpt>
      <trkpt lat="44.62161" lon="2.9539">
        <ele>1213</ele>
        <time>2013-07-21T13:51:22Z</time>
      </trkpt>
      <trkpt lat="44.62157" lon="2.95386">
        <ele>1215</ele>
        <time>2013-07-21T13:51:26Z</time>
      </trkpt>
      <trkpt lat="44.62148" lon="2.95379">
        <ele>1218</ele>
        <time>2013-07-21T13:51:32Z</time>
      </trkpt>
      <trkpt lat="44.62141" lon="2.95371">
        <ele>1219</ele>
        <time>2013-07-21T13:51:42Z</time>
      </trkpt>
      <trkpt lat="44.62135" lon="2.95367">
        <ele>1220</ele>
        <time>2013-07-21T13:51:45Z</time>
      </trkpt>
      <trkpt lat="44.62126" lon="2.95366">
        <ele>1219</ele>
        <time>2013-07-21T13:51:51Z</time>
      </trkpt>
      <trkpt lat="44.62116" lon="2.95364">
        <ele>1219</ele>
        <time>2013-07-21T13:52:03Z</time>
      </trkpt>
      <trkpt lat="44.62109" lon="2.95358">
        <ele>1219</ele>
        <time>2013-07-21T13:52:09Z</time>
      </trkpt>
      <trkpt lat="44.62102" lon="2.9535">
        <ele>1218</ele>
        <time>2013-07-21T13:52:16Z</time>
      </trkpt>
      <trkpt lat="44.62094" lon="2.95342">
        <ele>1219</ele>
        <time>2013-07-21T13:52:22Z</time>
      </trkpt>
      <trkpt lat="44.62086" lon="2.95335">
        <ele>1223</ele>
        <time>2013-07-21T13:52:28Z</time>
      </trkpt>
      <trkpt lat="44.62081" lon="2.95325">
        <ele>1226</ele>
        <time>2013-07-21T13:52:34Z</time>
      </trkpt>
      <trkpt lat="44.62076" lon="2.95311">
        <ele>1230</ele>
        <time>2013-07-21T13:52:43Z</time>
      </trkpt>
      <trkpt lat="44.62072" lon="2.95299">
        <ele>1233</ele>
        <time>2013-07-21T13:52:53Z</time>
      </trkpt>
      <trkpt lat="44.62067" lon="2.95288">
        <ele>1234</ele>
        <time>2013-07-21T13:52:59Z</time>
      </trkpt>
      <trkpt lat="44.6206" lon="2.95278">
        <ele>1233</ele>
        <time>2013-07-21T13:53:07Z</time>
      </trkpt>
      <trkpt lat="44.62052" lon="2.95271">
        <ele>1230</ele>
        <time>2013-07-21T13:53:16Z</time>
      </trkpt>
      <trkpt lat="44.62044" lon="2.95258">
        <ele>1228</ele>
        <time>2013-07-21T13:53:27Z</time>
      </trkpt>
      <trkpt lat="44.6204" lon="2.95246">
        <ele>1228</ele>
        <time>2013-07-21T13:53:33Z</time>
      </trkpt>
      <trkpt lat="44.62035" lon="2.95235">
        <ele>1227</ele>
        <time>2013-07-21T13:53:41Z</time>
      </trkpt>
      <trkpt lat="44.62028" lon="2.95226">
        <ele>1226</ele>
        <time>2013-07-21T13:53:45Z</time>
      </trkpt>
      <trkpt lat="44.6202" lon="2.95221">
        <ele>1225</ele>
        <time>2013-07-21T13:53:52Z</time>
      </trkpt>
      <trkpt lat="44.62014" lon="2.9521">
        <ele>1225</ele>
        <time>2013-07-21T13:53:59Z</time>
      </trkpt>
      <trkpt lat="44.6201" lon="2.95202">
        <ele>1226</ele>
        <time>2013-07-21T13:54:05Z</time>
      </trkpt>
      <trkpt lat="44.62001" lon="2.95195">
        <ele>1228</ele>
        <time>2013-07-21T13:54:12Z</time>
      </trkpt>
      <trkpt lat="44.61996" lon="2.95191">
        <ele>1229</ele>
        <time>2013-07-21T13:54:16Z</time>
      </trkpt>
      <trkpt lat="44.61992" lon="2.95188">
        <ele>1230</ele>
        <time>2013-07-21T13:54:19Z</time>
      </trkpt>
      <trkpt lat="44.61986" lon="2.95181">
        <ele>1230</ele>
        <time>2013-07-21T13:54:25Z</time>
      </trkpt>
      <trkpt lat="44.6198" lon="2.95179">
        <ele>1230</ele>
        <time>2013-07-21T13:54:29Z</time>
      </trkpt>
      <trkpt lat="44.61976" lon="2.95176">
        <ele>1230</ele>
        <time>2013-07-21T13:54:32Z</time>
      </trkpt>
      <trkpt lat="44.6197" lon="2.95175">
        <ele>1230</ele>
        <time>2013-07-21T13:54:36Z</time>
      </trkpt>
      <trkpt lat="44.61966" lon="2.95179">
        <ele>1231</ele>
        <time>2013-07-21T13:54:40Z</time>
      </trkpt>
      <trkpt lat="44.61962" lon="2.95184">
        <ele>1232</ele>
        <time>2013-07-21T13:54:44Z</time>
      </trkpt>
      <trkpt lat="44.61959" lon="2.9519">
        <ele>1233</ele>
        <time>2013-07-21T13:54:48Z</time>
      </trkpt>
      <trkpt lat="44.61954" lon="2.95191">
        <ele>1234</ele>
        <time>2013-07-21T13:54:53Z</time>
      </trkpt>
      <trkpt lat="44.61949" lon="2.95195">
        <ele>1236</ele>
        <time>2013-07-21T13:54:58Z</time>
      </trkpt>
      <trkpt lat="44.61946" lon="2.952">
        <ele>1236</ele>
        <time>2013-07-21T13:55:01Z</time>
      </trkpt>
      <trkpt lat="44.61943" lon="2.95206">
        <ele>1236</ele>
        <time>2013-07-21T13:55:04Z</time>
      </trkpt>
      <trkpt lat="44.61935" lon="2.95213">
        <ele>1236</ele>
        <time>2013-07-21T13:55:12Z</time>
      </trkpt>
      <trkpt lat="44.61931" lon="2.95219">
        <ele>1237</ele>
        <time>2013-07-21T13:55:15Z</time>
      </trkpt>
      <trkpt lat="44.61927" lon="2.95222">
        <ele>1238</ele>
        <time>2013-07-21T13:55:19Z</time>
      </trkpt>
      <trkpt lat="44.61918" lon="2.95228">
        <ele>1239</ele>
        <time>2013-07-21T13:55:23Z</time>
      </trkpt>
      <trkpt lat="44.6191" lon="2.95238">
        <ele>1239</ele>
        <time>2013-07-21T13:55:26Z</time>
      </trkpt>
      <trkpt lat="44.61902" lon="2.95248">
        <ele>1238</ele>
        <time>2013-07-21T13:55:29Z</time>
      </trkpt>
      <trkpt lat="44.61892" lon="2.95257">
        <ele>1239</ele>
        <time>2013-07-21T13:55:32Z</time>
      </trkpt>
      <trkpt lat="44.61883" lon="2.95266">
        <ele>1239</ele>
        <time>2013-07-21T13:55:35Z</time>
      </trkpt>
      <trkpt lat="44.61872" lon="2.95276">
        <ele>1240</ele>
        <time>2013-07-21T13:55:38Z</time>
      </trkpt>
      <trkpt lat="44.61862" lon="2.95286">
        <ele>1240</ele>
        <time>2013-07-21T13:55:41Z</time>
      </trkpt>
      <trkpt lat="44.61852" lon="2.95293">
        <ele>1240</ele>
        <time>2013-07-21T13:55:44Z</time>
      </trkpt>
      <trkpt lat="44.61843" lon="2.95299">
        <ele>1241</ele>
        <time>2013-07-21T13:55:47Z</time>
      </trkpt>
      <trkpt lat="44.61833" lon="2.95302">
        <ele>1241</ele>
        <time>2013-07-21T13:55:50Z</time>
      </trkpt>
      <trkpt lat="44.61824" lon="2.95303">
        <ele>1241</ele>
        <time>2013-07-21T13:55:56Z</time>
      </trkpt>
      <trkpt lat="44.61817" lon="2.95304">
        <ele>1240</ele>
        <time>2013-07-21T13:56:00Z</time>
      </trkpt>
      <trkpt lat="44.61811" lon="2.95306">
        <ele>1239</ele>
        <time>2013-07-21T13:56:04Z</time>
      </trkpt>
      <trkpt lat="44.61806" lon="2.95309">
        <ele>1239</ele>
        <time>2013-07-21T13:56:07Z</time>
      </trkpt>
      <trkpt lat="44.61797" lon="2.95313">
        <ele>1238</ele>
        <time>2013-07-21T13:56:12Z</time>
      </trkpt>
      <trkpt lat="44.61788" lon="2.95319">
        <ele>1238</ele>
        <time>2013-07-21T13:56:15Z</time>
      </trkpt>
      <trkpt lat="44.61777" lon="2.95332">
        <ele>1238</ele>
        <time>2013-07-21T13:56:18Z</time>
      </trkpt>
      <trkpt lat="44.61771" lon="2.95342">
        <ele>1238</ele>
        <time>2013-07-21T13:56:20Z</time>
      </trkpt>
      <trkpt lat="44.61763" lon="2.95352">
        <ele>1238</ele>
        <time>2013-07-21T13:56:22Z</time>
      </trkpt>
      <trkpt lat="44.61756" lon="2.95362">
        <ele>1237</ele>
        <time>2013-07-21T13:56:24Z</time>
      </trkpt>
      <trkpt lat="44.61746" lon="2.95374">
        <ele>1237</ele>
        <time>2013-07-21T13:56:26Z</time>
      </trkpt>
      <trkpt lat="44.61738" lon="2.95387">
        <ele>1236</ele>
        <time>2013-07-21T13:56:28Z</time>
      </trkpt>
      <trkpt lat="44.61729" lon="2.95399">
        <ele>1236</ele>
        <time>2013-07-21T13:56:30Z</time>
      </trkpt>
      <trkpt lat="44.6172" lon="2.95411">
        <ele>1236</ele>
        <time>2013-07-21T13:56:32Z</time>
      </trkpt>
      <trkpt lat="44.61712" lon="2.95423">
        <ele>1236</ele>
        <time>2013-07-21T13:56:34Z</time>
      </trkpt>
      <trkpt lat="44.61701" lon="2.95434">
        <ele>1236</ele>
        <time>2013-07-21T13:56:36Z</time>
      </trkpt>
      <trkpt lat="44.61689" lon="2.95443">
        <ele>1236</ele>
        <time>2013-07-21T13:56:38Z</time>
      </trkpt>
      <trkpt lat="44.61677" lon="2.9545">
        <ele>1236</ele>
        <time>2013-07-21T13:56:40Z</time>
      </trkpt>
      <trkpt lat="44.61664" lon="2.95455">
        <ele>1236</ele>
        <time>2013-07-21T13:56:42Z</time>
      </trkpt>
      <trkpt lat="44.61651" lon="2.95459">
        <ele>1235</ele>
        <time>2013-07-21T13:56:44Z</time>
      </trkpt>
      <trkpt lat="44.61639" lon="2.95464">
        <ele>1235</ele>
        <time>2013-07-21T13:56:46Z</time>
      </trkpt>
      <trkpt lat="44.61626" lon="2.95469">
        <ele>1235</ele>
        <time>2013-07-21T13:56:48Z</time>
      </trkpt>
      <trkpt lat="44.61613" lon="2.95475">
        <ele>1235</ele>
        <time>2013-07-21T13:56:50Z</time>
      </trkpt>
      <trkpt lat="44.61601" lon="2.9548">
        <ele>1234</ele>
        <time>2013-07-21T13:56:52Z</time>
      </trkpt>
      <trkpt lat="44.61591" lon="2.95485">
        <ele>1235</ele>
        <time>2013-07-21T13:56:54Z</time>
      </trkpt>
      <trkpt lat="44.6158" lon="2.95491">
        <ele>1234</ele>
        <time>2013-07-21T13:56:56Z</time>
      </trkpt>
      <trkpt lat="44.6157" lon="2.95495">
        <ele>1233</ele>
        <time>2013-07-21T13:56:58Z</time>
      </trkpt>
      <trkpt lat="44.61558" lon="2.955">
        <ele>1233</ele>
        <time>2013-07-21T13:57:01Z</time>
      </trkpt>
      <trkpt lat="44.61547" lon="2.95505">
        <ele>1233</ele>
        <time>2013-07-21T13:57:04Z</time>
      </trkpt>
      <trkpt lat="44.61537" lon="2.9551">
        <ele>1233</ele>
        <time>2013-07-21T13:57:07Z</time>
      </trkpt>
      <trkpt lat="44.61528" lon="2.95515">
        <ele>1232</ele>
        <time>2013-07-21T13:57:10Z</time>
      </trkpt>
      <trkpt lat="44.61517" lon="2.95522">
        <ele>1231</ele>
        <time>2013-07-21T13:57:14Z</time>
      </trkpt>
      <trkpt lat="44.61508" lon="2.95526">
        <ele>1231</ele>
        <time>2013-07-21T13:57:16Z</time>
      </trkpt>
      <trkpt lat="44.61497" lon="2.95532">
        <ele>1230</ele>
        <time>2013-07-21T13:57:18Z</time>
      </trkpt>
      <trkpt lat="44.61485" lon="2.95538">
        <ele>1229</ele>
        <time>2013-07-21T13:57:20Z</time>
      </trkpt>
      <trkpt lat="44.61473" lon="2.95544">
        <ele>1229</ele>
        <time>2013-07-21T13:57:22Z</time>
      </trkpt>
      <trkpt lat="44.61462" lon="2.9555">
        <ele>1229</ele>
        <time>2013-07-21T13:57:24Z</time>
      </trkpt>
      <trkpt lat="44.61451" lon="2.95555">
        <ele>1229</ele>
        <time>2013-07-21T13:57:26Z</time>
      </trkpt>
      <trkpt lat="44.6144" lon="2.95561">
        <ele>1229</ele>
        <time>2013-07-21T13:57:28Z</time>
      </trkpt>
      <trkpt lat="44.61428" lon="2.95566">
        <ele>1228</ele>
        <time>2013-07-21T13:57:30Z</time>
      </trkpt>
      <trkpt lat="44.61414" lon="2.95573">
        <ele>1228</ele>
        <time>2013-07-21T13:57:32Z</time>
      </trkpt>
      <trkpt lat="44.61401" lon="2.95582">
        <ele>1229</ele>
        <time>2013-07-21T13:57:34Z</time>
      </trkpt>
      <trkpt lat="44.61387" lon="2.95588">
        <ele>1228</ele>
        <time>2013-07-21T13:57:36Z</time>
      </trkpt>
      <trkpt lat="44.61376" lon="2.95594">
        <ele>1227</ele>
        <time>2013-07-21T13:57:38Z</time>
      </trkpt>
      <trkpt lat="44.61367" lon="2.95598">
        <ele>1227</ele>
        <time>2013-07-21T13:57:40Z</time>
      </trkpt>
      <trkpt lat="44.61358" lon="2.95602">
        <ele>1227</ele>
        <time>2013-07-21T13:57:42Z</time>
      </trkpt>
      <trkpt lat="44.61349" lon="2.95606">
        <ele>1227</ele>
        <time>2013-07-21T13:57:44Z</time>
      </trkpt>
      <trkpt lat="44.61339" lon="2.95612">
        <ele>1227</ele>
        <time>2013-07-21T13:57:46Z</time>
      </trkpt>
      <trkpt lat="44.6133" lon="2.95619">
        <ele>1227</ele>
        <time>2013-07-21T13:57:48Z</time>
      </trkpt>
      <trkpt lat="44.61319" lon="2.95626">
        <ele>1227</ele>
        <time>2013-07-21T13:57:51Z</time>
      </trkpt>
      <trkpt lat="44.61311" lon="2.95632">
        <ele>1227</ele>
        <time>2013-07-21T13:57:54Z</time>
      </trkpt>
      <trkpt lat="44.61302" lon="2.95639">
        <ele>1227</ele>
        <time>2013-07-21T13:57:57Z</time>
      </trkpt>
      <trkpt lat="44.61294" lon="2.95645">
        <ele>1228</ele>
        <time>2013-07-21T13:58:01Z</time>
      </trkpt>
      <trkpt lat="44.61284" lon="2.95649">
        <ele>1228</ele>
        <time>2013-07-21T13:58:07Z</time>
      </trkpt>
      <trkpt lat="44.61275" lon="2.95651">
        <ele>1228</ele>
        <time>2013-07-21T13:58:13Z</time>
      </trkpt>
      <trkpt lat="44.6127" lon="2.95651">
        <ele>1228</ele>
        <time>2013-07-21T13:58:16Z</time>
      </trkpt>
      <trkpt lat="44.61265" lon="2.95651">
        <ele>1228</ele>
        <time>2013-07-21T13:58:19Z</time>
      </trkpt>
      <trkpt lat="44.6126" lon="2.95652">
        <ele>1228</ele>
        <time>2013-07-21T13:58:23Z</time>
      </trkpt>
      <trkpt lat="44.61255" lon="2.95652">
        <ele>1228</ele>
        <time>2013-07-21T13:58:26Z</time>
      </trkpt>
      <trkpt lat="44.6125" lon="2.95653">
        <ele>1227</ele>
        <time>2013-07-21T13:58:30Z</time>
      </trkpt>
      <trkpt lat="44.61241" lon="2.95656">
        <ele>1228</ele>
        <time>2013-07-21T13:58:37Z</time>
      </trkpt>
      <trkpt lat="44.61229" lon="2.95661">
        <ele>1227</ele>
        <time>2013-07-21T13:58:45Z</time>
      </trkpt>
      <trkpt lat="44.61221" lon="2.95661">
        <ele>1226</ele>
        <time>2013-07-21T13:58:51Z</time>
      </trkpt>
      <trkpt lat="44.61216" lon="2.95662">
        <ele>1226</ele>
        <time>2013-07-21T13:58:54Z</time>
      </trkpt>
      <trkpt lat="44.61212" lon="2.95663">
        <ele>1226</ele>
        <time>2013-07-21T13:58:57Z</time>
      </trkpt>
      <trkpt lat="44.61206" lon="2.95664">
        <ele>1225</ele>
        <time>2013-07-21T13:59:01Z</time>
      </trkpt>
      <trkpt lat="44.61201" lon="2.95665">
        <ele>1224</ele>
        <time>2013-07-21T13:59:05Z</time>
      </trkpt>
      <trkpt lat="44.61196" lon="2.95666">
        <ele>1224</ele>
        <time>2013-07-21T13:59:08Z</time>
      </trkpt>
      <trkpt lat="44.61191" lon="2.95667">
        <ele>1224</ele>
        <time>2013-07-21T13:59:12Z</time>
      </trkpt>
      <trkpt lat="44.61186" lon="2.95668">
        <ele>1224</ele>
        <time>2013-07-21T13:59:16Z</time>
      </trkpt>
      <trkpt lat="44.6118" lon="2.95669">
        <ele>1223</ele>
        <time>2013-07-21T13:59:20Z</time>
      </trkpt>
      <trkpt lat="44.6117" lon="2.95674">
        <ele>1222</ele>
        <time>2013-07-21T13:59:29Z</time>
      </trkpt>
      <trkpt lat="44.61161" lon="2.95676">
        <ele>1222</ele>
        <time>2013-07-21T13:59:35Z</time>
      </trkpt>
      <trkpt lat="44.61155" lon="2.95676">
        <ele>1221</ele>
        <time>2013-07-21T13:59:39Z</time>
      </trkpt>
      <trkpt lat="44.6115" lon="2.95677">
        <ele>1222</ele>
        <time>2013-07-21T13:59:42Z</time>
      </trkpt>
      <trkpt lat="44.61145" lon="2.95679">
        <ele>1222</ele>
        <time>2013-07-21T13:59:45Z</time>
      </trkpt>
      <trkpt lat="44.6114" lon="2.95681">
        <ele>1222</ele>
        <time>2013-07-21T13:59:49Z</time>
      </trkpt>
      <trkpt lat="44.61135" lon="2.95683">
        <ele>1222</ele>
        <time>2013-07-21T13:59:53Z</time>
      </trkpt>
      <trkpt lat="44.61131" lon="2.95685">
        <ele>1221</ele>
        <time>2013-07-21T13:59:56Z</time>
      </trkpt>
      <trkpt lat="44.61126" lon="2.95689">
        <ele>1221</ele>
        <time>2013-07-21T14:00:00Z</time>
      </trkpt>
      <trkpt lat="44.61121" lon="2.95693">
        <ele>1220</ele>
        <time>2013-07-21T14:00:04Z</time>
      </trkpt>
      <trkpt lat="44.61116" lon="2.95697">
        <ele>1220</ele>
        <time>2013-07-21T14:00:08Z</time>
      </trkpt>
      <trkpt lat="44.61112" lon="2.95701">
        <ele>1221</ele>
        <time>2013-07-21T14:00:13Z</time>
      </trkpt>
      <trkpt lat="44.61109" lon="2.95707">
        <ele>1221</ele>
        <time>2013-07-21T14:00:17Z</time>
      </trkpt>
      <trkpt lat="44.61106" lon="2.95714">
        <ele>1220</ele>
        <time>2013-07-21T14:00:21Z</time>
      </trkpt>
      <trkpt lat="44.61103" lon="2.9572">
        <ele>1220</ele>
        <time>2013-07-21T14:00:25Z</time>
      </trkpt>
      <trkpt lat="44.61102" lon="2.95726">
        <ele>1220</ele>
        <time>2013-07-21T14:00:29Z</time>
      </trkpt>
      <trkpt lat="44.61101" lon="2.95735">
        <ele>1219</ele>
        <time>2013-07-21T14:00:34Z</time>
      </trkpt>
      <trkpt lat="44.61101" lon="2.95743">
        <ele>1219</ele>
        <time>2013-07-21T14:00:37Z</time>
      </trkpt>
      <trkpt lat="44.61101" lon="2.9575">
        <ele>1219</ele>
        <time>2013-07-21T14:00:40Z</time>
      </trkpt>
      <trkpt lat="44.61102" lon="2.95761">
        <ele>1220</ele>
        <time>2013-07-21T14:00:49Z</time>
      </trkpt>
      <trkpt lat="44.61101" lon="2.95767">
        <ele>1219</ele>
        <time>2013-07-21T14:00:53Z</time>
      </trkpt>
      <trkpt lat="44.611" lon="2.95774">
        <ele>1218</ele>
        <time>2013-07-21T14:00:57Z</time>
      </trkpt>
      <trkpt lat="44.61098" lon="2.9578">
        <ele>1218</ele>
        <time>2013-07-21T14:01:00Z</time>
      </trkpt>
      <trkpt lat="44.61095" lon="2.95786">
        <ele>1218</ele>
        <time>2013-07-21T14:01:05Z</time>
      </trkpt>
      <trkpt lat="44.61091" lon="2.9579">
        <ele>1218</ele>
        <time>2013-07-21T14:01:09Z</time>
      </trkpt>
      <trkpt lat="44.61086" lon="2.95794">
        <ele>1218</ele>
        <time>2013-07-21T14:01:13Z</time>
      </trkpt>
      <trkpt lat="44.61081" lon="2.95795">
        <ele>1218</ele>
        <time>2013-07-21T14:01:16Z</time>
      </trkpt>
      <trkpt lat="44.61076" lon="2.95798">
        <ele>1217</ele>
        <time>2013-07-21T14:01:20Z</time>
      </trkpt>
      <trkpt lat="44.6107" lon="2.958">
        <ele>1217</ele>
        <time>2013-07-21T14:01:24Z</time>
      </trkpt>
      <trkpt lat="44.61065" lon="2.95801">
        <ele>1217</ele>
        <time>2013-07-21T14:01:27Z</time>
      </trkpt>
      <trkpt lat="44.6106" lon="2.95804">
        <ele>1217</ele>
        <time>2013-07-21T14:01:31Z</time>
      </trkpt>
      <trkpt lat="44.61054" lon="2.95806">
        <ele>1216</ele>
        <time>2013-07-21T14:01:35Z</time>
      </trkpt>
      <trkpt lat="44.61047" lon="2.95811">
        <ele>1215</ele>
        <time>2013-07-21T14:01:40Z</time>
      </trkpt>
      <trkpt lat="44.61043" lon="2.95815">
        <ele>1215</ele>
        <time>2013-07-21T14:01:44Z</time>
      </trkpt>
      <trkpt lat="44.61038" lon="2.9582">
        <ele>1213</ele>
        <time>2013-07-21T14:01:48Z</time>
      </trkpt>
      <trkpt lat="44.61033" lon="2.95823">
        <ele>1213</ele>
        <time>2013-07-21T14:01:52Z</time>
      </trkpt>
      <trkpt lat="44.61029" lon="2.95825">
        <ele>1213</ele>
        <time>2013-07-21T14:01:56Z</time>
      </trkpt>
      <trkpt lat="44.61024" lon="2.95829">
        <ele>1212</ele>
        <time>2013-07-21T14:02:00Z</time>
      </trkpt>
      <trkpt lat="44.6102" lon="2.95834">
        <ele>1211</ele>
        <time>2013-07-21T14:02:04Z</time>
      </trkpt>
      <trkpt lat="44.61016" lon="2.95839">
        <ele>1210</ele>
        <time>2013-07-21T14:02:08Z</time>
      </trkpt>
      <trkpt lat="44.61013" lon="2.95844">
        <ele>1210</ele>
        <time>2013-07-21T14:02:11Z</time>
      </trkpt>
      <trkpt lat="44.61009" lon="2.9585">
        <ele>1210</ele>
        <time>2013-07-21T14:02:15Z</time>
      </trkpt>
      <trkpt lat="44.61005" lon="2.95854">
        <ele>1210</ele>
        <time>2013-07-21T14:02:18Z</time>
      </trkpt>
      <trkpt lat="44.60999" lon="2.95866">
        <ele>1210</ele>
        <time>2013-07-21T14:02:25Z</time>
      </trkpt>
      <trkpt lat="44.60994" lon="2.95872">
        <ele>1209</ele>
        <time>2013-07-21T14:02:29Z</time>
      </trkpt>
      <trkpt lat="44.60991" lon="2.95877">
        <ele>1209</ele>
        <time>2013-07-21T14:02:32Z</time>
      </trkpt>
      <trkpt lat="44.60987" lon="2.95882">
        <ele>1208</ele>
        <time>2013-07-21T14:02:36Z</time>
      </trkpt>
      <trkpt lat="44.60983" lon="2.95886">
        <ele>1207</ele>
        <time>2013-07-21T14:02:39Z</time>
      </trkpt>
      <trkpt lat="44.60979" lon="2.95891">
        <ele>1207</ele>
        <time>2013-07-21T14:02:43Z</time>
      </trkpt>
      <trkpt lat="44.60975" lon="2.95895">
        <ele>1207</ele>
        <time>2013-07-21T14:02:46Z</time>
      </trkpt>
      <trkpt lat="44.60971" lon="2.95898">
        <ele>1207</ele>
        <time>2013-07-21T14:02:50Z</time>
      </trkpt>
      <trkpt lat="44.60966" lon="2.95903">
        <ele>1207</ele>
        <time>2013-07-21T14:02:54Z</time>
      </trkpt>
      <trkpt lat="44.60961" lon="2.95908">
        <ele>1207</ele>
        <time>2013-07-21T14:02:58Z</time>
      </trkpt>
      <trkpt lat="44.60954" lon="2.95918">
        <ele>1208</ele>
        <time>2013-07-21T14:03:07Z</time>
      </trkpt>
      <trkpt lat="44.60948" lon="2.95927">
        <ele>1209</ele>
        <time>2013-07-21T14:03:12Z</time>
      </trkpt>
      <trkpt lat="44.6094" lon="2.95936">
        <ele>1208</ele>
        <time>2013-07-21T14:03:18Z</time>
      </trkpt>
      <trkpt lat="44.60931" lon="2.95942">
        <ele>1207</ele>
        <time>2013-07-21T14:03:26Z</time>
      </trkpt>
      <trkpt lat="44.6092" lon="2.95938">
        <ele>1205</ele>
        <time>2013-07-21T14:03:42Z</time>
      </trkpt>
      <trkpt lat="44.60911" lon="2.95936">
        <ele>1203</ele>
        <time>2013-07-21T14:03:49Z</time>
      </trkpt>
      <trkpt lat="44.60903" lon="2.95927">
        <ele>1203</ele>
        <time>2013-07-21T14:03:57Z</time>
      </trkpt>
      <trkpt lat="44.609" lon="2.95921">
        <ele>1203</ele>
        <time>2013-07-21T14:04:01Z</time>
      </trkpt>
      <trkpt lat="44.60892" lon="2.95911">
        <ele>1203</ele>
        <time>2013-07-21T14:04:12Z</time>
      </trkpt>
      <trkpt lat="44.60888" lon="2.95907">
        <ele>1203</ele>
        <time>2013-07-21T14:04:14Z</time>
      </trkpt>
      <trkpt lat="44.60884" lon="2.95902">
        <ele>1202</ele>
        <time>2013-07-21T14:04:17Z</time>
      </trkpt>
      <trkpt lat="44.60876" lon="2.95895">
        <ele>1201</ele>
        <time>2013-07-21T14:04:23Z</time>
      </trkpt>
      <trkpt lat="44.60872" lon="2.95893">
        <ele>1201</ele>
        <time>2013-07-21T14:04:26Z</time>
      </trkpt>
      <trkpt lat="44.60862" lon="2.95887">
        <ele>1199</ele>
        <time>2013-07-21T14:04:33Z</time>
      </trkpt>
      <trkpt lat="44.60852" lon="2.95883">
        <ele>1198</ele>
        <time>2013-07-21T14:04:39Z</time>
      </trkpt>
      <trkpt lat="44.60843" lon="2.95878">
        <ele>1198</ele>
        <time>2013-07-21T14:04:47Z</time>
      </trkpt>
      <trkpt lat="44.60834" lon="2.95872">
        <ele>1198</ele>
        <time>2013-07-21T14:04:54Z</time>
      </trkpt>
      <trkpt lat="44.60825" lon="2.95867">
        <ele>1197</ele>
        <time>2013-07-21T14:05:00Z</time>
      </trkpt>
      <trkpt lat="44.60816" lon="2.95861">
        <ele>1196</ele>
        <time>2013-07-21T14:05:07Z</time>
      </trkpt>
      <trkpt lat="44.60808" lon="2.95852">
        <ele>1195</ele>
        <time>2013-07-21T14:05:13Z</time>
      </trkpt>
      <trkpt lat="44.608" lon="2.95844">
        <ele>1195</ele>
        <time>2013-07-21T14:05:24Z</time>
      </trkpt>
      <trkpt lat="44.60791" lon="2.95836">
        <ele>1195</ele>
        <time>2013-07-21T14:05:30Z</time>
      </trkpt>
      <trkpt lat="44.60784" lon="2.95826">
        <ele>1194</ele>
        <time>2013-07-21T14:05:35Z</time>
      </trkpt>
      <trkpt lat="44.60779" lon="2.95815">
        <ele>1193</ele>
        <time>2013-07-21T14:05:41Z</time>
      </trkpt>
      <trkpt lat="44.60779" lon="2.95805">
        <ele>1193</ele>
        <time>2013-07-21T14:05:57Z</time>
      </trkpt>
      <trkpt lat="44.60777" lon="2.95791">
        <ele>1193</ele>
        <time>2013-07-21T14:06:02Z</time>
      </trkpt>
      <trkpt lat="44.60773" lon="2.95778">
        <ele>1190</ele>
        <time>2013-07-21T14:06:07Z</time>
      </trkpt>
      <trkpt lat="44.60768" lon="2.95767">
        <ele>1190</ele>
        <time>2013-07-21T14:06:12Z</time>
      </trkpt>
      <trkpt lat="44.60765" lon="2.95761">
        <ele>1190</ele>
        <time>2013-07-21T14:06:17Z</time>
      </trkpt>
      <trkpt lat="44.60762" lon="2.95756">
        <ele>1190</ele>
        <time>2013-07-21T14:06:20Z</time>
      </trkpt>
      <trkpt lat="44.60757" lon="2.95751">
        <ele>1191</ele>
        <time>2013-07-21T14:06:24Z</time>
      </trkpt>
      <trkpt lat="44.60754" lon="2.95746">
        <ele>1191</ele>
        <time>2013-07-21T14:06:27Z</time>
      </trkpt>
      <trkpt lat="44.6075" lon="2.9574">
        <ele>1191</ele>
        <time>2013-07-21T14:06:31Z</time>
      </trkpt>
      <trkpt lat="44.60745" lon="2.95737">
        <ele>1192</ele>
        <time>2013-07-21T14:06:35Z</time>
      </trkpt>
      <trkpt lat="44.60738" lon="2.95734">
        <ele>1193</ele>
        <time>2013-07-21T14:06:41Z</time>
      </trkpt>
      <trkpt lat="44.60729" lon="2.9573">
        <ele>1192</ele>
        <time>2013-07-21T14:06:47Z</time>
      </trkpt>
      <trkpt lat="44.60724" lon="2.95727">
        <ele>1192</ele>
        <time>2013-07-21T14:06:50Z</time>
      </trkpt>
      <trkpt lat="44.60719" lon="2.95725">
        <ele>1191</ele>
        <time>2013-07-21T14:07:03Z</time>
      </trkpt>
      <trkpt lat="44.60709" lon="2.95724">
        <ele>1191</ele>
        <time>2013-07-21T14:07:15Z</time>
      </trkpt>
      <trkpt lat="44.60699" lon="2.95722">
        <ele>1191</ele>
        <time>2013-07-21T14:07:21Z</time>
      </trkpt>
      <trkpt lat="44.60689" lon="2.95721">
        <ele>1189</ele>
        <time>2013-07-21T14:07:27Z</time>
      </trkpt>
      <trkpt lat="44.60679" lon="2.95721">
        <ele>1189</ele>
        <time>2013-07-21T14:07:34Z</time>
      </trkpt>
      <trkpt lat="44.6067" lon="2.95715">
        <ele>1187</ele>
        <time>2013-07-21T14:07:40Z</time>
      </trkpt>
      <trkpt lat="44.6066" lon="2.95709">
        <ele>1185</ele>
        <time>2013-07-21T14:07:46Z</time>
      </trkpt>
      <trkpt lat="44.60652" lon="2.95704">
        <ele>1184</ele>
        <time>2013-07-21T14:07:52Z</time>
      </trkpt>
      <trkpt lat="44.60643" lon="2.95696">
        <ele>1184</ele>
        <time>2013-07-21T14:07:59Z</time>
      </trkpt>
      <trkpt lat="44.60635" lon="2.95691">
        <ele>1182</ele>
        <time>2013-07-21T14:08:05Z</time>
      </trkpt>
      <trkpt lat="44.60626" lon="2.95684">
        <ele>1181</ele>
        <time>2013-07-21T14:08:12Z</time>
      </trkpt>
      <trkpt lat="44.60622" lon="2.95681">
        <ele>1181</ele>
        <time>2013-07-21T14:08:15Z</time>
      </trkpt>
      <trkpt lat="44.60617" lon="2.95678">
        <ele>1181</ele>
        <time>2013-07-21T14:08:18Z</time>
      </trkpt>
      <trkpt lat="44.60608" lon="2.95672">
        <ele>1180</ele>
        <time>2013-07-21T14:08:29Z</time>
      </trkpt>
      <trkpt lat="44.60599" lon="2.95666">
        <ele>1178</ele>
        <time>2013-07-21T14:08:38Z</time>
      </trkpt>
      <trkpt lat="44.60591" lon="2.95659">
        <ele>1176</ele>
        <time>2013-07-21T14:08:45Z</time>
      </trkpt>
      <trkpt lat="44.60584" lon="2.95651">
        <ele>1175</ele>
        <time>2013-07-21T14:08:51Z</time>
      </trkpt>
      <trkpt lat="44.60576" lon="2.95644">
        <ele>1174</ele>
        <time>2013-07-21T14:08:59Z</time>
      </trkpt>
      <trkpt lat="44.60568" lon="2.95636">
        <ele>1171</ele>
        <time>2013-07-21T14:09:08Z</time>
      </trkpt>
      <trkpt lat="44.60565" lon="2.95631">
        <ele>1170</ele>
        <time>2013-07-21T14:09:12Z</time>
      </trkpt>
      <trkpt lat="44.6056" lon="2.95626">
        <ele>1170</ele>
        <time>2013-07-21T14:09:16Z</time>
      </trkpt>
      <trkpt lat="44.60557" lon="2.95621">
        <ele>1169</ele>
        <time>2013-07-21T14:09:19Z</time>
      </trkpt>
      <trkpt lat="44.60556" lon="2.95614">
        <ele>1169</ele>
        <time>2013-07-21T14:09:22Z</time>
      </trkpt>
      <trkpt lat="44.60554" lon="2.95608">
        <ele>1168</ele>
        <time>2013-07-21T14:09:25Z</time>
      </trkpt>
      <trkpt lat="44.60551" lon="2.95602">
        <ele>1167</ele>
        <time>2013-07-21T14:09:29Z</time>
      </trkpt>
      <trkpt lat="44.60552" lon="2.95588">
        <ele>1164</ele>
        <time>2013-07-21T14:09:37Z</time>
      </trkpt>
      <trkpt lat="44.60555" lon="2.95574">
        <ele>1164</ele>
        <time>2013-07-21T14:09:46Z</time>
      </trkpt>
      <trkpt lat="44.60556" lon="2.9556">
        <ele>1164</ele>
        <time>2013-07-21T14:09:53Z</time>
      </trkpt>
      <trkpt lat="44.60553" lon="2.95547">
        <ele>1163</ele>
        <time>2013-07-21T14:10:00Z</time>
      </trkpt>
      <trkpt lat="44.60548" lon="2.95535">
        <ele>1162</ele>
        <time>2013-07-21T14:10:07Z</time>
      </trkpt>
      <trkpt lat="44.60539" lon="2.95528">
        <ele>1160</ele>
        <time>2013-07-21T14:10:18Z</time>
      </trkpt>
      <trkpt lat="44.60535" lon="2.95527">
        <ele>1158</ele>
        <time>2013-07-21T14:10:22Z</time>
      </trkpt>
      <trkpt lat="44.6053" lon="2.95526">
        <ele>1158</ele>
        <time>2013-07-21T14:10:25Z</time>
      </trkpt>
      <trkpt lat="44.60521" lon="2.95523">
        <ele>1157</ele>
        <time>2013-07-21T14:10:32Z</time>
      </trkpt>
      <trkpt lat="44.60512" lon="2.9552">
        <ele>1156</ele>
        <time>2013-07-21T14:10:37Z</time>
      </trkpt>
      <trkpt lat="44.60503" lon="2.95513">
        <ele>1157</ele>
        <time>2013-07-21T14:10:45Z</time>
      </trkpt>
      <trkpt lat="44.60494" lon="2.95505">
        <ele>1156</ele>
        <time>2013-07-21T14:10:52Z</time>
      </trkpt>
      <trkpt lat="44.60485" lon="2.95501">
        <ele>1155</ele>
        <time>2013-07-21T14:10:57Z</time>
      </trkpt>
      <trkpt lat="44.60476" lon="2.95498">
        <ele>1154</ele>
        <time>2013-07-21T14:11:03Z</time>
      </trkpt>
      <trkpt lat="44.60467" lon="2.95492">
        <ele>1154</ele>
        <time>2013-07-21T14:11:09Z</time>
      </trkpt>
      <trkpt lat="44.60459" lon="2.95484">
        <ele>1152</ele>
        <time>2013-07-21T14:11:16Z</time>
      </trkpt>
      <trkpt lat="44.60455" lon="2.95477">
        <ele>1151</ele>
        <time>2013-07-21T14:11:20Z</time>
      </trkpt>
      <trkpt lat="44.60452" lon="2.95471">
        <ele>1150</ele>
        <time>2013-07-21T14:11:23Z</time>
      </trkpt>
      <trkpt lat="44.60447" lon="2.95472">
        <ele>1148</ele>
        <time>2013-07-21T14:11:27Z</time>
      </trkpt>
      <trkpt lat="44.60442" lon="2.95473">
        <ele>1146</ele>
        <time>2013-07-21T14:11:32Z</time>
      </trkpt>
      <trkpt lat="44.60437" lon="2.95471">
        <ele>1146</ele>
        <time>2013-07-21T14:11:36Z</time>
      </trkpt>
      <trkpt lat="44.60433" lon="2.95468">
        <ele>1148</ele>
        <time>2013-07-21T14:11:40Z</time>
      </trkpt>
      <trkpt lat="44.60428" lon="2.95469">
        <ele>1149</ele>
        <time>2013-07-21T14:11:44Z</time>
      </trkpt>
      <trkpt lat="44.60423" lon="2.95473">
        <ele>1150</ele>
        <time>2013-07-21T14:11:48Z</time>
      </trkpt>
      <trkpt lat="44.60419" lon="2.95476">
        <ele>1149</ele>
        <time>2013-07-21T14:11:51Z</time>
      </trkpt>
      <trkpt lat="44.60414" lon="2.95479">
        <ele>1149</ele>
        <time>2013-07-21T14:11:54Z</time>
      </trkpt>
      <trkpt lat="44.60412" lon="2.9548">
        <ele>1147</ele>
        <time>2013-07-21T14:12:17Z</time>
      </trkpt>
      <trkpt lat="44.60404" lon="2.95486">
        <ele>1144</ele>
        <time>2013-07-21T14:12:30Z</time>
      </trkpt>
      <trkpt lat="44.60402" lon="2.9549">
        <ele>1145</ele>
        <time>2013-07-21T14:12:38Z</time>
      </trkpt>
      <trkpt lat="44.604" lon="2.95492">
        <ele>1145</ele>
        <time>2013-07-21T14:12:45Z</time>
      </trkpt>
      <trkpt lat="44.60397" lon="2.955">
        <ele>1142</ele>
        <time>2013-07-21T14:12:55Z</time>
      </trkpt>
      <trkpt lat="44.60398" lon="2.95513">
        <ele>1142</ele>
        <time>2013-07-21T14:13:10Z</time>
      </trkpt>
      <trkpt lat="44.60403" lon="2.95527">
        <ele>1146</ele>
        <time>2013-07-21T14:13:22Z</time>
      </trkpt>
      <trkpt lat="44.60408" lon="2.95538">
        <ele>1149</ele>
        <time>2013-07-21T14:13:32Z</time>
      </trkpt>
      <trkpt lat="44.60414" lon="2.95548">
        <ele>1151</ele>
        <time>2013-07-21T14:13:47Z</time>
      </trkpt>
      <trkpt lat="44.60414" lon="2.95562">
        <ele>1151</ele>
        <time>2013-07-21T14:13:54Z</time>
      </trkpt>
      <trkpt lat="44.60408" lon="2.95571">
        <ele>1152</ele>
        <time>2013-07-21T14:14:09Z</time>
      </trkpt>
      <trkpt lat="44.60398" lon="2.95573">
        <ele>1152</ele>
        <time>2013-07-21T14:14:22Z</time>
      </trkpt>
      <trkpt lat="44.60388" lon="2.95567">
        <ele>1152</ele>
        <time>2013-07-21T14:14:38Z</time>
      </trkpt>
      <trkpt lat="44.6037" lon="2.95556">
        <ele>1150</ele>
        <time>2013-07-21T14:15:19Z</time>
      </trkpt>
      <trkpt lat="44.6036" lon="2.95552">
        <ele>1147</ele>
        <time>2013-07-21T14:15:29Z</time>
      </trkpt>
      <trkpt lat="44.60351" lon="2.95546">
        <ele>1146</ele>
        <time>2013-07-21T14:15:43Z</time>
      </trkpt>
      <trkpt lat="44.60342" lon="2.95528">
        <ele>1138</ele>
        <time>2013-07-21T14:15:55Z</time>
      </trkpt>
      <trkpt lat="44.60335" lon="2.95518">
        <ele>1136</ele>
        <time>2013-07-21T14:16:00Z</time>
      </trkpt>
      <trkpt lat="44.60331" lon="2.95505">
        <ele>1133</ele>
        <time>2013-07-21T14:16:09Z</time>
      </trkpt>
      <trkpt lat="44.60325" lon="2.95492">
        <ele>1130</ele>
        <time>2013-07-21T14:16:16Z</time>
      </trkpt>
      <trkpt lat="44.60323" lon="2.95478">
        <ele>1130</ele>
        <time>2013-07-21T14:16:22Z</time>
      </trkpt>
      <trkpt lat="44.60321" lon="2.95465">
        <ele>1127</ele>
        <time>2013-07-21T14:16:30Z</time>
      </trkpt>
      <trkpt lat="44.60315" lon="2.9545">
        <ele>1124</ele>
        <time>2013-07-21T14:16:41Z</time>
      </trkpt>
      <trkpt lat="44.60309" lon="2.9544">
        <ele>1122</ele>
        <time>2013-07-21T14:16:55Z</time>
      </trkpt>
      <trkpt lat="44.60303" lon="2.95427">
        <ele>1122</ele>
        <time>2013-07-21T14:17:01Z</time>
      </trkpt>
      <trkpt lat="44.60295" lon="2.9541">
        <ele>1122</ele>
        <time>2013-07-21T14:17:05Z</time>
      </trkpt>
      <trkpt lat="44.60292" lon="2.95395">
        <ele>1121</ele>
        <time>2013-07-21T14:17:11Z</time>
      </trkpt>
      <trkpt lat="44.60292" lon="2.95379">
        <ele>1121</ele>
        <time>2013-07-21T14:17:18Z</time>
      </trkpt>
      <trkpt lat="44.60291" lon="2.95373">
        <ele>1120</ele>
        <time>2013-07-21T14:17:23Z</time>
      </trkpt>
      <trkpt lat="44.60288" lon="2.95365">
        <ele>1119</ele>
        <time>2013-07-21T14:17:29Z</time>
      </trkpt>
      <trkpt lat="44.60286" lon="2.95359">
        <ele>1120</ele>
        <time>2013-07-21T14:17:37Z</time>
      </trkpt>
      <trkpt lat="44.60282" lon="2.95352">
        <ele>1118</ele>
        <time>2013-07-21T14:17:48Z</time>
      </trkpt>
      <trkpt lat="44.60283" lon="2.95339">
        <ele>1117</ele>
        <time>2013-07-21T14:18:00Z</time>
      </trkpt>
      <trkpt lat="44.60281" lon="2.95334">
        <ele>1118</ele>
        <time>2013-07-21T14:18:06Z</time>
      </trkpt>
      <trkpt lat="44.60278" lon="2.95321">
        <ele>1119</ele>
        <time>2013-07-21T14:18:14Z</time>
      </trkpt>
      <trkpt lat="44.60277" lon="2.95316">
        <ele>1118</ele>
        <time>2013-07-21T14:18:24Z</time>
      </trkpt>
      <trkpt lat="44.60277" lon="2.9531">
        <ele>1120</ele>
        <time>2013-07-21T14:18:40Z</time>
      </trkpt>
      <trkpt lat="44.60278" lon="2.95296">
        <ele>1120</ele>
        <time>2013-07-21T14:18:50Z</time>
      </trkpt>
      <trkpt lat="44.60275" lon="2.95283">
        <ele>1120</ele>
        <time>2013-07-21T14:19:02Z</time>
      </trkpt>
      <trkpt lat="44.60268" lon="2.95275">
        <ele>1120</ele>
        <time>2013-07-21T14:19:13Z</time>
      </trkpt>
      <trkpt lat="44.60263" lon="2.95273">
        <ele>1116</ele>
        <time>2013-07-21T14:19:26Z</time>
      </trkpt>
      <trkpt lat="44.6026" lon="2.95261">
        <ele>1115</ele>
        <time>2013-07-21T14:19:37Z</time>
      </trkpt>
      <trkpt lat="44.60254" lon="2.95252">
        <ele>1115</ele>
        <time>2013-07-21T14:19:47Z</time>
      </trkpt>
      <trkpt lat="44.60249" lon="2.95248">
        <ele>1114</ele>
        <time>2013-07-21T14:19:52Z</time>
      </trkpt>
      <trkpt lat="44.60244" lon="2.95244">
        <ele>1113</ele>
        <time>2013-07-21T14:19:56Z</time>
      </trkpt>
      <trkpt lat="44.60235" lon="2.95236">
        <ele>1112</ele>
        <time>2013-07-21T14:20:05Z</time>
      </trkpt>
      <trkpt lat="44.60234" lon="2.95222">
        <ele>1110</ele>
        <time>2013-07-21T14:20:15Z</time>
      </trkpt>
      <trkpt lat="44.60239" lon="2.95208">
        <ele>1108</ele>
        <time>2013-07-21T14:20:28Z</time>
      </trkpt>
      <trkpt lat="44.60248" lon="2.952">
        <ele>1103</ele>
        <time>2013-07-21T14:20:36Z</time>
      </trkpt>
      <trkpt lat="44.60252" lon="2.95188">
        <ele>1099</ele>
        <time>2013-07-21T14:20:48Z</time>
      </trkpt>
      <trkpt lat="44.60245" lon="2.95175">
        <ele>1097</ele>
        <time>2013-07-21T14:21:12Z</time>
      </trkpt>
      <trkpt lat="44.60236" lon="2.95178">
        <ele>1096</ele>
        <time>2013-07-21T14:21:19Z</time>
      </trkpt>
      <trkpt lat="44.60228" lon="2.95183">
        <ele>1096</ele>
        <time>2013-07-21T14:21:27Z</time>
      </trkpt>
      <trkpt lat="44.60223" lon="2.95189">
        <ele>1096</ele>
        <time>2013-07-21T14:21:32Z</time>
      </trkpt>
      <trkpt lat="44.60218" lon="2.95196">
        <ele>1097</ele>
        <time>2013-07-21T14:21:39Z</time>
      </trkpt>
      <trkpt lat="44.60212" lon="2.95206">
        <ele>1096</ele>
        <time>2013-07-21T14:21:48Z</time>
      </trkpt>
      <trkpt lat="44.60204" lon="2.95215">
        <ele>1094</ele>
        <time>2013-07-21T14:21:55Z</time>
      </trkpt>
      <trkpt lat="44.60201" lon="2.9522">
        <ele>1094</ele>
        <time>2013-07-21T14:21:59Z</time>
      </trkpt>
      <trkpt lat="44.60197" lon="2.95225">
        <ele>1094</ele>
        <time>2013-07-21T14:22:04Z</time>
      </trkpt>
      <trkpt lat="44.60192" lon="2.9523">
        <ele>1096</ele>
        <time>2013-07-21T14:22:10Z</time>
      </trkpt>
      <trkpt lat="44.60187" lon="2.95234">
        <ele>1097</ele>
        <time>2013-07-21T14:22:15Z</time>
      </trkpt>
      <trkpt lat="44.60177" lon="2.9524">
        <ele>1097</ele>
        <time>2013-07-21T14:22:23Z</time>
      </trkpt>
      <trkpt lat="44.60171" lon="2.95242">
        <ele>1097</ele>
        <time>2013-07-21T14:22:28Z</time>
      </trkpt>
      <trkpt lat="44.60164" lon="2.95231">
        <ele>1094</ele>
        <time>2013-07-21T14:22:37Z</time>
      </trkpt>
      <trkpt lat="44.60163" lon="2.95225">
        <ele>1093</ele>
        <time>2013-07-21T14:22:48Z</time>
      </trkpt>
      <trkpt lat="44.60165" lon="2.95212">
        <ele>1091</ele>
        <time>2013-07-21T14:23:00Z</time>
      </trkpt>
      <trkpt lat="44.6017" lon="2.95199">
        <ele>1089</ele>
        <time>2013-07-21T14:23:09Z</time>
      </trkpt>
      <trkpt lat="44.60167" lon="2.95188">
        <ele>1088</ele>
        <time>2013-07-21T14:23:18Z</time>
      </trkpt>
      <trkpt lat="44.60158" lon="2.95183">
        <ele>1087</ele>
        <time>2013-07-21T14:23:29Z</time>
      </trkpt>
      <trkpt lat="44.60151" lon="2.95179">
        <ele>1084</ele>
        <time>2013-07-21T14:23:42Z</time>
      </trkpt>
      <trkpt lat="44.60146" lon="2.95179">
        <ele>1081</ele>
        <time>2013-07-21T14:25:19Z</time>
      </trkpt>
      <trkpt lat="44.60141" lon="2.95183">
        <ele>1081</ele>
        <time>2013-07-21T14:25:39Z</time>
      </trkpt>
      <trkpt lat="44.60132" lon="2.95176">
        <ele>1081</ele>
        <time>2013-07-21T14:25:48Z</time>
      </trkpt>
      <trkpt lat="44.60132" lon="2.95169">
        <ele>1080</ele>
        <time>2013-07-21T14:25:54Z</time>
      </trkpt>
      <trkpt lat="44.6013" lon="2.95157">
        <ele>1080</ele>
        <time>2013-07-21T14:26:06Z</time>
      </trkpt>
      <trkpt lat="44.60132" lon="2.95143">
        <ele>1081</ele>
        <time>2013-07-21T14:26:16Z</time>
      </trkpt>
      <trkpt lat="44.60135" lon="2.95132">
        <ele>1081</ele>
        <time>2013-07-21T14:26:26Z</time>
      </trkpt>
      <trkpt lat="44.60136" lon="2.95117">
        <ele>1079</ele>
        <time>2013-07-21T14:26:41Z</time>
      </trkpt>
      <trkpt lat="44.60133" lon="2.95108">
        <ele>1078</ele>
        <time>2013-07-21T14:26:57Z</time>
      </trkpt>
      <trkpt lat="44.60127" lon="2.95098">
        <ele>1075</ele>
        <time>2013-07-21T14:27:09Z</time>
      </trkpt>
      <trkpt lat="44.60124" lon="2.95089">
        <ele>1075</ele>
        <time>2013-07-21T14:27:25Z</time>
      </trkpt>
      <trkpt lat="44.60117" lon="2.95074">
        <ele>1075</ele>
        <time>2013-07-21T14:27:35Z</time>
      </trkpt>
      <trkpt lat="44.60116" lon="2.95054">
        <ele>1072</ele>
        <time>2013-07-21T14:27:52Z</time>
      </trkpt>
      <trkpt lat="44.6011" lon="2.95038">
        <ele>1069</ele>
        <time>2013-07-21T14:28:03Z</time>
      </trkpt>
      <trkpt lat="44.60103" lon="2.9503">
        <ele>1069</ele>
        <time>2013-07-21T14:28:10Z</time>
      </trkpt>
      <trkpt lat="44.60095" lon="2.95021">
        <ele>1067</ele>
        <time>2013-07-21T14:28:23Z</time>
      </trkpt>
      <trkpt lat="44.60084" lon="2.95009">
        <ele>1068</ele>
        <time>2013-07-21T14:28:32Z</time>
      </trkpt>
      <trkpt lat="44.60075" lon="2.95002">
        <ele>1068</ele>
        <time>2013-07-21T14:28:39Z</time>
      </trkpt>
      <trkpt lat="44.60068" lon="2.94993">
        <ele>1067</ele>
        <time>2013-07-21T14:28:47Z</time>
      </trkpt>
      <trkpt lat="44.60058" lon="2.94991">
        <ele>1063</ele>
        <time>2013-07-21T14:28:59Z</time>
      </trkpt>
      <trkpt lat="44.60051" lon="2.94987">
        <ele>1061</ele>
        <time>2013-07-21T14:29:07Z</time>
      </trkpt>
      <trkpt lat="44.60047" lon="2.94982">
        <ele>1061</ele>
        <time>2013-07-21T14:29:14Z</time>
      </trkpt>
      <trkpt lat="44.60042" lon="2.94976">
        <ele>1061</ele>
        <time>2013-07-21T14:29:28Z</time>
      </trkpt>
      <trkpt lat="44.60036" lon="2.94974">
        <ele>1061</ele>
        <time>2013-07-21T14:29:34Z</time>
      </trkpt>
      <trkpt lat="44.60031" lon="2.94971">
        <ele>1060</ele>
        <time>2013-07-21T14:29:40Z</time>
      </trkpt>
      <trkpt lat="44.60026" lon="2.94966">
        <ele>1058</ele>
        <time>2013-07-21T14:29:45Z</time>
      </trkpt>
      <trkpt lat="44.60022" lon="2.94965">
        <ele>1057</ele>
        <time>2013-07-21T14:29:54Z</time>
      </trkpt>
      <trkpt lat="44.60016" lon="2.9496">
        <ele>1056</ele>
        <time>2013-07-21T14:30:15Z</time>
      </trkpt>
      <trkpt lat="44.60012" lon="2.94956">
        <ele>1056</ele>
        <time>2013-07-21T14:30:19Z</time>
      </trkpt>
      <trkpt lat="44.60008" lon="2.94951">
        <ele>1056</ele>
        <time>2013-07-21T14:30:23Z</time>
      </trkpt>
      <trkpt lat="44.60004" lon="2.94947">
        <ele>1056</ele>
        <time>2013-07-21T14:30:29Z</time>
      </trkpt>
      <trkpt lat="44.59996" lon="2.9494">
        <ele>1056</ele>
        <time>2013-07-21T14:30:38Z</time>
      </trkpt>
      <trkpt lat="44.59988" lon="2.94935">
        <ele>1056</ele>
        <time>2013-07-21T14:30:44Z</time>
      </trkpt>
      <trkpt lat="44.59984" lon="2.94928">
        <ele>1055</ele>
        <time>2013-07-21T14:30:51Z</time>
      </trkpt>
      <trkpt lat="44.59983" lon="2.94921">
        <ele>1055</ele>
        <time>2013-07-21T14:30:56Z</time>
      </trkpt>
      <trkpt lat="44.59984" lon="2.94913">
        <ele>1054</ele>
        <time>2013-07-21T14:31:00Z</time>
      </trkpt>
      <trkpt lat="44.59987" lon="2.94906">
        <ele>1052</ele>
        <time>2013-07-21T14:31:07Z</time>
      </trkpt>
      <trkpt lat="44.59988" lon="2.94898">
        <ele>1051</ele>
        <time>2013-07-21T14:31:12Z</time>
      </trkpt>
      <trkpt lat="44.59989" lon="2.94888">
        <ele>1051</ele>
        <time>2013-07-21T14:31:23Z</time>
      </trkpt>
      <trkpt lat="44.59991" lon="2.94882">
        <ele>1052</ele>
        <time>2013-07-21T14:31:28Z</time>
      </trkpt>
      <trkpt lat="44.59993" lon="2.94871">
        <ele>1052</ele>
        <time>2013-07-21T14:31:40Z</time>
      </trkpt>
      <trkpt lat="44.59998" lon="2.94865">
        <ele>1051</ele>
        <time>2013-07-21T14:31:45Z</time>
      </trkpt>
      <trkpt lat="44.60002" lon="2.9486">
        <ele>1051</ele>
        <time>2013-07-21T14:31:48Z</time>
      </trkpt>
      <trkpt lat="44.60007" lon="2.94859">
        <ele>1052</ele>
        <time>2013-07-21T14:31:52Z</time>
      </trkpt>
      <trkpt lat="44.60013" lon="2.94855">
        <ele>1052</ele>
        <time>2013-07-21T14:32:05Z</time>
      </trkpt>
      <trkpt lat="44.6002" lon="2.94845">
        <ele>1049</ele>
        <time>2013-07-21T14:32:13Z</time>
      </trkpt>
      <trkpt lat="44.60022" lon="2.94839">
        <ele>1048</ele>
        <time>2013-07-21T14:32:20Z</time>
      </trkpt>
      <trkpt lat="44.60027" lon="2.94837">
        <ele>1045</ele>
        <time>2013-07-21T14:32:38Z</time>
      </trkpt>
      <trkpt lat="44.6004" lon="2.94835">
        <ele>1037</ele>
        <time>2013-07-21T14:33:00Z</time>
      </trkpt>
      <trkpt lat="44.6005" lon="2.94831">
        <ele>1036</ele>
        <time>2013-07-21T14:33:08Z</time>
      </trkpt>
      <trkpt lat="44.60059" lon="2.94828">
        <ele>1034</ele>
        <time>2013-07-21T14:33:14Z</time>
      </trkpt>
      <trkpt lat="44.60068" lon="2.94827">
        <ele>1032</ele>
        <time>2013-07-21T14:33:21Z</time>
      </trkpt>
      <trkpt lat="44.60082" lon="2.94827">
        <ele>1022</ele>
        <time>2013-07-21T14:33:44Z</time>
      </trkpt>
      <trkpt lat="44.60091" lon="2.94823">
        <ele>1021</ele>
        <time>2013-07-21T14:33:49Z</time>
      </trkpt>
      <trkpt lat="44.60101" lon="2.94821">
        <ele>1017</ele>
        <time>2013-07-21T14:33:56Z</time>
      </trkpt>
      <trkpt lat="44.60111" lon="2.94819">
        <ele>1015</ele>
        <time>2013-07-21T14:34:02Z</time>
      </trkpt>
      <trkpt lat="44.60121" lon="2.94819">
        <ele>1013</ele>
        <time>2013-07-21T14:34:11Z</time>
      </trkpt>
      <trkpt lat="44.6013" lon="2.94817">
        <ele>1011</ele>
        <time>2013-07-21T14:34:20Z</time>
      </trkpt>
      <trkpt lat="44.6014" lon="2.94812">
        <ele>1013</ele>
        <time>2013-07-21T14:34:30Z</time>
      </trkpt>
      <trkpt lat="44.60147" lon="2.94803">
        <ele>1013</ele>
        <time>2013-07-21T14:34:38Z</time>
      </trkpt>
      <trkpt lat="44.60154" lon="2.94793">
        <ele>1020</ele>
        <time>2013-07-21T14:35:03Z</time>
      </trkpt>
      <trkpt lat="44.60157" lon="2.94779">
        <ele>1026</ele>
        <time>2013-07-21T14:35:14Z</time>
      </trkpt>
      <trkpt lat="44.60149" lon="2.94755">
        <ele>1041</ele>
        <time>2013-07-21T14:35:37Z</time>
      </trkpt>
      <trkpt lat="44.60138" lon="2.94752">
        <ele>1042</ele>
        <time>2013-07-21T14:35:46Z</time>
      </trkpt>
      <trkpt lat="44.60129" lon="2.94746">
        <ele>1037</ele>
        <time>2013-07-21T14:35:58Z</time>
      </trkpt>
      <trkpt lat="44.60121" lon="2.94739">
        <ele>1032</ele>
        <time>2013-07-21T14:36:09Z</time>
      </trkpt>
      <trkpt lat="44.60116" lon="2.94726">
        <ele>1030</ele>
        <time>2013-07-21T14:36:16Z</time>
      </trkpt>
      <trkpt lat="44.60109" lon="2.94716">
        <ele>1029</ele>
        <time>2013-07-21T14:36:21Z</time>
      </trkpt>
      <trkpt lat="44.60104" lon="2.94705">
        <ele>1028</ele>
        <time>2013-07-21T14:36:26Z</time>
      </trkpt>
      <trkpt lat="44.60085" lon="2.94668">
        <ele>1013</ele>
        <time>2013-07-21T14:36:56Z</time>
      </trkpt>
      <trkpt lat="44.60076" lon="2.94654">
        <ele>1012</ele>
        <time>2013-07-21T14:37:10Z</time>
      </trkpt>
      <trkpt lat="44.60051" lon="2.94638">
        <ele>1034</ele>
        <time>2013-07-21T14:37:48Z</time>
      </trkpt>
      <trkpt lat="44.60044" lon="2.94628">
        <ele>1040</ele>
        <time>2013-07-21T14:37:57Z</time>
      </trkpt>
      <trkpt lat="44.60037" lon="2.9462">
        <ele>1042</ele>
        <time>2013-07-21T14:38:00Z</time>
      </trkpt>
      <trkpt lat="44.60029" lon="2.94611">
        <ele>1044</ele>
        <time>2013-07-21T14:38:05Z</time>
      </trkpt>
      <trkpt lat="44.6002" lon="2.94605">
        <ele>1045</ele>
        <time>2013-07-21T14:38:14Z</time>
      </trkpt>
      <trkpt lat="44.60014" lon="2.94594">
        <ele>1042</ele>
        <time>2013-07-21T14:38:21Z</time>
      </trkpt>
      <trkpt lat="44.60003" lon="2.94572">
        <ele>1031</ele>
        <time>2013-07-21T14:38:38Z</time>
      </trkpt>
      <trkpt lat="44.60002" lon="2.94559">
        <ele>1026</ele>
        <time>2013-07-21T14:38:45Z</time>
      </trkpt>
      <trkpt lat="44.59997" lon="2.94549">
        <ele>1020</ele>
        <time>2013-07-21T14:38:53Z</time>
      </trkpt>
      <trkpt lat="44.59989" lon="2.9454">
        <ele>1017</ele>
        <time>2013-07-21T14:39:00Z</time>
      </trkpt>
      <trkpt lat="44.59984" lon="2.94529">
        <ele>1013</ele>
        <time>2013-07-21T14:39:11Z</time>
      </trkpt>
      <trkpt lat="44.59978" lon="2.94517">
        <ele>1010</ele>
        <time>2013-07-21T14:39:22Z</time>
      </trkpt>
      <trkpt lat="44.59971" lon="2.94509">
        <ele>1013</ele>
        <time>2013-07-21T14:39:32Z</time>
      </trkpt>
      <trkpt lat="44.59962" lon="2.94502">
        <ele>1014</ele>
        <time>2013-07-21T14:39:44Z</time>
      </trkpt>
      <trkpt lat="44.59954" lon="2.94495">
        <ele>1012</ele>
        <time>2013-07-21T14:39:50Z</time>
      </trkpt>
      <trkpt lat="44.59946" lon="2.94486">
        <ele>1016</ele>
        <time>2013-07-21T14:39:58Z</time>
      </trkpt>
      <trkpt lat="44.5993" lon="2.94471">
        <ele>1027</ele>
        <time>2013-07-21T14:40:16Z</time>
      </trkpt>
      <trkpt lat="44.59921" lon="2.94473">
        <ele>1028</ele>
        <time>2013-07-21T14:40:20Z</time>
      </trkpt>
      <trkpt lat="44.59912" lon="2.94467">
        <ele>1024</ele>
        <time>2013-07-21T14:40:31Z</time>
      </trkpt>
      <trkpt lat="44.5989" lon="2.94433">
        <ele>1001</ele>
        <time>2013-07-21T14:41:10Z</time>
      </trkpt>
      <trkpt lat="44.59885" lon="2.94429">
        <ele>999</ele>
        <time>2013-07-21T14:41:14Z</time>
      </trkpt>
      <trkpt lat="44.59879" lon="2.9442">
        <ele>996</ele>
        <time>2013-07-21T14:41:22Z</time>
      </trkpt>
      <trkpt lat="44.59877" lon="2.94407">
        <ele>995</ele>
        <time>2013-07-21T14:41:35Z</time>
      </trkpt>
      <trkpt lat="44.59867" lon="2.94398">
        <ele>997</ele>
        <time>2013-07-21T14:41:45Z</time>
      </trkpt>
      <trkpt lat="44.59867" lon="2.94383">
        <ele>997</ele>
        <time>2013-07-21T14:42:01Z</time>
      </trkpt>
      <trkpt lat="44.59862" lon="2.94372">
        <ele>995</ele>
        <time>2013-07-21T14:42:08Z</time>
      </trkpt>
      <trkpt lat="44.59855" lon="2.94363">
        <ele>994</ele>
        <time>2013-07-21T14:42:15Z</time>
      </trkpt>
      <trkpt lat="44.59848" lon="2.94342">
        <ele>994</ele>
        <time>2013-07-21T14:42:29Z</time>
      </trkpt>
      <trkpt lat="44.5984" lon="2.94334">
        <ele>993</ele>
        <time>2013-07-21T14:42:36Z</time>
      </trkpt>
      <trkpt lat="44.59832" lon="2.94328">
        <ele>991</ele>
        <time>2013-07-21T14:42:42Z</time>
      </trkpt>
      <trkpt lat="44.59825" lon="2.94314">
        <ele>992</ele>
        <time>2013-07-21T14:42:53Z</time>
      </trkpt>
      <trkpt lat="44.59821" lon="2.94306">
        <ele>993</ele>
        <time>2013-07-21T14:42:58Z</time>
      </trkpt>
      <trkpt lat="44.59817" lon="2.94295">
        <ele>992</ele>
        <time>2013-07-21T14:43:03Z</time>
      </trkpt>
      <trkpt lat="44.59815" lon="2.94289">
        <ele>991</ele>
        <time>2013-07-21T14:43:07Z</time>
      </trkpt>
      <trkpt lat="44.59811" lon="2.94278">
        <ele>989</ele>
        <time>2013-07-21T14:43:13Z</time>
      </trkpt>
      <trkpt lat="44.5981" lon="2.94271">
        <ele>987</ele>
        <time>2013-07-21T14:43:16Z</time>
      </trkpt>
      <trkpt lat="44.59806" lon="2.94267">
        <ele>985</ele>
        <time>2013-07-21T14:43:19Z</time>
      </trkpt>
      <trkpt lat="44.59802" lon="2.94258">
        <ele>983</ele>
        <time>2013-07-21T14:43:24Z</time>
      </trkpt>
      <trkpt lat="44.598" lon="2.94248">
        <ele>981</ele>
        <time>2013-07-21T14:43:32Z</time>
      </trkpt>
      <trkpt lat="44.59799" lon="2.94235">
        <ele>977</ele>
        <time>2013-07-21T14:43:48Z</time>
      </trkpt>
      <trkpt lat="44.59796" lon="2.94225">
        <ele>976</ele>
        <time>2013-07-21T14:44:00Z</time>
      </trkpt>
      <trkpt lat="44.59795" lon="2.94218">
        <ele>977</ele>
        <time>2013-07-21T14:44:04Z</time>
      </trkpt>
      <trkpt lat="44.59795" lon="2.9421">
        <ele>978</ele>
        <time>2013-07-21T14:44:08Z</time>
      </trkpt>
      <trkpt lat="44.59794" lon="2.94204">
        <ele>978</ele>
        <time>2013-07-21T14:44:13Z</time>
      </trkpt>
      <trkpt lat="44.59791" lon="2.94199">
        <ele>979</ele>
        <time>2013-07-21T14:44:18Z</time>
      </trkpt>
      <trkpt lat="44.5979" lon="2.94196">
        <ele>979</ele>
        <time>2013-07-21T14:44:29Z</time>
      </trkpt>
      <trkpt lat="44.59788" lon="2.94189">
        <ele>979</ele>
        <time>2013-07-21T14:44:33Z</time>
      </trkpt>
      <trkpt lat="44.59786" lon="2.94186">
        <ele>979</ele>
        <time>2013-07-21T14:44:44Z</time>
      </trkpt>
      <trkpt lat="44.59783" lon="2.94175">
        <ele>978</ele>
        <time>2013-07-21T14:45:01Z</time>
      </trkpt>
      <trkpt lat="44.59782" lon="2.94169">
        <ele>978</ele>
        <time>2013-07-21T14:45:03Z</time>
      </trkpt>
      <trkpt lat="44.5978" lon="2.94159">
        <ele>977</ele>
        <time>2013-07-21T14:45:08Z</time>
      </trkpt>
      <trkpt lat="44.59777" lon="2.94147">
        <ele>978</ele>
        <time>2013-07-21T14:45:18Z</time>
      </trkpt>
      <trkpt lat="44.59772" lon="2.94133">
        <ele>979</ele>
        <time>2013-07-21T14:45:26Z</time>
      </trkpt>
      <trkpt lat="44.59773" lon="2.9412">
        <ele>978</ele>
        <time>2013-07-21T14:45:33Z</time>
      </trkpt>
      <trkpt lat="44.5977" lon="2.94107">
        <ele>977</ele>
        <time>2013-07-21T14:45:41Z</time>
      </trkpt>
      <trkpt lat="44.59766" lon="2.94102">
        <ele>978</ele>
        <time>2013-07-21T14:45:47Z</time>
      </trkpt>
      <trkpt lat="44.59763" lon="2.94096">
        <ele>978</ele>
        <time>2013-07-21T14:45:55Z</time>
      </trkpt>
      <trkpt lat="44.59758" lon="2.9409">
        <ele>977</ele>
        <time>2013-07-21T14:46:01Z</time>
      </trkpt>
      <trkpt lat="44.5975" lon="2.94084">
        <ele>975</ele>
        <time>2013-07-21T14:46:10Z</time>
      </trkpt>
      <trkpt lat="44.59742" lon="2.94076">
        <ele>971</ele>
        <time>2013-07-21T14:46:21Z</time>
      </trkpt>
      <trkpt lat="44.59739" lon="2.94071">
        <ele>970</ele>
        <time>2013-07-21T14:46:26Z</time>
      </trkpt>
      <trkpt lat="44.59736" lon="2.94065">
        <ele>969</ele>
        <time>2013-07-21T14:46:31Z</time>
      </trkpt>
      <trkpt lat="44.59734" lon="2.94059">
        <ele>968</ele>
        <time>2013-07-21T14:46:38Z</time>
      </trkpt>
      <trkpt lat="44.59731" lon="2.94051">
        <ele>967</ele>
        <time>2013-07-21T14:46:44Z</time>
      </trkpt>
      <trkpt lat="44.59729" lon="2.94044">
        <ele>965</ele>
        <time>2013-07-21T14:46:49Z</time>
      </trkpt>
      <trkpt lat="44.59728" lon="2.94038">
        <ele>965</ele>
        <time>2013-07-21T14:46:56Z</time>
      </trkpt>
      <trkpt lat="44.59725" lon="2.94032">
        <ele>967</ele>
        <time>2013-07-21T14:47:02Z</time>
      </trkpt>
      <trkpt lat="44.59722" lon="2.94026">
        <ele>966</ele>
        <time>2013-07-21T14:47:12Z</time>
      </trkpt>
      <trkpt lat="44.59712" lon="2.94014">
        <ele>956</ele>
        <time>2013-07-21T14:47:35Z</time>
      </trkpt>
      <trkpt lat="44.59707" lon="2.9401">
        <ele>959</ele>
        <time>2013-07-21T14:47:49Z</time>
      </trkpt>
      <trkpt lat="44.59705" lon="2.94003">
        <ele>960</ele>
        <time>2013-07-21T14:47:56Z</time>
      </trkpt>
      <trkpt lat="44.597" lon="2.93995">
        <ele>960</ele>
        <time>2013-07-21T14:48:15Z</time>
      </trkpt>
      <trkpt lat="44.59693" lon="2.93995">
        <ele>956</ele>
        <time>2013-07-21T14:48:23Z</time>
      </trkpt>
      <trkpt lat="44.5969" lon="2.93995">
        <ele>955</ele>
        <time>2013-07-21T14:48:31Z</time>
      </trkpt>
      <trkpt lat="44.59685" lon="2.93993">
        <ele>951</ele>
        <time>2013-07-21T14:48:47Z</time>
      </trkpt>
      <trkpt lat="44.59681" lon="2.93989">
        <ele>951</ele>
        <time>2013-07-21T14:48:55Z</time>
      </trkpt>
      <trkpt lat="44.59675" lon="2.93985">
        <ele>951</ele>
        <time>2013-07-21T14:49:00Z</time>
      </trkpt>
      <trkpt lat="44.59667" lon="2.93976">
        <ele>949</ele>
        <time>2013-07-21T14:49:12Z</time>
      </trkpt>
      <trkpt lat="44.59664" lon="2.93971">
        <ele>947</ele>
        <time>2013-07-21T14:49:19Z</time>
      </trkpt>
      <trkpt lat="44.59659" lon="2.93967">
        <ele>945</ele>
        <time>2013-07-21T14:49:24Z</time>
      </trkpt>
      <trkpt lat="44.59655" lon="2.93963">
        <ele>944</ele>
        <time>2013-07-21T14:49:28Z</time>
      </trkpt>
      <trkpt lat="44.59648" lon="2.93954">
        <ele>939</ele>
        <time>2013-07-21T14:49:44Z</time>
      </trkpt>
      <trkpt lat="44.59644" lon="2.93951">
        <ele>938</ele>
        <time>2013-07-21T14:49:48Z</time>
      </trkpt>
      <trkpt lat="44.59637" lon="2.93942">
        <ele>938</ele>
        <time>2013-07-21T14:50:00Z</time>
      </trkpt>
      <trkpt lat="44.59634" lon="2.93936">
        <ele>937</ele>
        <time>2013-07-21T14:50:08Z</time>
      </trkpt>
      <trkpt lat="44.59631" lon="2.9393">
        <ele>935</ele>
        <time>2013-07-21T14:50:23Z</time>
      </trkpt>
      <trkpt lat="44.59628" lon="2.93925">
        <ele>934</ele>
        <time>2013-07-21T14:50:31Z</time>
      </trkpt>
      <trkpt lat="44.59621" lon="2.93915">
        <ele>931</ele>
        <time>2013-07-21T14:50:43Z</time>
      </trkpt>
      <trkpt lat="44.59614" lon="2.9391">
        <ele>930</ele>
        <time>2013-07-21T14:50:49Z</time>
      </trkpt>
      <trkpt lat="44.5961" lon="2.93907">
        <ele>929</ele>
        <time>2013-07-21T14:50:52Z</time>
      </trkpt>
      <trkpt lat="44.59602" lon="2.939">
        <ele>927</ele>
        <time>2013-07-21T14:51:02Z</time>
      </trkpt>
      <trkpt lat="44.59599" lon="2.93887">
        <ele>929</ele>
        <time>2013-07-21T14:51:11Z</time>
      </trkpt>
      <trkpt lat="44.59599" lon="2.93872">
        <ele>931</ele>
        <time>2013-07-21T14:51:18Z</time>
      </trkpt>
      <trkpt lat="44.59598" lon="2.93861">
        <ele>934</ele>
        <time>2013-07-21T14:51:23Z</time>
      </trkpt>
      <trkpt lat="44.59596" lon="2.93855">
        <ele>934</ele>
        <time>2013-07-21T14:51:26Z</time>
      </trkpt>
      <trkpt lat="44.59594" lon="2.93848">
        <ele>933</ele>
        <time>2013-07-21T14:51:29Z</time>
      </trkpt>
      <trkpt lat="44.59591" lon="2.93836">
        <ele>932</ele>
        <time>2013-07-21T14:51:38Z</time>
      </trkpt>
      <trkpt lat="44.59588" lon="2.93823">
        <ele>932</ele>
        <time>2013-07-21T14:51:44Z</time>
      </trkpt>
      <trkpt lat="44.59588" lon="2.93816">
        <ele>932</ele>
        <time>2013-07-21T14:51:47Z</time>
      </trkpt>
      <trkpt lat="44.59588" lon="2.9381">
        <ele>931</ele>
        <time>2013-07-21T14:51:51Z</time>
      </trkpt>
      <trkpt lat="44.59588" lon="2.93793">
        <ele>926</ele>
        <time>2013-07-21T14:52:05Z</time>
      </trkpt>
      <trkpt lat="44.59588" lon="2.9378">
        <ele>924</ele>
        <time>2013-07-21T14:52:13Z</time>
      </trkpt>
      <trkpt lat="44.59594" lon="2.93774">
        <ele>917</ele>
        <time>2013-07-21T14:52:56Z</time>
      </trkpt>
      <trkpt lat="44.59599" lon="2.93769">
        <ele>917</ele>
        <time>2013-07-21T14:53:04Z</time>
      </trkpt>
      <trkpt lat="44.59606" lon="2.9376">
        <ele>916</ele>
        <time>2013-07-21T14:53:12Z</time>
      </trkpt>
      <trkpt lat="44.59614" lon="2.93755">
        <ele>911</ele>
        <time>2013-07-21T14:53:21Z</time>
      </trkpt>
      <trkpt lat="44.59624" lon="2.93748">
        <ele>908</ele>
        <time>2013-07-21T14:53:35Z</time>
      </trkpt>
      <trkpt lat="44.59633" lon="2.93743">
        <ele>906</ele>
        <time>2013-07-21T14:53:45Z</time>
      </trkpt>
      <trkpt lat="44.59638" lon="2.93738">
        <ele>907</ele>
        <time>2013-07-21T14:53:50Z</time>
      </trkpt>
      <trkpt lat="44.59637" lon="2.93727">
        <ele>911</ele>
        <time>2013-07-21T14:53:56Z</time>
      </trkpt>
      <trkpt lat="44.59635" lon="2.93721">
        <ele>913</ele>
        <time>2013-07-21T14:54:00Z</time>
      </trkpt>
      <trkpt lat="44.59623" lon="2.9371">
        <ele>919</ele>
        <time>2013-07-21T14:54:16Z</time>
      </trkpt>
      <trkpt lat="44.59616" lon="2.93698">
        <ele>920</ele>
        <time>2013-07-21T14:54:23Z</time>
      </trkpt>
      <trkpt lat="44.59613" lon="2.93686">
        <ele>921</ele>
        <time>2013-07-21T14:54:29Z</time>
      </trkpt>
      <trkpt lat="44.59605" lon="2.93676">
        <ele>922</ele>
        <time>2013-07-21T14:54:39Z</time>
      </trkpt>
      <trkpt lat="44.59598" lon="2.93664">
        <ele>921</ele>
        <time>2013-07-21T14:54:48Z</time>
      </trkpt>
      <trkpt lat="44.5959" lon="2.93657">
        <ele>919</ele>
        <time>2013-07-21T14:54:54Z</time>
      </trkpt>
      <trkpt lat="44.59582" lon="2.93649">
        <ele>919</ele>
        <time>2013-07-21T14:55:01Z</time>
      </trkpt>
      <trkpt lat="44.59579" lon="2.93644">
        <ele>919</ele>
        <time>2013-07-21T14:55:08Z</time>
      </trkpt>
      <trkpt lat="44.59575" lon="2.9364">
        <ele>919</ele>
        <time>2013-07-21T14:55:14Z</time>
      </trkpt>
      <trkpt lat="44.5957" lon="2.93634">
        <ele>918</ele>
        <time>2013-07-21T14:55:20Z</time>
      </trkpt>
      <trkpt lat="44.59566" lon="2.93628">
        <ele>918</ele>
        <time>2013-07-21T14:55:25Z</time>
      </trkpt>
      <trkpt lat="44.59562" lon="2.9362">
        <ele>918</ele>
        <time>2013-07-21T14:55:32Z</time>
      </trkpt>
      <trkpt lat="44.59557" lon="2.9361">
        <ele>920</ele>
        <time>2013-07-21T14:55:41Z</time>
      </trkpt>
      <trkpt lat="44.59552" lon="2.93599">
        <ele>924</ele>
        <time>2013-07-21T14:55:51Z</time>
      </trkpt>
      <trkpt lat="44.5955" lon="2.93593">
        <ele>926</ele>
        <time>2013-07-21T14:55:58Z</time>
      </trkpt>
      <trkpt lat="44.59547" lon="2.93586">
        <ele>926</ele>
        <time>2013-07-21T14:56:02Z</time>
      </trkpt>
      <trkpt lat="44.59544" lon="2.93581">
        <ele>926</ele>
        <time>2013-07-21T14:56:06Z</time>
      </trkpt>
      <trkpt lat="44.59539" lon="2.93569">
        <ele>923</ele>
        <time>2013-07-21T14:56:17Z</time>
      </trkpt>
      <trkpt lat="44.59532" lon="2.93562">
        <ele>917</ele>
        <time>2013-07-21T14:56:25Z</time>
      </trkpt>
      <trkpt lat="44.59526" lon="2.93551">
        <ele>915</ele>
        <time>2013-07-21T14:56:33Z</time>
      </trkpt>
      <trkpt lat="44.59522" lon="2.93548">
        <ele>915</ele>
        <time>2013-07-21T14:56:37Z</time>
      </trkpt>
      <trkpt lat="44.59514" lon="2.93537">
        <ele>911</ele>
        <time>2013-07-21T14:56:47Z</time>
      </trkpt>
      <trkpt lat="44.59504" lon="2.93527">
        <ele>904</ele>
        <time>2013-07-21T14:57:03Z</time>
      </trkpt>
      <trkpt lat="44.59497" lon="2.93518">
        <ele>904</ele>
        <time>2013-07-21T14:57:10Z</time>
      </trkpt>
      <trkpt lat="44.59498" lon="2.93509">
        <ele>906</ele>
        <time>2013-07-21T14:57:27Z</time>
      </trkpt>
      <trkpt lat="44.59496" lon="2.93495">
        <ele>907</ele>
        <time>2013-07-21T14:57:34Z</time>
      </trkpt>
      <trkpt lat="44.59494" lon="2.93481">
        <ele>905</ele>
        <time>2013-07-21T14:57:44Z</time>
      </trkpt>
      <trkpt lat="44.59494" lon="2.93468">
        <ele>903</ele>
        <time>2013-07-21T14:57:51Z</time>
      </trkpt>
      <trkpt lat="44.59489" lon="2.93454">
        <ele>903</ele>
        <time>2013-07-21T14:58:02Z</time>
      </trkpt>
      <trkpt lat="44.59483" lon="2.93445">
        <ele>906</ele>
        <time>2013-07-21T14:58:09Z</time>
      </trkpt>
      <trkpt lat="44.5948" lon="2.93432">
        <ele>909</ele>
        <time>2013-07-21T14:58:16Z</time>
      </trkpt>
      <trkpt lat="44.59476" lon="2.9342">
        <ele>910</ele>
        <time>2013-07-21T14:58:24Z</time>
      </trkpt>
      <trkpt lat="44.59473" lon="2.93405">
        <ele>911</ele>
        <time>2013-07-21T14:58:28Z</time>
      </trkpt>
      <trkpt lat="44.59467" lon="2.93396">
        <ele>911</ele>
        <time>2013-07-21T14:58:43Z</time>
      </trkpt>
      <trkpt lat="44.59462" lon="2.93381">
        <ele>909</ele>
        <time>2013-07-21T14:58:51Z</time>
      </trkpt>
      <trkpt lat="44.59456" lon="2.93366">
        <ele>908</ele>
        <time>2013-07-21T14:59:01Z</time>
      </trkpt>
      <trkpt lat="44.59455" lon="2.93353">
        <ele>909</ele>
        <time>2013-07-21T14:59:09Z</time>
      </trkpt>
      <trkpt lat="44.5945" lon="2.93341">
        <ele>910</ele>
        <time>2013-07-21T14:59:16Z</time>
      </trkpt>
      <trkpt lat="44.59446" lon="2.93329">
        <ele>910</ele>
        <time>2013-07-21T14:59:21Z</time>
      </trkpt>
      <trkpt lat="44.5944" lon="2.93319">
        <ele>910</ele>
        <time>2013-07-21T14:59:26Z</time>
      </trkpt>
      <trkpt lat="44.59434" lon="2.93308">
        <ele>909</ele>
        <time>2013-07-21T14:59:31Z</time>
      </trkpt>
      <trkpt lat="44.59425" lon="2.93297">
        <ele>908</ele>
        <time>2013-07-21T14:59:38Z</time>
      </trkpt>
      <trkpt lat="44.59422" lon="2.93285">
        <ele>905</ele>
        <time>2013-07-21T14:59:44Z</time>
      </trkpt>
      <trkpt lat="44.59418" lon="2.93273">
        <ele>904</ele>
        <time>2013-07-21T14:59:49Z</time>
      </trkpt>
      <trkpt lat="44.59417" lon="2.9326">
        <ele>902</ele>
        <time>2013-07-21T14:59:56Z</time>
      </trkpt>
      <trkpt lat="44.59411" lon="2.93248">
        <ele>902</ele>
        <time>2013-07-21T15:00:09Z</time>
      </trkpt>
      <trkpt lat="44.59405" lon="2.93235">
        <ele>904</ele>
        <time>2013-07-21T15:00:17Z</time>
      </trkpt>
      <trkpt lat="44.59404" lon="2.93217">
        <ele>908</ele>
        <time>2013-07-21T15:00:29Z</time>
      </trkpt>
      <trkpt lat="44.59405" lon="2.93202">
        <ele>909</ele>
        <time>2013-07-21T15:00:35Z</time>
      </trkpt>
      <trkpt lat="44.59403" lon="2.93184">
        <ele>911</ele>
        <time>2013-07-21T15:00:47Z</time>
      </trkpt>
      <trkpt lat="44.59396" lon="2.93166">
        <ele>912</ele>
        <time>2013-07-21T15:00:57Z</time>
      </trkpt>
      <trkpt lat="44.5939" lon="2.93153">
        <ele>912</ele>
        <time>2013-07-21T15:01:05Z</time>
      </trkpt>
      <trkpt lat="44.59386" lon="2.93141">
        <ele>913</ele>
        <time>2013-07-21T15:01:11Z</time>
      </trkpt>
      <trkpt lat="44.59378" lon="2.93136">
        <ele>913</ele>
        <time>2013-07-21T15:01:18Z</time>
      </trkpt>
      <trkpt lat="44.59374" lon="2.93125">
        <ele>910</ele>
        <time>2013-07-21T15:01:25Z</time>
      </trkpt>
      <trkpt lat="44.59373" lon="2.93112">
        <ele>905</ele>
        <time>2013-07-21T15:01:32Z</time>
      </trkpt>
      <trkpt lat="44.59368" lon="2.931">
        <ele>902</ele>
        <time>2013-07-21T15:01:39Z</time>
      </trkpt>
      <trkpt lat="44.59361" lon="2.93089">
        <ele>899</ele>
        <time>2013-07-21T15:01:47Z</time>
      </trkpt>
      <trkpt lat="44.59353" lon="2.93083">
        <ele>889</ele>
        <time>2013-07-21T15:02:01Z</time>
      </trkpt>
      <trkpt lat="44.59343" lon="2.93061">
        <ele>878</ele>
        <time>2013-07-21T15:02:18Z</time>
      </trkpt>
      <trkpt lat="44.59337" lon="2.93032">
        <ele>867</ele>
        <time>2013-07-21T15:02:40Z</time>
      </trkpt>
      <trkpt lat="44.59334" lon="2.93018">
        <ele>865</ele>
        <time>2013-07-21T15:02:46Z</time>
      </trkpt>
      <trkpt lat="44.59335" lon="2.93005">
        <ele>863</ele>
        <time>2013-07-21T15:02:54Z</time>
      </trkpt>
      <trkpt lat="44.59331" lon="2.92993">
        <ele>862</ele>
        <time>2013-07-21T15:03:00Z</time>
      </trkpt>
      <trkpt lat="44.5933" lon="2.92979">
        <ele>859</ele>
        <time>2013-07-21T15:03:07Z</time>
      </trkpt>
      <trkpt lat="44.59327" lon="2.92967">
        <ele>858</ele>
        <time>2013-07-21T15:03:14Z</time>
      </trkpt>
      <trkpt lat="44.59325" lon="2.92953">
        <ele>858</ele>
        <time>2013-07-21T15:03:20Z</time>
      </trkpt>
      <trkpt lat="44.59323" lon="2.92938">
        <ele>858</ele>
        <time>2013-07-21T15:03:27Z</time>
      </trkpt>
      <trkpt lat="44.59322" lon="2.92925">
        <ele>857</ele>
        <time>2013-07-21T15:03:35Z</time>
      </trkpt>
      <trkpt lat="44.59323" lon="2.92912">
        <ele>857</ele>
        <time>2013-07-21T15:03:44Z</time>
      </trkpt>
      <trkpt lat="44.59323" lon="2.92899">
        <ele>858</ele>
        <time>2013-07-21T15:03:51Z</time>
      </trkpt>
      <trkpt lat="44.59322" lon="2.92886">
        <ele>858</ele>
        <time>2013-07-21T15:03:58Z</time>
      </trkpt>
      <trkpt lat="44.59322" lon="2.92872">
        <ele>856</ele>
        <time>2013-07-21T15:04:06Z</time>
      </trkpt>
      <trkpt lat="44.59323" lon="2.9286">
        <ele>855</ele>
        <time>2013-07-21T15:04:14Z</time>
      </trkpt>
      <trkpt lat="44.59323" lon="2.92846">
        <ele>858</ele>
        <time>2013-07-21T15:04:21Z</time>
      </trkpt>
      <trkpt lat="44.59323" lon="2.92839">
        <ele>859</ele>
        <time>2013-07-21T15:04:26Z</time>
      </trkpt>
      <trkpt lat="44.59323" lon="2.92822">
        <ele>859</ele>
        <time>2013-07-21T15:04:36Z</time>
      </trkpt>
      <trkpt lat="44.59322" lon="2.92808">
        <ele>861</ele>
        <time>2013-07-21T15:04:42Z</time>
      </trkpt>
      <trkpt lat="44.59315" lon="2.92803">
        <ele>858</ele>
        <time>2013-07-21T15:05:43Z</time>
      </trkpt>
      <trkpt lat="44.59307" lon="2.9281">
        <ele>857</ele>
        <time>2013-07-21T15:06:02Z</time>
      </trkpt>
      <trkpt lat="44.59297" lon="2.92805">
        <ele>851</ele>
        <time>2013-07-21T15:06:17Z</time>
      </trkpt>
      <trkpt lat="44.59291" lon="2.92808">
        <ele>845</ele>
        <time>2013-07-21T15:06:27Z</time>
      </trkpt>
      <trkpt lat="44.59292" lon="2.92821">
        <ele>841</ele>
        <time>2013-07-21T15:06:37Z</time>
      </trkpt>
      <trkpt lat="44.59296" lon="2.92828">
        <ele>841</ele>
        <time>2013-07-21T15:06:42Z</time>
      </trkpt>
      <trkpt lat="44.59298" lon="2.92834">
        <ele>841</ele>
        <time>2013-07-21T15:06:46Z</time>
      </trkpt>
      <trkpt lat="44.593" lon="2.92841">
        <ele>841</ele>
        <time>2013-07-21T15:06:50Z</time>
      </trkpt>
      <trkpt lat="44.59302" lon="2.92853">
        <ele>841</ele>
        <time>2013-07-21T15:06:57Z</time>
      </trkpt>
      <trkpt lat="44.59306" lon="2.92862">
        <ele>844</ele>
        <time>2013-07-21T15:07:04Z</time>
      </trkpt>
      <trkpt lat="44.5931" lon="2.92866">
        <ele>846</ele>
        <time>2013-07-21T15:07:07Z</time>
      </trkpt>
      <trkpt lat="44.59306" lon="2.92879">
        <ele>849</ele>
        <time>2013-07-21T15:07:18Z</time>
      </trkpt>
      <trkpt lat="44.59308" lon="2.92885">
        <ele>850</ele>
        <time>2013-07-21T15:07:52Z</time>
      </trkpt>
      <trkpt lat="44.5931" lon="2.92881">
        <ele>842</ele>
        <time>2013-07-21T15:11:48Z</time>
      </trkpt>
      <trkpt lat="44.59319" lon="2.92889">
        <ele>843</ele>
        <time>2013-07-21T15:12:28Z</time>
      </trkpt>
      <trkpt lat="44.59311" lon="2.92889">
        <ele>843</ele>
        <time>2013-07-21T15:13:08Z</time>
      </trkpt>
      <trkpt lat="44.59309" lon="2.92887">
        <ele>844</ele>
        <time>2013-07-21T15:15:16Z</time>
      </trkpt>
      <trkpt lat="44.59307" lon="2.9287">
        <ele>845</ele>
        <time>2013-07-21T15:16:24Z</time>
      </trkpt>
      <trkpt lat="44.59303" lon="2.92858">
        <ele>842</ele>
        <time>2013-07-21T15:16:31Z</time>
      </trkpt>
      <trkpt lat="44.59302" lon="2.92852">
        <ele>838</ele>
        <time>2013-07-21T15:16:36Z</time>
      </trkpt>
      <trkpt lat="44.593" lon="2.92845">
        <ele>837</ele>
        <time>2013-07-21T15:16:39Z</time>
      </trkpt>
      <trkpt lat="44.59297" lon="2.92839">
        <ele>837</ele>
        <time>2013-07-21T15:16:43Z</time>
      </trkpt>
      <trkpt lat="44.59293" lon="2.92833">
        <ele>838</ele>
        <time>2013-07-21T15:16:47Z</time>
      </trkpt>
      <trkpt lat="44.5929" lon="2.92827">
        <ele>840</ele>
        <time>2013-07-21T15:16:52Z</time>
      </trkpt>
      <trkpt lat="44.59287" lon="2.9282">
        <ele>841</ele>
        <time>2013-07-21T15:16:56Z</time>
      </trkpt>
      <trkpt lat="44.59282" lon="2.92809">
        <ele>841</ele>
        <time>2013-07-21T15:17:05Z</time>
      </trkpt>
      <trkpt lat="44.59276" lon="2.928">
        <ele>842</ele>
        <time>2013-07-21T15:17:17Z</time>
      </trkpt>
      <trkpt lat="44.59272" lon="2.92796">
        <ele>840</ele>
        <time>2013-07-21T15:17:25Z</time>
      </trkpt>
      <trkpt lat="44.59268" lon="2.92791">
        <ele>838</ele>
        <time>2013-07-21T15:17:30Z</time>
      </trkpt>
      <trkpt lat="44.59264" lon="2.92787">
        <ele>837</ele>
        <time>2013-07-21T15:17:35Z</time>
      </trkpt>
      <trkpt lat="44.59257" lon="2.92781">
        <ele>834</ele>
        <time>2013-07-21T15:17:42Z</time>
      </trkpt>
      <trkpt lat="44.5925" lon="2.92772">
        <ele>830</ele>
        <time>2013-07-21T15:17:51Z</time>
      </trkpt>
      <trkpt lat="44.59243" lon="2.92763">
        <ele>828</ele>
        <time>2013-07-21T15:18:03Z</time>
      </trkpt>
      <trkpt lat="44.59237" lon="2.92753">
        <ele>824</ele>
        <time>2013-07-21T15:18:13Z</time>
      </trkpt>
      <trkpt lat="44.59233" lon="2.9274">
        <ele>822</ele>
        <time>2013-07-21T15:18:20Z</time>
      </trkpt>
      <trkpt lat="44.59228" lon="2.92727">
        <ele>821</ele>
        <time>2013-07-21T15:18:27Z</time>
      </trkpt>
      <trkpt lat="44.59222" lon="2.92715">
        <ele>821</ele>
        <time>2013-07-21T15:18:33Z</time>
      </trkpt>
      <trkpt lat="44.59214" lon="2.92706">
        <ele>820</ele>
        <time>2013-07-21T15:18:39Z</time>
      </trkpt>
      <trkpt lat="44.59205" lon="2.92701">
        <ele>818</ele>
        <time>2013-07-21T15:18:46Z</time>
      </trkpt>
      <trkpt lat="44.59199" lon="2.9269">
        <ele>817</ele>
        <time>2013-07-21T15:18:54Z</time>
      </trkpt>
      <trkpt lat="44.59193" lon="2.92682">
        <ele>816</ele>
        <time>2013-07-21T15:19:02Z</time>
      </trkpt>
      <trkpt lat="44.59188" lon="2.92677">
        <ele>814</ele>
        <time>2013-07-21T15:19:07Z</time>
      </trkpt>
      <trkpt lat="44.59187" lon="2.92673">
        <ele>813</ele>
        <time>2013-07-21T15:19:14Z</time>
      </trkpt>
      <trkpt lat="44.59184" lon="2.92671">
        <ele>813</ele>
        <time>2013-07-21T15:19:50Z</time>
      </trkpt>
      <trkpt lat="44.5918" lon="2.92662">
        <ele>813</ele>
        <time>2013-07-21T15:20:00Z</time>
      </trkpt>
      <trkpt lat="44.59179" lon="2.92653">
        <ele>814</ele>
        <time>2013-07-21T15:20:05Z</time>
      </trkpt>
      <trkpt lat="44.59178" lon="2.92646">
        <ele>815</ele>
        <time>2013-07-21T15:20:09Z</time>
      </trkpt>
      <trkpt lat="44.59177" lon="2.92639">
        <ele>817</ele>
        <time>2013-07-21T15:20:14Z</time>
      </trkpt>
      <trkpt lat="44.59176" lon="2.92624">
        <ele>818</ele>
        <time>2013-07-21T15:20:28Z</time>
      </trkpt>
      <trkpt lat="44.59172" lon="2.92611">
        <ele>819</ele>
        <time>2013-07-21T15:20:40Z</time>
      </trkpt>
      <trkpt lat="44.59169" lon="2.926">
        <ele>820</ele>
        <time>2013-07-21T15:20:46Z</time>
      </trkpt>
      <trkpt lat="44.59167" lon="2.92592">
        <ele>820</ele>
        <time>2013-07-21T15:20:50Z</time>
      </trkpt>
      <trkpt lat="44.59163" lon="2.92578">
        <ele>817</ele>
        <time>2013-07-21T15:20:59Z</time>
      </trkpt>
      <trkpt lat="44.5916" lon="2.92564">
        <ele>815</ele>
        <time>2013-07-21T15:21:08Z</time>
      </trkpt>
    </trkseg>
  </trk>
</gpx>